<?xml version="1.0" encoding="UTF-8" standalone="no" ?>
<gpx xmlns="http://www.topografix.com/GPX/1/1" xmlns:xsi="http://www.w3.org/2001/XMLSchema-instance" xsi:schemaLocation="http://www.topografix.com/GPX/1/1 http://www.topografix.com/GPX/1/1/gpx.xsd" version="1.1" creator="VisuGPX - https://www.visugpx.com">
  <metadata>
    <name>Tour du Mézenc</name>
    <desc><![CDATA[Très belle randonnée autour du Mont Mézenc, dont les 2 sommets sont les points culminants, l'un de la Haute Loire, l'autre de l’Ardèche.

Le départ peut se faire indistinctement des parkings de la Croix Peccata ou de la Croix de Boutières.]]></desc>
  </metadata>
  <trk>
    <name><![CDATA[Tracé actuel: 25 OCT 2020 09:46]]></name>
    <extensions>
      <line xmlns="http://www.topografix.com/GPX/gpx_style/0/2">
        <color>0000FF</color>
        <width>4</width>
      </line>
    </extensions>
    <trkseg>
      <trkpt lat="44.9159" lon="4.17855">
        <ele>1591.12</ele>
        <time>2020-10-25T08:46:38Z</time>
      </trkpt>
      <trkpt lat="44.9159" lon="4.17856">
        <ele>1578.14</ele>
        <time>2020-10-25T08:46:42Z</time>
      </trkpt>
      <trkpt lat="44.9159" lon="4.17856">
        <ele>1585.83</ele>
        <time>2020-10-25T08:47:12Z</time>
      </trkpt>
      <trkpt lat="44.9159" lon="4.17857">
        <ele>1572.85</ele>
        <time>2020-10-25T08:47:22Z</time>
      </trkpt>
      <trkpt lat="44.91591" lon="4.17856">
        <ele>1580.06</ele>
        <time>2020-10-25T08:47:28Z</time>
      </trkpt>
      <trkpt lat="44.91589" lon="4.17855">
        <ele>1579.58</ele>
        <time>2020-10-25T08:47:37Z</time>
      </trkpt>
      <trkpt lat="44.9159" lon="4.17855">
        <ele>1581.03</ele>
        <time>2020-10-25T08:47:41Z</time>
      </trkpt>
      <trkpt lat="44.91589" lon="4.17854">
        <ele>1580.54</ele>
        <time>2020-10-25T08:47:52Z</time>
      </trkpt>
      <trkpt lat="44.9159" lon="4.17854">
        <ele>1579.1</ele>
        <time>2020-10-25T08:48:08Z</time>
      </trkpt>
      <trkpt lat="44.9159" lon="4.17853">
        <ele>1582.47</ele>
        <time>2020-10-25T08:48:13Z</time>
      </trkpt>
      <trkpt lat="44.91591" lon="4.17852">
        <ele>1580.54</ele>
        <time>2020-10-25T08:48:50Z</time>
      </trkpt>
      <trkpt lat="44.91591" lon="4.17853">
        <ele>1581.03</ele>
        <time>2020-10-25T08:48:51Z</time>
      </trkpt>
      <trkpt lat="44.91591" lon="4.17866">
        <ele>1578.62</ele>
        <time>2020-10-25T08:48:57Z</time>
      </trkpt>
      <trkpt lat="44.91592" lon="4.17868">
        <ele>1579.1</ele>
        <time>2020-10-25T08:48:58Z</time>
      </trkpt>
      <trkpt lat="44.91595" lon="4.17875">
        <ele>1580.54</ele>
        <time>2020-10-25T08:49:02Z</time>
      </trkpt>
      <trkpt lat="44.91592" lon="4.17889">
        <ele>1581.51</ele>
        <time>2020-10-25T08:49:10Z</time>
      </trkpt>
      <trkpt lat="44.9159" lon="4.17896">
        <ele>1580.54</ele>
        <time>2020-10-25T08:49:13Z</time>
      </trkpt>
      <trkpt lat="44.91588" lon="4.17921">
        <ele>1582.47</ele>
        <time>2020-10-25T08:49:26Z</time>
      </trkpt>
      <trkpt lat="44.91589" lon="4.17922">
        <ele>1582.47</ele>
        <time>2020-10-25T08:49:27Z</time>
      </trkpt>
      <trkpt lat="44.91589" lon="4.17932">
        <ele>1581.99</ele>
        <time>2020-10-25T08:49:32Z</time>
      </trkpt>
      <trkpt lat="44.91589" lon="4.1795">
        <ele>1582.95</ele>
        <time>2020-10-25T08:49:41Z</time>
      </trkpt>
      <trkpt lat="44.91589" lon="4.17957">
        <ele>1581.03</ele>
        <time>2020-10-25T08:49:44Z</time>
      </trkpt>
      <trkpt lat="44.9159" lon="4.17959">
        <ele>1581.51</ele>
        <time>2020-10-25T08:49:45Z</time>
      </trkpt>
      <trkpt lat="44.9159" lon="4.17973">
        <ele>1581.51</ele>
        <time>2020-10-25T08:49:53Z</time>
      </trkpt>
      <trkpt lat="44.9159" lon="4.17977">
        <ele>1582.47</ele>
        <time>2020-10-25T08:49:56Z</time>
      </trkpt>
      <trkpt lat="44.91592" lon="4.17996">
        <ele>1581.51</ele>
        <time>2020-10-25T08:50:06Z</time>
      </trkpt>
      <trkpt lat="44.91593" lon="4.18004">
        <ele>1581.99</ele>
        <time>2020-10-25T08:50:10Z</time>
      </trkpt>
      <trkpt lat="44.91594" lon="4.18026">
        <ele>1582.47</ele>
        <time>2020-10-25T08:50:21Z</time>
      </trkpt>
      <trkpt lat="44.91594" lon="4.18034">
        <ele>1582.47</ele>
        <time>2020-10-25T08:50:24Z</time>
      </trkpt>
      <trkpt lat="44.91594" lon="4.1805">
        <ele>1583.43</ele>
        <time>2020-10-25T08:50:30Z</time>
      </trkpt>
      <trkpt lat="44.91597" lon="4.18076">
        <ele>1581.51</ele>
        <time>2020-10-25T08:50:42Z</time>
      </trkpt>
      <trkpt lat="44.91597" lon="4.18079">
        <ele>1581.03</ele>
        <time>2020-10-25T08:50:44Z</time>
      </trkpt>
      <trkpt lat="44.916" lon="4.18111">
        <ele>1579.58</ele>
        <time>2020-10-25T08:50:59Z</time>
      </trkpt>
      <trkpt lat="44.916" lon="4.18113">
        <ele>1580.06</ele>
        <time>2020-10-25T08:51:00Z</time>
      </trkpt>
      <trkpt lat="44.91601" lon="4.18119">
        <ele>1581.03</ele>
        <time>2020-10-25T08:51:02Z</time>
      </trkpt>
      <trkpt lat="44.91601" lon="4.18126">
        <ele>1579.58</ele>
        <time>2020-10-25T08:51:06Z</time>
      </trkpt>
      <trkpt lat="44.91602" lon="4.18131">
        <ele>1579.1</ele>
        <time>2020-10-25T08:51:08Z</time>
      </trkpt>
      <trkpt lat="44.91603" lon="4.18136">
        <ele>1578.14</ele>
        <time>2020-10-25T08:51:10Z</time>
      </trkpt>
      <trkpt lat="44.9161" lon="4.1817">
        <ele>1576.22</ele>
        <time>2020-10-25T08:51:24Z</time>
      </trkpt>
      <trkpt lat="44.91611" lon="4.1818">
        <ele>1577.18</ele>
        <time>2020-10-25T08:51:29Z</time>
      </trkpt>
      <trkpt lat="44.91615" lon="4.18195">
        <ele>1579.58</ele>
        <time>2020-10-25T08:51:35Z</time>
      </trkpt>
      <trkpt lat="44.91617" lon="4.18207">
        <ele>1576.22</ele>
        <time>2020-10-25T08:51:40Z</time>
      </trkpt>
      <trkpt lat="44.91618" lon="4.1821">
        <ele>1575.74</ele>
        <time>2020-10-25T08:51:42Z</time>
      </trkpt>
      <trkpt lat="44.9162" lon="4.18218">
        <ele>1577.18</ele>
        <time>2020-10-25T08:51:47Z</time>
      </trkpt>
      <trkpt lat="44.91621" lon="4.18227">
        <ele>1575.74</ele>
        <time>2020-10-25T08:51:52Z</time>
      </trkpt>
      <trkpt lat="44.91621" lon="4.18229">
        <ele>1576.22</ele>
        <time>2020-10-25T08:51:53Z</time>
      </trkpt>
      <trkpt lat="44.91622" lon="4.18236">
        <ele>1575.74</ele>
        <time>2020-10-25T08:51:58Z</time>
      </trkpt>
      <trkpt lat="44.91627" lon="4.18252">
        <ele>1574.78</ele>
        <time>2020-10-25T08:52:08Z</time>
      </trkpt>
      <trkpt lat="44.91629" lon="4.1826">
        <ele>1574.78</ele>
        <time>2020-10-25T08:52:11Z</time>
      </trkpt>
      <trkpt lat="44.91635" lon="4.18281">
        <ele>1574.78</ele>
        <time>2020-10-25T08:52:22Z</time>
      </trkpt>
      <trkpt lat="44.91639" lon="4.1829">
        <ele>1573.33</ele>
        <time>2020-10-25T08:52:27Z</time>
      </trkpt>
      <trkpt lat="44.91641" lon="4.18297">
        <ele>1571.89</ele>
        <time>2020-10-25T08:52:30Z</time>
      </trkpt>
      <trkpt lat="44.91643" lon="4.18303">
        <ele>1573.82</ele>
        <time>2020-10-25T08:52:33Z</time>
      </trkpt>
      <trkpt lat="44.91648" lon="4.18315">
        <ele>1571.89</ele>
        <time>2020-10-25T08:52:39Z</time>
      </trkpt>
      <trkpt lat="44.91651" lon="4.18322">
        <ele>1575.26</ele>
        <time>2020-10-25T08:52:42Z</time>
      </trkpt>
      <trkpt lat="44.91653" lon="4.18325">
        <ele>1571.41</ele>
        <time>2020-10-25T08:52:43Z</time>
      </trkpt>
      <trkpt lat="44.91654" lon="4.18326">
        <ele>1574.3</ele>
        <time>2020-10-25T08:52:44Z</time>
      </trkpt>
      <trkpt lat="44.91655" lon="4.1833">
        <ele>1571.41</ele>
        <time>2020-10-25T08:52:46Z</time>
      </trkpt>
      <trkpt lat="44.91658" lon="4.18335">
        <ele>1571.89</ele>
        <time>2020-10-25T08:52:48Z</time>
      </trkpt>
      <trkpt lat="44.91661" lon="4.18342">
        <ele>1571.89</ele>
        <time>2020-10-25T08:52:52Z</time>
      </trkpt>
      <trkpt lat="44.91665" lon="4.1835">
        <ele>1570.93</ele>
        <time>2020-10-25T08:52:57Z</time>
      </trkpt>
      <trkpt lat="44.91669" lon="4.18361">
        <ele>1568.53</ele>
        <time>2020-10-25T08:53:02Z</time>
      </trkpt>
      <trkpt lat="44.91673" lon="4.18374">
        <ele>1568.05</ele>
        <time>2020-10-25T08:53:08Z</time>
      </trkpt>
      <trkpt lat="44.91677" lon="4.18386">
        <ele>1569.49</ele>
        <time>2020-10-25T08:53:14Z</time>
      </trkpt>
      <trkpt lat="44.91683" lon="4.18398">
        <ele>1568.53</ele>
        <time>2020-10-25T08:53:21Z</time>
      </trkpt>
      <trkpt lat="44.91688" lon="4.18412">
        <ele>1566.61</ele>
        <time>2020-10-25T08:53:28Z</time>
      </trkpt>
      <trkpt lat="44.9169" lon="4.18425">
        <ele>1566.12</ele>
        <time>2020-10-25T08:53:34Z</time>
      </trkpt>
      <trkpt lat="44.91692" lon="4.18429">
        <ele>1568.05</ele>
        <time>2020-10-25T08:53:36Z</time>
      </trkpt>
      <trkpt lat="44.91694" lon="4.18431">
        <ele>1566.12</ele>
        <time>2020-10-25T08:53:38Z</time>
      </trkpt>
      <trkpt lat="44.91704" lon="4.18458">
        <ele>1564.68</ele>
        <time>2020-10-25T08:53:53Z</time>
      </trkpt>
      <trkpt lat="44.91711" lon="4.18472">
        <ele>1565.64</ele>
        <time>2020-10-25T08:54:03Z</time>
      </trkpt>
      <trkpt lat="44.91715" lon="4.18475">
        <ele>1564.2</ele>
        <time>2020-10-25T08:54:06Z</time>
      </trkpt>
      <trkpt lat="44.91718" lon="4.18478">
        <ele>1563.72</ele>
        <time>2020-10-25T08:54:08Z</time>
      </trkpt>
      <trkpt lat="44.9172" lon="4.18481">
        <ele>1564.2</ele>
        <time>2020-10-25T08:54:10Z</time>
      </trkpt>
      <trkpt lat="44.91726" lon="4.18489">
        <ele>1561.8</ele>
        <time>2020-10-25T08:54:16Z</time>
      </trkpt>
      <trkpt lat="44.91741" lon="4.18521">
        <ele>1562.76</ele>
        <time>2020-10-25T08:54:31Z</time>
      </trkpt>
      <trkpt lat="44.91748" lon="4.18535">
        <ele>1560.36</ele>
        <time>2020-10-25T08:54:38Z</time>
      </trkpt>
      <trkpt lat="44.91749" lon="4.18541">
        <ele>1561.8</ele>
        <time>2020-10-25T08:54:41Z</time>
      </trkpt>
      <trkpt lat="44.91752" lon="4.18549">
        <ele>1557.47</ele>
        <time>2020-10-25T08:54:45Z</time>
      </trkpt>
      <trkpt lat="44.91759" lon="4.1857">
        <ele>1558.92</ele>
        <time>2020-10-25T08:54:55Z</time>
      </trkpt>
      <trkpt lat="44.91761" lon="4.18578">
        <ele>1558.43</ele>
        <time>2020-10-25T08:54:59Z</time>
      </trkpt>
      <trkpt lat="44.91764" lon="4.18588">
        <ele>1562.28</ele>
        <time>2020-10-25T08:55:04Z</time>
      </trkpt>
      <trkpt lat="44.91768" lon="4.18597">
        <ele>1560.36</ele>
        <time>2020-10-25T08:55:10Z</time>
      </trkpt>
      <trkpt lat="44.91768" lon="4.186">
        <ele>1559.4</ele>
        <time>2020-10-25T08:55:11Z</time>
      </trkpt>
      <trkpt lat="44.91771" lon="4.18613">
        <ele>1560.36</ele>
        <time>2020-10-25T08:55:17Z</time>
      </trkpt>
      <trkpt lat="44.91774" lon="4.18622">
        <ele>1558.43</ele>
        <time>2020-10-25T08:55:22Z</time>
      </trkpt>
      <trkpt lat="44.91775" lon="4.18624">
        <ele>1558.92</ele>
        <time>2020-10-25T08:55:23Z</time>
      </trkpt>
      <trkpt lat="44.91778" lon="4.1863">
        <ele>1559.4</ele>
        <time>2020-10-25T08:55:27Z</time>
      </trkpt>
      <trkpt lat="44.91782" lon="4.18638">
        <ele>1560.36</ele>
        <time>2020-10-25T08:55:33Z</time>
      </trkpt>
      <trkpt lat="44.91792" lon="4.18663">
        <ele>1558.92</ele>
        <time>2020-10-25T08:55:47Z</time>
      </trkpt>
      <trkpt lat="44.91804" lon="4.1868">
        <ele>1556.51</ele>
        <time>2020-10-25T08:55:59Z</time>
      </trkpt>
      <trkpt lat="44.91809" lon="4.18684">
        <ele>1558.43</ele>
        <time>2020-10-25T08:56:02Z</time>
      </trkpt>
      <trkpt lat="44.91816" lon="4.18696">
        <ele>1556.99</ele>
        <time>2020-10-25T08:56:09Z</time>
      </trkpt>
      <trkpt lat="44.91822" lon="4.18706">
        <ele>1556.51</ele>
        <time>2020-10-25T08:56:16Z</time>
      </trkpt>
      <trkpt lat="44.91827" lon="4.18711">
        <ele>1557.47</ele>
        <time>2020-10-25T08:56:20Z</time>
      </trkpt>
      <trkpt lat="44.91842" lon="4.18725">
        <ele>1559.88</ele>
        <time>2020-10-25T08:56:32Z</time>
      </trkpt>
      <trkpt lat="44.91849" lon="4.18735">
        <ele>1558.43</ele>
        <time>2020-10-25T08:56:38Z</time>
      </trkpt>
      <trkpt lat="44.91853" lon="4.18743">
        <ele>1557.47</ele>
        <time>2020-10-25T08:56:42Z</time>
      </trkpt>
      <trkpt lat="44.91855" lon="4.18746">
        <ele>1557.47</ele>
        <time>2020-10-25T08:56:44Z</time>
      </trkpt>
      <trkpt lat="44.91866" lon="4.18765">
        <ele>1558.43</ele>
        <time>2020-10-25T08:56:55Z</time>
      </trkpt>
      <trkpt lat="44.91871" lon="4.18777">
        <ele>1556.51</ele>
        <time>2020-10-25T08:57:01Z</time>
      </trkpt>
      <trkpt lat="44.91871" lon="4.18781">
        <ele>1557.95</ele>
        <time>2020-10-25T08:57:03Z</time>
      </trkpt>
      <trkpt lat="44.91872" lon="4.18787">
        <ele>1556.51</ele>
        <time>2020-10-25T08:57:06Z</time>
      </trkpt>
      <trkpt lat="44.91873" lon="4.18799">
        <ele>1556.51</ele>
        <time>2020-10-25T08:57:13Z</time>
      </trkpt>
      <trkpt lat="44.91873" lon="4.18809">
        <ele>1556.99</ele>
        <time>2020-10-25T08:57:21Z</time>
      </trkpt>
      <trkpt lat="44.91875" lon="4.18823">
        <ele>1556.99</ele>
        <time>2020-10-25T08:57:28Z</time>
      </trkpt>
      <trkpt lat="44.91881" lon="4.18841">
        <ele>1556.99</ele>
        <time>2020-10-25T08:57:37Z</time>
      </trkpt>
      <trkpt lat="44.91889" lon="4.18856">
        <ele>1553.63</ele>
        <time>2020-10-25T08:57:44Z</time>
      </trkpt>
      <trkpt lat="44.91889" lon="4.18858">
        <ele>1553.63</ele>
        <time>2020-10-25T08:57:45Z</time>
      </trkpt>
      <trkpt lat="44.91891" lon="4.18868">
        <ele>1555.07</ele>
        <time>2020-10-25T08:57:50Z</time>
      </trkpt>
      <trkpt lat="44.91901" lon="4.18899">
        <ele>1554.59</ele>
        <time>2020-10-25T08:58:04Z</time>
      </trkpt>
      <trkpt lat="44.91902" lon="4.189">
        <ele>1554.59</ele>
        <time>2020-10-25T08:58:05Z</time>
      </trkpt>
      <trkpt lat="44.91906" lon="4.18917">
        <ele>1555.07</ele>
        <time>2020-10-25T08:58:14Z</time>
      </trkpt>
      <trkpt lat="44.91908" lon="4.18926">
        <ele>1553.63</ele>
        <time>2020-10-25T08:58:18Z</time>
      </trkpt>
      <trkpt lat="44.91909" lon="4.18947">
        <ele>1551.71</ele>
        <time>2020-10-25T08:58:28Z</time>
      </trkpt>
      <trkpt lat="44.9191" lon="4.18955">
        <ele>1551.22</ele>
        <time>2020-10-25T08:58:32Z</time>
      </trkpt>
      <trkpt lat="44.91913" lon="4.18961">
        <ele>1554.59</ele>
        <time>2020-10-25T08:58:36Z</time>
      </trkpt>
      <trkpt lat="44.91915" lon="4.18964">
        <ele>1555.55</ele>
        <time>2020-10-25T08:58:38Z</time>
      </trkpt>
      <trkpt lat="44.91918" lon="4.18968">
        <ele>1555.07</ele>
        <time>2020-10-25T08:58:40Z</time>
      </trkpt>
      <trkpt lat="44.91925" lon="4.18974">
        <ele>1552.19</ele>
        <time>2020-10-25T08:58:46Z</time>
      </trkpt>
      <trkpt lat="44.91927" lon="4.18979">
        <ele>1550.74</ele>
        <time>2020-10-25T08:58:48Z</time>
      </trkpt>
      <trkpt lat="44.91929" lon="4.18981">
        <ele>1550.74</ele>
        <time>2020-10-25T08:58:49Z</time>
      </trkpt>
      <trkpt lat="44.91932" lon="4.18994">
        <ele>1553.63</ele>
        <time>2020-10-25T08:58:56Z</time>
      </trkpt>
      <trkpt lat="44.91932" lon="4.18998">
        <ele>1553.15</ele>
        <time>2020-10-25T08:58:59Z</time>
      </trkpt>
      <trkpt lat="44.91935" lon="4.19012">
        <ele>1552.67</ele>
        <time>2020-10-25T08:59:06Z</time>
      </trkpt>
      <trkpt lat="44.91936" lon="4.19025">
        <ele>1551.22</ele>
        <time>2020-10-25T08:59:14Z</time>
      </trkpt>
      <trkpt lat="44.91941" lon="4.1905">
        <ele>1551.71</ele>
        <time>2020-10-25T08:59:26Z</time>
      </trkpt>
      <trkpt lat="44.91945" lon="4.19061">
        <ele>1551.22</ele>
        <time>2020-10-25T08:59:32Z</time>
      </trkpt>
      <trkpt lat="44.91957" lon="4.19087">
        <ele>1551.71</ele>
        <time>2020-10-25T08:59:46Z</time>
      </trkpt>
      <trkpt lat="44.9196" lon="4.19091">
        <ele>1553.15</ele>
        <time>2020-10-25T08:59:48Z</time>
      </trkpt>
      <trkpt lat="44.91962" lon="4.19098">
        <ele>1551.71</ele>
        <time>2020-10-25T08:59:52Z</time>
      </trkpt>
      <trkpt lat="44.91965" lon="4.19109">
        <ele>1551.71</ele>
        <time>2020-10-25T08:59:57Z</time>
      </trkpt>
      <trkpt lat="44.91966" lon="4.19113">
        <ele>1551.22</ele>
        <time>2020-10-25T08:59:59Z</time>
      </trkpt>
      <trkpt lat="44.91965" lon="4.1913">
        <ele>1554.11</ele>
        <time>2020-10-25T09:00:06Z</time>
      </trkpt>
      <trkpt lat="44.91964" lon="4.19132">
        <ele>1553.63</ele>
        <time>2020-10-25T09:00:07Z</time>
      </trkpt>
      <trkpt lat="44.91966" lon="4.19149">
        <ele>1550.74</ele>
        <time>2020-10-25T09:00:14Z</time>
      </trkpt>
      <trkpt lat="44.91968" lon="4.19163">
        <ele>1550.74</ele>
        <time>2020-10-25T09:00:21Z</time>
      </trkpt>
      <trkpt lat="44.91976" lon="4.19182">
        <ele>1550.74</ele>
        <time>2020-10-25T09:00:30Z</time>
      </trkpt>
      <trkpt lat="44.91978" lon="4.19185">
        <ele>1550.26</ele>
        <time>2020-10-25T09:00:32Z</time>
      </trkpt>
      <trkpt lat="44.91981" lon="4.19197">
        <ele>1551.71</ele>
        <time>2020-10-25T09:00:38Z</time>
      </trkpt>
      <trkpt lat="44.91984" lon="4.19206">
        <ele>1553.63</ele>
        <time>2020-10-25T09:00:41Z</time>
      </trkpt>
      <trkpt lat="44.91985" lon="4.19209">
        <ele>1553.15</ele>
        <time>2020-10-25T09:00:42Z</time>
      </trkpt>
      <trkpt lat="44.91987" lon="4.19217">
        <ele>1552.19</ele>
        <time>2020-10-25T09:00:46Z</time>
      </trkpt>
      <trkpt lat="44.91988" lon="4.19222">
        <ele>1552.19</ele>
        <time>2020-10-25T09:00:48Z</time>
      </trkpt>
      <trkpt lat="44.91988" lon="4.19228">
        <ele>1552.67</ele>
        <time>2020-10-25T09:00:51Z</time>
      </trkpt>
      <trkpt lat="44.91989" lon="4.19239">
        <ele>1551.71</ele>
        <time>2020-10-25T09:00:57Z</time>
      </trkpt>
      <trkpt lat="44.9199" lon="4.19242">
        <ele>1550.74</ele>
        <time>2020-10-25T09:00:59Z</time>
      </trkpt>
      <trkpt lat="44.91992" lon="4.19258">
        <ele>1550.74</ele>
        <time>2020-10-25T09:01:08Z</time>
      </trkpt>
      <trkpt lat="44.91994" lon="4.19262">
        <ele>1550.26</ele>
        <time>2020-10-25T09:01:10Z</time>
      </trkpt>
      <trkpt lat="44.92004" lon="4.19276">
        <ele>1550.26</ele>
        <time>2020-10-25T09:01:20Z</time>
      </trkpt>
      <trkpt lat="44.92007" lon="4.19286">
        <ele>1550.74</ele>
        <time>2020-10-25T09:01:25Z</time>
      </trkpt>
      <trkpt lat="44.9201" lon="4.19288">
        <ele>1551.22</ele>
        <time>2020-10-25T09:01:27Z</time>
      </trkpt>
      <trkpt lat="44.92016" lon="4.19302">
        <ele>1550.74</ele>
        <time>2020-10-25T09:01:33Z</time>
      </trkpt>
      <trkpt lat="44.92022" lon="4.19319">
        <ele>1548.34</ele>
        <time>2020-10-25T09:01:41Z</time>
      </trkpt>
      <trkpt lat="44.92025" lon="4.19331">
        <ele>1549.78</ele>
        <time>2020-10-25T09:01:48Z</time>
      </trkpt>
      <trkpt lat="44.92027" lon="4.19342">
        <ele>1550.26</ele>
        <time>2020-10-25T09:01:55Z</time>
      </trkpt>
      <trkpt lat="44.92027" lon="4.19345">
        <ele>1549.3</ele>
        <time>2020-10-25T09:01:57Z</time>
      </trkpt>
      <trkpt lat="44.92028" lon="4.19355">
        <ele>1549.78</ele>
        <time>2020-10-25T09:02:04Z</time>
      </trkpt>
      <trkpt lat="44.92028" lon="4.19361">
        <ele>1549.78</ele>
        <time>2020-10-25T09:02:07Z</time>
      </trkpt>
      <trkpt lat="44.92029" lon="4.19367">
        <ele>1549.3</ele>
        <time>2020-10-25T09:02:11Z</time>
      </trkpt>
      <trkpt lat="44.92033" lon="4.19389">
        <ele>1549.3</ele>
        <time>2020-10-25T09:02:22Z</time>
      </trkpt>
      <trkpt lat="44.92036" lon="4.19397">
        <ele>1547.38</ele>
        <time>2020-10-25T09:02:26Z</time>
      </trkpt>
      <trkpt lat="44.92043" lon="4.19417">
        <ele>1548.34</ele>
        <time>2020-10-25T09:02:38Z</time>
      </trkpt>
      <trkpt lat="44.92044" lon="4.19426">
        <ele>1547.38</ele>
        <time>2020-10-25T09:02:43Z</time>
      </trkpt>
      <trkpt lat="44.92044" lon="4.19437">
        <ele>1547.38</ele>
        <time>2020-10-25T09:02:47Z</time>
      </trkpt>
      <trkpt lat="44.92042" lon="4.19462">
        <ele>1545.94</ele>
        <time>2020-10-25T09:02:59Z</time>
      </trkpt>
      <trkpt lat="44.92043" lon="4.19475">
        <ele>1545.94</ele>
        <time>2020-10-25T09:03:07Z</time>
      </trkpt>
      <trkpt lat="44.92042" lon="4.19489">
        <ele>1546.42</ele>
        <time>2020-10-25T09:03:14Z</time>
      </trkpt>
      <trkpt lat="44.92042" lon="4.19494">
        <ele>1545.46</ele>
        <time>2020-10-25T09:03:16Z</time>
      </trkpt>
      <trkpt lat="44.92042" lon="4.19499">
        <ele>1544.5</ele>
        <time>2020-10-25T09:03:19Z</time>
      </trkpt>
      <trkpt lat="44.92044" lon="4.19529">
        <ele>1544.5</ele>
        <time>2020-10-25T09:03:34Z</time>
      </trkpt>
      <trkpt lat="44.92043" lon="4.19538">
        <ele>1544.01</ele>
        <time>2020-10-25T09:03:38Z</time>
      </trkpt>
      <trkpt lat="44.92043" lon="4.1955">
        <ele>1544.01</ele>
        <time>2020-10-25T09:03:44Z</time>
      </trkpt>
      <trkpt lat="44.92041" lon="4.19554">
        <ele>1543.05</ele>
        <time>2020-10-25T09:03:49Z</time>
      </trkpt>
      <trkpt lat="44.92047" lon="4.1957">
        <ele>1542.57</ele>
        <time>2020-10-25T09:03:56Z</time>
      </trkpt>
      <trkpt lat="44.92046" lon="4.19576">
        <ele>1541.61</ele>
        <time>2020-10-25T09:03:58Z</time>
      </trkpt>
      <trkpt lat="44.92046" lon="4.1958">
        <ele>1541.61</ele>
        <time>2020-10-25T09:04:01Z</time>
      </trkpt>
      <trkpt lat="44.92045" lon="4.19591">
        <ele>1541.61</ele>
        <time>2020-10-25T09:04:05Z</time>
      </trkpt>
      <trkpt lat="44.92042" lon="4.19617">
        <ele>1541.13</ele>
        <time>2020-10-25T09:04:13Z</time>
      </trkpt>
      <trkpt lat="44.92042" lon="4.19622">
        <ele>1540.65</ele>
        <time>2020-10-25T09:04:15Z</time>
      </trkpt>
      <trkpt lat="44.92035" lon="4.19646">
        <ele>1539.21</ele>
        <time>2020-10-25T09:04:24Z</time>
      </trkpt>
      <trkpt lat="44.92032" lon="4.19656">
        <ele>1538.73</ele>
        <time>2020-10-25T09:04:29Z</time>
      </trkpt>
      <trkpt lat="44.92029" lon="4.19661">
        <ele>1538.73</ele>
        <time>2020-10-25T09:04:33Z</time>
      </trkpt>
      <trkpt lat="44.92027" lon="4.19685">
        <ele>1537.29</ele>
        <time>2020-10-25T09:04:42Z</time>
      </trkpt>
      <trkpt lat="44.92021" lon="4.19699">
        <ele>1537.29</ele>
        <time>2020-10-25T09:04:50Z</time>
      </trkpt>
      <trkpt lat="44.9202" lon="4.19711">
        <ele>1537.29</ele>
        <time>2020-10-25T09:04:55Z</time>
      </trkpt>
      <trkpt lat="44.9202" lon="4.19717">
        <ele>1536.32</ele>
        <time>2020-10-25T09:04:58Z</time>
      </trkpt>
      <trkpt lat="44.92017" lon="4.19727">
        <ele>1536.8</ele>
        <time>2020-10-25T09:05:02Z</time>
      </trkpt>
      <trkpt lat="44.92018" lon="4.19738">
        <ele>1535.84</ele>
        <time>2020-10-25T09:05:08Z</time>
      </trkpt>
      <trkpt lat="44.92015" lon="4.19751">
        <ele>1534.88</ele>
        <time>2020-10-25T09:05:15Z</time>
      </trkpt>
      <trkpt lat="44.92012" lon="4.19775">
        <ele>1534.4</ele>
        <time>2020-10-25T09:05:24Z</time>
      </trkpt>
      <trkpt lat="44.92019" lon="4.19796">
        <ele>1531.52</ele>
        <time>2020-10-25T09:05:40Z</time>
      </trkpt>
      <trkpt lat="44.92027" lon="4.19819">
        <ele>1530.08</ele>
        <time>2020-10-25T09:05:53Z</time>
      </trkpt>
      <trkpt lat="44.92028" lon="4.19829">
        <ele>1529.59</ele>
        <time>2020-10-25T09:05:57Z</time>
      </trkpt>
      <trkpt lat="44.92028" lon="4.1984">
        <ele>1529.59</ele>
        <time>2020-10-25T09:06:07Z</time>
      </trkpt>
      <trkpt lat="44.9203" lon="4.19865">
        <ele>1528.63</ele>
        <time>2020-10-25T09:06:16Z</time>
      </trkpt>
      <trkpt lat="44.9203" lon="4.19883">
        <ele>1528.15</ele>
        <time>2020-10-25T09:06:23Z</time>
      </trkpt>
      <trkpt lat="44.92037" lon="4.19908">
        <ele>1527.19</ele>
        <time>2020-10-25T09:06:36Z</time>
      </trkpt>
      <trkpt lat="44.9204" lon="4.19912">
        <ele>1526.71</ele>
        <time>2020-10-25T09:06:39Z</time>
      </trkpt>
      <trkpt lat="44.92048" lon="4.19917">
        <ele>1523.35</ele>
        <time>2020-10-25T09:06:53Z</time>
      </trkpt>
      <trkpt lat="44.92065" lon="4.19909">
        <ele>1520.94</ele>
        <time>2020-10-25T09:07:06Z</time>
      </trkpt>
      <trkpt lat="44.92072" lon="4.19909">
        <ele>1519.5</ele>
        <time>2020-10-25T09:07:11Z</time>
      </trkpt>
      <trkpt lat="44.92079" lon="4.19905">
        <ele>1518.54</ele>
        <time>2020-10-25T09:07:15Z</time>
      </trkpt>
      <trkpt lat="44.92086" lon="4.19903">
        <ele>1517.58</ele>
        <time>2020-10-25T09:07:18Z</time>
      </trkpt>
      <trkpt lat="44.92094" lon="4.19899">
        <ele>1516.14</ele>
        <time>2020-10-25T09:07:24Z</time>
      </trkpt>
      <trkpt lat="44.92101" lon="4.19889">
        <ele>1515.18</ele>
        <time>2020-10-25T09:07:32Z</time>
      </trkpt>
      <trkpt lat="44.92103" lon="4.19887">
        <ele>1514.21</ele>
        <time>2020-10-25T09:07:34Z</time>
      </trkpt>
      <trkpt lat="44.9211" lon="4.19884">
        <ele>1513.73</ele>
        <time>2020-10-25T09:07:39Z</time>
      </trkpt>
      <trkpt lat="44.92121" lon="4.19888">
        <ele>1516.62</ele>
        <time>2020-10-25T09:07:46Z</time>
      </trkpt>
      <trkpt lat="44.92122" lon="4.19886">
        <ele>1513.25</ele>
        <time>2020-10-25T09:07:56Z</time>
      </trkpt>
      <trkpt lat="44.92121" lon="4.19878">
        <ele>1511.81</ele>
        <time>2020-10-25T09:08:10Z</time>
      </trkpt>
      <trkpt lat="44.92129" lon="4.19874">
        <ele>1511.33</ele>
        <time>2020-10-25T09:08:16Z</time>
      </trkpt>
      <trkpt lat="44.92136" lon="4.19868">
        <ele>1508.93</ele>
        <time>2020-10-25T09:08:25Z</time>
      </trkpt>
      <trkpt lat="44.92138" lon="4.19854">
        <ele>1507.97</ele>
        <time>2020-10-25T09:08:33Z</time>
      </trkpt>
      <trkpt lat="44.9214" lon="4.19848">
        <ele>1507.48</ele>
        <time>2020-10-25T09:08:36Z</time>
      </trkpt>
      <trkpt lat="44.9215" lon="4.1984">
        <ele>1505.08</ele>
        <time>2020-10-25T09:08:46Z</time>
      </trkpt>
      <trkpt lat="44.92154" lon="4.19841">
        <ele>1506.04</ele>
        <time>2020-10-25T09:09:10Z</time>
      </trkpt>
      <trkpt lat="44.92155" lon="4.19841">
        <ele>1504.6</ele>
        <time>2020-10-25T09:09:18Z</time>
      </trkpt>
      <trkpt lat="44.92156" lon="4.1984">
        <ele>1505.08</ele>
        <time>2020-10-25T09:09:21Z</time>
      </trkpt>
      <trkpt lat="44.92172" lon="4.19845">
        <ele>1502.2</ele>
        <time>2020-10-25T09:09:37Z</time>
      </trkpt>
      <trkpt lat="44.92173" lon="4.19844">
        <ele>1502.68</ele>
        <time>2020-10-25T09:09:38Z</time>
      </trkpt>
      <trkpt lat="44.92187" lon="4.1984">
        <ele>1500.76</ele>
        <time>2020-10-25T09:09:50Z</time>
      </trkpt>
      <trkpt lat="44.92194" lon="4.19832">
        <ele>1499.31</ele>
        <time>2020-10-25T09:09:59Z</time>
      </trkpt>
      <trkpt lat="44.92198" lon="4.19826">
        <ele>1498.83</ele>
        <time>2020-10-25T09:10:03Z</time>
      </trkpt>
      <trkpt lat="44.92202" lon="4.19825">
        <ele>1498.83</ele>
        <time>2020-10-25T09:10:08Z</time>
      </trkpt>
      <trkpt lat="44.9221" lon="4.19827">
        <ele>1498.83</ele>
        <time>2020-10-25T09:10:12Z</time>
      </trkpt>
      <trkpt lat="44.92219" lon="4.19828">
        <ele>1498.35</ele>
        <time>2020-10-25T09:10:16Z</time>
      </trkpt>
      <trkpt lat="44.92227" lon="4.19825">
        <ele>1497.87</ele>
        <time>2020-10-25T09:10:23Z</time>
      </trkpt>
      <trkpt lat="44.92231" lon="4.19823">
        <ele>1497.87</ele>
        <time>2020-10-25T09:10:25Z</time>
      </trkpt>
      <trkpt lat="44.92238" lon="4.19821">
        <ele>1497.87</ele>
        <time>2020-10-25T09:10:28Z</time>
      </trkpt>
      <trkpt lat="44.92245" lon="4.1982">
        <ele>1497.87</ele>
        <time>2020-10-25T09:10:31Z</time>
      </trkpt>
      <trkpt lat="44.92261" lon="4.1982">
        <ele>1496.91</ele>
        <time>2020-10-25T09:10:41Z</time>
      </trkpt>
      <trkpt lat="44.92268" lon="4.19814">
        <ele>1496.43</ele>
        <time>2020-10-25T09:10:47Z</time>
      </trkpt>
      <trkpt lat="44.92282" lon="4.19803">
        <ele>1496.43</ele>
        <time>2020-10-25T09:10:59Z</time>
      </trkpt>
      <trkpt lat="44.92284" lon="4.19796">
        <ele>1496.43</ele>
        <time>2020-10-25T09:11:04Z</time>
      </trkpt>
      <trkpt lat="44.92288" lon="4.19784">
        <ele>1495.95</ele>
        <time>2020-10-25T09:11:10Z</time>
      </trkpt>
      <trkpt lat="44.92293" lon="4.19776">
        <ele>1495.47</ele>
        <time>2020-10-25T09:11:15Z</time>
      </trkpt>
      <trkpt lat="44.92298" lon="4.19771">
        <ele>1494.99</ele>
        <time>2020-10-25T09:11:19Z</time>
      </trkpt>
      <trkpt lat="44.92315" lon="4.19768">
        <ele>1494.99</ele>
        <time>2020-10-25T09:11:36Z</time>
      </trkpt>
      <trkpt lat="44.9232" lon="4.19764">
        <ele>1495.47</ele>
        <time>2020-10-25T09:11:41Z</time>
      </trkpt>
      <trkpt lat="44.92321" lon="4.19762">
        <ele>1494.51</ele>
        <time>2020-10-25T09:11:43Z</time>
      </trkpt>
      <trkpt lat="44.92326" lon="4.19754">
        <ele>1498.83</ele>
        <time>2020-10-25T09:11:58Z</time>
      </trkpt>
      <trkpt lat="44.92331" lon="4.19753">
        <ele>1495.95</ele>
        <time>2020-10-25T09:12:11Z</time>
      </trkpt>
      <trkpt lat="44.92333" lon="4.19755">
        <ele>1495.95</ele>
        <time>2020-10-25T09:12:14Z</time>
      </trkpt>
      <trkpt lat="44.92348" lon="4.19765">
        <ele>1495.95</ele>
        <time>2020-10-25T09:12:25Z</time>
      </trkpt>
      <trkpt lat="44.9235" lon="4.19766">
        <ele>1496.43</ele>
        <time>2020-10-25T09:12:26Z</time>
      </trkpt>
      <trkpt lat="44.92354" lon="4.19775">
        <ele>1496.43</ele>
        <time>2020-10-25T09:12:31Z</time>
      </trkpt>
      <trkpt lat="44.9236" lon="4.19785">
        <ele>1495.47</ele>
        <time>2020-10-25T09:12:38Z</time>
      </trkpt>
      <trkpt lat="44.92364" lon="4.19796">
        <ele>1495.47</ele>
        <time>2020-10-25T09:12:43Z</time>
      </trkpt>
      <trkpt lat="44.92369" lon="4.19808">
        <ele>1494.51</ele>
        <time>2020-10-25T09:12:50Z</time>
      </trkpt>
      <trkpt lat="44.92373" lon="4.19815">
        <ele>1494.51</ele>
        <time>2020-10-25T09:12:56Z</time>
      </trkpt>
      <trkpt lat="44.92384" lon="4.19842">
        <ele>1493.55</ele>
        <time>2020-10-25T09:13:09Z</time>
      </trkpt>
      <trkpt lat="44.92391" lon="4.19861">
        <ele>1494.03</ele>
        <time>2020-10-25T09:13:19Z</time>
      </trkpt>
      <trkpt lat="44.92392" lon="4.19864">
        <ele>1488.26</ele>
        <time>2020-10-25T09:13:21Z</time>
      </trkpt>
      <trkpt lat="44.92393" lon="4.19865">
        <ele>1494.51</ele>
        <time>2020-10-25T09:13:22Z</time>
      </trkpt>
      <trkpt lat="44.92395" lon="4.19873">
        <ele>1492.1</ele>
        <time>2020-10-25T09:13:27Z</time>
      </trkpt>
      <trkpt lat="44.92399" lon="4.1988">
        <ele>1493.55</ele>
        <time>2020-10-25T09:13:31Z</time>
      </trkpt>
      <trkpt lat="44.92402" lon="4.19886">
        <ele>1493.55</ele>
        <time>2020-10-25T09:13:37Z</time>
      </trkpt>
      <trkpt lat="44.92403" lon="4.19902">
        <ele>1491.62</ele>
        <time>2020-10-25T09:13:44Z</time>
      </trkpt>
      <trkpt lat="44.92403" lon="4.19912">
        <ele>1491.62</ele>
        <time>2020-10-25T09:13:49Z</time>
      </trkpt>
      <trkpt lat="44.92407" lon="4.19938">
        <ele>1489.22</ele>
        <time>2020-10-25T09:14:02Z</time>
      </trkpt>
      <trkpt lat="44.92409" lon="4.19954">
        <ele>1488.74</ele>
        <time>2020-10-25T09:14:13Z</time>
      </trkpt>
      <trkpt lat="44.92406" lon="4.19969">
        <ele>1489.22</ele>
        <time>2020-10-25T09:14:21Z</time>
      </trkpt>
      <trkpt lat="44.92407" lon="4.19977">
        <ele>1488.74</ele>
        <time>2020-10-25T09:14:25Z</time>
      </trkpt>
      <trkpt lat="44.92408" lon="4.19989">
        <ele>1489.22</ele>
        <time>2020-10-25T09:14:33Z</time>
      </trkpt>
      <trkpt lat="44.92409" lon="4.19992">
        <ele>1488.74</ele>
        <time>2020-10-25T09:14:35Z</time>
      </trkpt>
      <trkpt lat="44.9241" lon="4.19997">
        <ele>1489.7</ele>
        <time>2020-10-25T09:14:38Z</time>
      </trkpt>
      <trkpt lat="44.92412" lon="4.20003">
        <ele>1490.18</ele>
        <time>2020-10-25T09:14:41Z</time>
      </trkpt>
      <trkpt lat="44.92415" lon="4.20015">
        <ele>1490.66</ele>
        <time>2020-10-25T09:14:48Z</time>
      </trkpt>
      <trkpt lat="44.92415" lon="4.20019">
        <ele>1490.66</ele>
        <time>2020-10-25T09:14:50Z</time>
      </trkpt>
      <trkpt lat="44.9242" lon="4.20029">
        <ele>1491.62</ele>
        <time>2020-10-25T09:14:55Z</time>
      </trkpt>
      <trkpt lat="44.9242" lon="4.20032">
        <ele>1491.62</ele>
        <time>2020-10-25T09:14:57Z</time>
      </trkpt>
      <trkpt lat="44.92426" lon="4.20052">
        <ele>1493.06</ele>
        <time>2020-10-25T09:15:08Z</time>
      </trkpt>
      <trkpt lat="44.92428" lon="4.20058">
        <ele>1494.03</ele>
        <time>2020-10-25T09:15:12Z</time>
      </trkpt>
      <trkpt lat="44.92428" lon="4.2007">
        <ele>1495.47</ele>
        <time>2020-10-25T09:15:21Z</time>
      </trkpt>
      <trkpt lat="44.92429" lon="4.20078">
        <ele>1497.39</ele>
        <time>2020-10-25T09:15:28Z</time>
      </trkpt>
      <trkpt lat="44.9243" lon="4.20087">
        <ele>1497.39</ele>
        <time>2020-10-25T09:15:35Z</time>
      </trkpt>
      <trkpt lat="44.92434" lon="4.20096">
        <ele>1497.87</ele>
        <time>2020-10-25T09:15:40Z</time>
      </trkpt>
      <trkpt lat="44.92433" lon="4.20103">
        <ele>1497.87</ele>
        <time>2020-10-25T09:15:44Z</time>
      </trkpt>
      <trkpt lat="44.92437" lon="4.20123">
        <ele>1495.95</ele>
        <time>2020-10-25T09:15:57Z</time>
      </trkpt>
      <trkpt lat="44.92437" lon="4.20126">
        <ele>1495.47</ele>
        <time>2020-10-25T09:16:00Z</time>
      </trkpt>
      <trkpt lat="44.9244" lon="4.20146">
        <ele>1495.47</ele>
        <time>2020-10-25T09:16:13Z</time>
      </trkpt>
      <trkpt lat="44.92442" lon="4.20155">
        <ele>1495.47</ele>
        <time>2020-10-25T09:16:21Z</time>
      </trkpt>
      <trkpt lat="44.92444" lon="4.20167">
        <ele>1495.47</ele>
        <time>2020-10-25T09:16:28Z</time>
      </trkpt>
      <trkpt lat="44.92447" lon="4.20173">
        <ele>1494.99</ele>
        <time>2020-10-25T09:16:31Z</time>
      </trkpt>
      <trkpt lat="44.92449" lon="4.20185">
        <ele>1495.47</ele>
        <time>2020-10-25T09:16:36Z</time>
      </trkpt>
      <trkpt lat="44.9245" lon="4.2019">
        <ele>1495.95</ele>
        <time>2020-10-25T09:16:38Z</time>
      </trkpt>
      <trkpt lat="44.92451" lon="4.20197">
        <ele>1495.47</ele>
        <time>2020-10-25T09:16:41Z</time>
      </trkpt>
      <trkpt lat="44.92454" lon="4.20218">
        <ele>1495.95</ele>
        <time>2020-10-25T09:16:53Z</time>
      </trkpt>
      <trkpt lat="44.92457" lon="4.20232">
        <ele>1497.39</ele>
        <time>2020-10-25T09:17:07Z</time>
      </trkpt>
      <trkpt lat="44.92457" lon="4.20236">
        <ele>1497.39</ele>
        <time>2020-10-25T09:17:11Z</time>
      </trkpt>
      <trkpt lat="44.92457" lon="4.20242">
        <ele>1497.39</ele>
        <time>2020-10-25T09:17:13Z</time>
      </trkpt>
      <trkpt lat="44.92461" lon="4.20259">
        <ele>1498.83</ele>
        <time>2020-10-25T09:17:26Z</time>
      </trkpt>
      <trkpt lat="44.92461" lon="4.20261">
        <ele>1498.83</ele>
        <time>2020-10-25T09:17:28Z</time>
      </trkpt>
      <trkpt lat="44.92462" lon="4.20266">
        <ele>1498.83</ele>
        <time>2020-10-25T09:17:31Z</time>
      </trkpt>
      <trkpt lat="44.92462" lon="4.20273">
        <ele>1498.83</ele>
        <time>2020-10-25T09:17:34Z</time>
      </trkpt>
      <trkpt lat="44.92464" lon="4.20288">
        <ele>1498.83</ele>
        <time>2020-10-25T09:17:46Z</time>
      </trkpt>
      <trkpt lat="44.92464" lon="4.20291">
        <ele>1499.79</ele>
        <time>2020-10-25T09:17:53Z</time>
      </trkpt>
      <trkpt lat="44.92464" lon="4.20293">
        <ele>1501.24</ele>
        <time>2020-10-25T09:17:57Z</time>
      </trkpt>
      <trkpt lat="44.92467" lon="4.203">
        <ele>1501.24</ele>
        <time>2020-10-25T09:18:03Z</time>
      </trkpt>
      <trkpt lat="44.9247" lon="4.20311">
        <ele>1502.2</ele>
        <time>2020-10-25T09:18:09Z</time>
      </trkpt>
      <trkpt lat="44.92471" lon="4.20315">
        <ele>1502.68</ele>
        <time>2020-10-25T09:18:13Z</time>
      </trkpt>
      <trkpt lat="44.92474" lon="4.20319">
        <ele>1504.12</ele>
        <time>2020-10-25T09:18:18Z</time>
      </trkpt>
      <trkpt lat="44.92475" lon="4.20327">
        <ele>1506.04</ele>
        <time>2020-10-25T09:18:27Z</time>
      </trkpt>
      <trkpt lat="44.92479" lon="4.20339">
        <ele>1508.45</ele>
        <time>2020-10-25T09:18:39Z</time>
      </trkpt>
      <trkpt lat="44.92477" lon="4.20339">
        <ele>1505.08</ele>
        <time>2020-10-25T09:18:58Z</time>
      </trkpt>
      <trkpt lat="44.92469" lon="4.20344">
        <ele>1504.12</ele>
        <time>2020-10-25T09:19:09Z</time>
      </trkpt>
      <trkpt lat="44.92463" lon="4.20349">
        <ele>1504.6</ele>
        <time>2020-10-25T09:19:21Z</time>
      </trkpt>
      <trkpt lat="44.92466" lon="4.20347">
        <ele>1504.12</ele>
        <time>2020-10-25T09:19:33Z</time>
      </trkpt>
      <trkpt lat="44.92472" lon="4.20344">
        <ele>1507</ele>
        <time>2020-10-25T09:19:41Z</time>
      </trkpt>
      <trkpt lat="44.92474" lon="4.20344">
        <ele>1507.97</ele>
        <time>2020-10-25T09:19:43Z</time>
      </trkpt>
      <trkpt lat="44.92481" lon="4.20346">
        <ele>1507</ele>
        <time>2020-10-25T09:19:48Z</time>
      </trkpt>
      <trkpt lat="44.92484" lon="4.20346">
        <ele>1506.52</ele>
        <time>2020-10-25T09:19:51Z</time>
      </trkpt>
      <trkpt lat="44.92488" lon="4.20342">
        <ele>1505.56</ele>
        <time>2020-10-25T09:19:56Z</time>
      </trkpt>
      <trkpt lat="44.92492" lon="4.20337">
        <ele>1506.52</ele>
        <time>2020-10-25T09:20:01Z</time>
      </trkpt>
      <trkpt lat="44.92494" lon="4.20335">
        <ele>1507</ele>
        <time>2020-10-25T09:20:03Z</time>
      </trkpt>
      <trkpt lat="44.925" lon="4.20334">
        <ele>1507.48</ele>
        <time>2020-10-25T09:20:14Z</time>
      </trkpt>
      <trkpt lat="44.92504" lon="4.20333">
        <ele>1506.52</ele>
        <time>2020-10-25T09:20:19Z</time>
      </trkpt>
      <trkpt lat="44.92509" lon="4.20335">
        <ele>1505.56</ele>
        <time>2020-10-25T09:20:24Z</time>
      </trkpt>
      <trkpt lat="44.92517" lon="4.2033">
        <ele>1506.04</ele>
        <time>2020-10-25T09:20:36Z</time>
      </trkpt>
      <trkpt lat="44.92522" lon="4.20324">
        <ele>1504.6</ele>
        <time>2020-10-25T09:20:48Z</time>
      </trkpt>
      <trkpt lat="44.92523" lon="4.20323">
        <ele>1504.6</ele>
        <time>2020-10-25T09:20:50Z</time>
      </trkpt>
      <trkpt lat="44.92531" lon="4.2032">
        <ele>1504.12</ele>
        <time>2020-10-25T09:20:56Z</time>
      </trkpt>
      <trkpt lat="44.92539" lon="4.20315">
        <ele>1503.64</ele>
        <time>2020-10-25T09:21:04Z</time>
      </trkpt>
      <trkpt lat="44.92547" lon="4.20313">
        <ele>1503.16</ele>
        <time>2020-10-25T09:21:11Z</time>
      </trkpt>
      <trkpt lat="44.92554" lon="4.20312">
        <ele>1502.68</ele>
        <time>2020-10-25T09:21:17Z</time>
      </trkpt>
      <trkpt lat="44.92555" lon="4.20309">
        <ele>1500.76</ele>
        <time>2020-10-25T09:21:21Z</time>
      </trkpt>
      <trkpt lat="44.92558" lon="4.20305">
        <ele>1499.79</ele>
        <time>2020-10-25T09:21:36Z</time>
      </trkpt>
      <trkpt lat="44.92563" lon="4.20304">
        <ele>1497.39</ele>
        <time>2020-10-25T09:21:43Z</time>
      </trkpt>
      <trkpt lat="44.92568" lon="4.20299">
        <ele>1494.99</ele>
        <time>2020-10-25T09:21:58Z</time>
      </trkpt>
      <trkpt lat="44.9257" lon="4.20296">
        <ele>1492.1</ele>
        <time>2020-10-25T09:22:04Z</time>
      </trkpt>
      <trkpt lat="44.9258" lon="4.20297">
        <ele>1489.7</ele>
        <time>2020-10-25T09:22:13Z</time>
      </trkpt>
      <trkpt lat="44.92586" lon="4.20297">
        <ele>1487.3</ele>
        <time>2020-10-25T09:22:18Z</time>
      </trkpt>
      <trkpt lat="44.92589" lon="4.20294">
        <ele>1488.74</ele>
        <time>2020-10-25T09:22:24Z</time>
      </trkpt>
      <trkpt lat="44.92593" lon="4.20292">
        <ele>1486.82</ele>
        <time>2020-10-25T09:22:27Z</time>
      </trkpt>
      <trkpt lat="44.92595" lon="4.20291">
        <ele>1485.85</ele>
        <time>2020-10-25T09:22:29Z</time>
      </trkpt>
      <trkpt lat="44.92596" lon="4.20291">
        <ele>1484.89</ele>
        <time>2020-10-25T09:22:30Z</time>
      </trkpt>
      <trkpt lat="44.92606" lon="4.20286">
        <ele>1482.49</ele>
        <time>2020-10-25T09:22:44Z</time>
      </trkpt>
      <trkpt lat="44.92605" lon="4.20285">
        <ele>1480.57</ele>
        <time>2020-10-25T09:23:07Z</time>
      </trkpt>
      <trkpt lat="44.92608" lon="4.20288">
        <ele>1480.09</ele>
        <time>2020-10-25T09:23:11Z</time>
      </trkpt>
      <trkpt lat="44.92614" lon="4.20297">
        <ele>1478.16</ele>
        <time>2020-10-25T09:23:23Z</time>
      </trkpt>
      <trkpt lat="44.92608" lon="4.20309">
        <ele>1478.16</ele>
        <time>2020-10-25T09:23:32Z</time>
      </trkpt>
      <trkpt lat="44.92609" lon="4.20326">
        <ele>1476.24</ele>
        <time>2020-10-25T09:23:46Z</time>
      </trkpt>
      <trkpt lat="44.92607" lon="4.20333">
        <ele>1475.28</ele>
        <time>2020-10-25T09:24:00Z</time>
      </trkpt>
      <trkpt lat="44.92606" lon="4.20336">
        <ele>1474.32</ele>
        <time>2020-10-25T09:24:06Z</time>
      </trkpt>
      <trkpt lat="44.92602" lon="4.20342">
        <ele>1474.8</ele>
        <time>2020-10-25T09:24:13Z</time>
      </trkpt>
      <trkpt lat="44.926" lon="4.20355">
        <ele>1471.44</ele>
        <time>2020-10-25T09:24:28Z</time>
      </trkpt>
      <trkpt lat="44.92601" lon="4.20356">
        <ele>1471.92</ele>
        <time>2020-10-25T09:24:29Z</time>
      </trkpt>
      <trkpt lat="44.926" lon="4.20383">
        <ele>1471.92</ele>
        <time>2020-10-25T09:24:44Z</time>
      </trkpt>
      <trkpt lat="44.92599" lon="4.20388">
        <ele>1471.92</ele>
        <time>2020-10-25T09:24:47Z</time>
      </trkpt>
      <trkpt lat="44.92599" lon="4.20408">
        <ele>1469.03</ele>
        <time>2020-10-25T09:24:59Z</time>
      </trkpt>
      <trkpt lat="44.92599" lon="4.20425">
        <ele>1466.63</ele>
        <time>2020-10-25T09:25:17Z</time>
      </trkpt>
      <trkpt lat="44.92602" lon="4.20436">
        <ele>1463.26</ele>
        <time>2020-10-25T09:25:34Z</time>
      </trkpt>
      <trkpt lat="44.92601" lon="4.2045">
        <ele>1463.26</ele>
        <time>2020-10-25T09:25:50Z</time>
      </trkpt>
      <trkpt lat="44.926" lon="4.20452">
        <ele>1462.78</ele>
        <time>2020-10-25T09:25:53Z</time>
      </trkpt>
      <trkpt lat="44.92598" lon="4.20455">
        <ele>1462.3</ele>
        <time>2020-10-25T09:25:55Z</time>
      </trkpt>
      <trkpt lat="44.92596" lon="4.20459">
        <ele>1463.74</ele>
        <time>2020-10-25T09:25:58Z</time>
      </trkpt>
      <trkpt lat="44.92593" lon="4.20464">
        <ele>1463.74</ele>
        <time>2020-10-25T09:26:01Z</time>
      </trkpt>
      <trkpt lat="44.92589" lon="4.20469">
        <ele>1464.23</ele>
        <time>2020-10-25T09:26:05Z</time>
      </trkpt>
      <trkpt lat="44.92576" lon="4.20479">
        <ele>1464.71</ele>
        <time>2020-10-25T09:26:21Z</time>
      </trkpt>
      <trkpt lat="44.92567" lon="4.20488">
        <ele>1465.67</ele>
        <time>2020-10-25T09:26:35Z</time>
      </trkpt>
      <trkpt lat="44.92562" lon="4.205">
        <ele>1463.26</ele>
        <time>2020-10-25T09:26:49Z</time>
      </trkpt>
      <trkpt lat="44.92553" lon="4.20505">
        <ele>1463.74</ele>
        <time>2020-10-25T09:27:05Z</time>
      </trkpt>
      <trkpt lat="44.92543" lon="4.20521">
        <ele>1462.3</ele>
        <time>2020-10-25T09:27:20Z</time>
      </trkpt>
      <trkpt lat="44.92526" lon="4.20539">
        <ele>1462.78</ele>
        <time>2020-10-25T09:27:35Z</time>
      </trkpt>
      <trkpt lat="44.92514" lon="4.20556">
        <ele>1459.9</ele>
        <time>2020-10-25T09:27:50Z</time>
      </trkpt>
      <trkpt lat="44.92508" lon="4.20565">
        <ele>1457.98</ele>
        <time>2020-10-25T09:28:04Z</time>
      </trkpt>
      <trkpt lat="44.92505" lon="4.20571">
        <ele>1456.53</ele>
        <time>2020-10-25T09:28:15Z</time>
      </trkpt>
      <trkpt lat="44.92505" lon="4.20573">
        <ele>1457.02</ele>
        <time>2020-10-25T09:28:17Z</time>
      </trkpt>
      <trkpt lat="44.92508" lon="4.20581">
        <ele>1455.57</ele>
        <time>2020-10-25T09:28:32Z</time>
      </trkpt>
      <trkpt lat="44.92512" lon="4.20585">
        <ele>1455.57</ele>
        <time>2020-10-25T09:28:40Z</time>
      </trkpt>
      <trkpt lat="44.92522" lon="4.20591">
        <ele>1455.57</ele>
        <time>2020-10-25T09:28:50Z</time>
      </trkpt>
      <trkpt lat="44.92531" lon="4.20592">
        <ele>1455.09</ele>
        <time>2020-10-25T09:29:00Z</time>
      </trkpt>
      <trkpt lat="44.92533" lon="4.20595">
        <ele>1454.61</ele>
        <time>2020-10-25T09:29:07Z</time>
      </trkpt>
      <trkpt lat="44.92541" lon="4.20598">
        <ele>1452.21</ele>
        <time>2020-10-25T09:29:20Z</time>
      </trkpt>
      <trkpt lat="44.9255" lon="4.20597">
        <ele>1451.25</ele>
        <time>2020-10-25T09:29:32Z</time>
      </trkpt>
      <trkpt lat="44.92559" lon="4.20598">
        <ele>1449.81</ele>
        <time>2020-10-25T09:29:46Z</time>
      </trkpt>
      <trkpt lat="44.92564" lon="4.20598">
        <ele>1448.84</ele>
        <time>2020-10-25T09:29:48Z</time>
      </trkpt>
      <trkpt lat="44.92576" lon="4.20588">
        <ele>1448.36</ele>
        <time>2020-10-25T09:29:59Z</time>
      </trkpt>
      <trkpt lat="44.92589" lon="4.20575">
        <ele>1449.81</ele>
        <time>2020-10-25T09:30:13Z</time>
      </trkpt>
      <trkpt lat="44.92593" lon="4.20569">
        <ele>1448.84</ele>
        <time>2020-10-25T09:30:21Z</time>
      </trkpt>
      <trkpt lat="44.92594" lon="4.20566">
        <ele>1449.32</ele>
        <time>2020-10-25T09:30:23Z</time>
      </trkpt>
      <trkpt lat="44.92598" lon="4.20562">
        <ele>1448.84</ele>
        <time>2020-10-25T09:30:26Z</time>
      </trkpt>
      <trkpt lat="44.92605" lon="4.2056">
        <ele>1448.84</ele>
        <time>2020-10-25T09:30:29Z</time>
      </trkpt>
      <trkpt lat="44.92611" lon="4.20554">
        <ele>1448.36</ele>
        <time>2020-10-25T09:30:34Z</time>
      </trkpt>
      <trkpt lat="44.92615" lon="4.2054">
        <ele>1448.84</ele>
        <time>2020-10-25T09:30:44Z</time>
      </trkpt>
      <trkpt lat="44.9262" lon="4.20536">
        <ele>1447.88</ele>
        <time>2020-10-25T09:30:50Z</time>
      </trkpt>
      <trkpt lat="44.9264" lon="4.20547">
        <ele>1445</ele>
        <time>2020-10-25T09:31:05Z</time>
      </trkpt>
      <trkpt lat="44.92642" lon="4.20549">
        <ele>1444.04</ele>
        <time>2020-10-25T09:31:08Z</time>
      </trkpt>
      <trkpt lat="44.92641" lon="4.20558">
        <ele>1443.56</ele>
        <time>2020-10-25T09:31:13Z</time>
      </trkpt>
      <trkpt lat="44.92638" lon="4.20573">
        <ele>1441.63</ele>
        <time>2020-10-25T09:31:27Z</time>
      </trkpt>
      <trkpt lat="44.9264" lon="4.20579">
        <ele>1439.71</ele>
        <time>2020-10-25T09:31:40Z</time>
      </trkpt>
      <trkpt lat="44.92652" lon="4.20584">
        <ele>1438.27</ele>
        <time>2020-10-25T09:31:52Z</time>
      </trkpt>
      <trkpt lat="44.92658" lon="4.20584">
        <ele>1437.79</ele>
        <time>2020-10-25T09:31:56Z</time>
      </trkpt>
      <trkpt lat="44.92662" lon="4.20581">
        <ele>1437.79</ele>
        <time>2020-10-25T09:32:00Z</time>
      </trkpt>
      <trkpt lat="44.92676" lon="4.20579">
        <ele>1436.83</ele>
        <time>2020-10-25T09:32:09Z</time>
      </trkpt>
      <trkpt lat="44.92682" lon="4.20581">
        <ele>1435.39</ele>
        <time>2020-10-25T09:32:14Z</time>
      </trkpt>
      <trkpt lat="44.92684" lon="4.20584">
        <ele>1434.91</ele>
        <time>2020-10-25T09:32:16Z</time>
      </trkpt>
      <trkpt lat="44.92688" lon="4.20585">
        <ele>1434.91</ele>
        <time>2020-10-25T09:32:18Z</time>
      </trkpt>
      <trkpt lat="44.92695" lon="4.20587">
        <ele>1436.83</ele>
        <time>2020-10-25T09:32:26Z</time>
      </trkpt>
      <trkpt lat="44.92697" lon="4.20586">
        <ele>1437.31</ele>
        <time>2020-10-25T09:32:49Z</time>
      </trkpt>
      <trkpt lat="44.92696" lon="4.20585">
        <ele>1437.79</ele>
        <time>2020-10-25T09:33:09Z</time>
      </trkpt>
      <trkpt lat="44.92695" lon="4.20584">
        <ele>1437.31</ele>
        <time>2020-10-25T09:33:45Z</time>
      </trkpt>
      <trkpt lat="44.92694" lon="4.20584">
        <ele>1435.39</ele>
        <time>2020-10-25T09:33:58Z</time>
      </trkpt>
      <trkpt lat="44.92693" lon="4.20586">
        <ele>1434.91</ele>
        <time>2020-10-25T09:34:01Z</time>
      </trkpt>
      <trkpt lat="44.92691" lon="4.20589">
        <ele>1434.91</ele>
        <time>2020-10-25T09:34:04Z</time>
      </trkpt>
      <trkpt lat="44.92685" lon="4.20602">
        <ele>1434.42</ele>
        <time>2020-10-25T09:34:16Z</time>
      </trkpt>
      <trkpt lat="44.92676" lon="4.20618">
        <ele>1432.02</ele>
        <time>2020-10-25T09:34:32Z</time>
      </trkpt>
      <trkpt lat="44.92676" lon="4.20631">
        <ele>1430.1</ele>
        <time>2020-10-25T09:34:42Z</time>
      </trkpt>
      <trkpt lat="44.92677" lon="4.20644">
        <ele>1429.62</ele>
        <time>2020-10-25T09:34:48Z</time>
      </trkpt>
      <trkpt lat="44.92683" lon="4.20668">
        <ele>1427.7</ele>
        <time>2020-10-25T09:35:00Z</time>
      </trkpt>
      <trkpt lat="44.92686" lon="4.20677">
        <ele>1426.73</ele>
        <time>2020-10-25T09:35:11Z</time>
      </trkpt>
      <trkpt lat="44.927" lon="4.20683">
        <ele>1426.25</ele>
        <time>2020-10-25T09:35:17Z</time>
      </trkpt>
      <trkpt lat="44.92706" lon="4.20684">
        <ele>1426.73</ele>
        <time>2020-10-25T09:35:22Z</time>
      </trkpt>
      <trkpt lat="44.92709" lon="4.20684">
        <ele>1426.73</ele>
        <time>2020-10-25T09:35:24Z</time>
      </trkpt>
      <trkpt lat="44.92718" lon="4.20683">
        <ele>1426.25</ele>
        <time>2020-10-25T09:35:34Z</time>
      </trkpt>
      <trkpt lat="44.92723" lon="4.20682">
        <ele>1426.25</ele>
        <time>2020-10-25T09:35:40Z</time>
      </trkpt>
      <trkpt lat="44.92728" lon="4.20679">
        <ele>1425.77</ele>
        <time>2020-10-25T09:35:44Z</time>
      </trkpt>
      <trkpt lat="44.92737" lon="4.20679">
        <ele>1425.77</ele>
        <time>2020-10-25T09:35:52Z</time>
      </trkpt>
      <trkpt lat="44.92737" lon="4.2068">
        <ele>1425.77</ele>
        <time>2020-10-25T09:35:54Z</time>
      </trkpt>
      <trkpt lat="44.92743" lon="4.2068">
        <ele>1426.73</ele>
        <time>2020-10-25T09:35:59Z</time>
      </trkpt>
      <trkpt lat="44.9275" lon="4.20677">
        <ele>1426.25</ele>
        <time>2020-10-25T09:36:05Z</time>
      </trkpt>
      <trkpt lat="44.92754" lon="4.20673">
        <ele>1426.73</ele>
        <time>2020-10-25T09:36:08Z</time>
      </trkpt>
      <trkpt lat="44.92761" lon="4.20666">
        <ele>1426.73</ele>
        <time>2020-10-25T09:36:16Z</time>
      </trkpt>
      <trkpt lat="44.92778" lon="4.20682">
        <ele>1425.77</ele>
        <time>2020-10-25T09:36:25Z</time>
      </trkpt>
      <trkpt lat="44.92778" lon="4.2069">
        <ele>1425.77</ele>
        <time>2020-10-25T09:36:29Z</time>
      </trkpt>
      <trkpt lat="44.92776" lon="4.20694">
        <ele>1424.81</ele>
        <time>2020-10-25T09:36:32Z</time>
      </trkpt>
      <trkpt lat="44.92772" lon="4.20696">
        <ele>1424.33</ele>
        <time>2020-10-25T09:36:35Z</time>
      </trkpt>
      <trkpt lat="44.92762" lon="4.20705">
        <ele>1423.85</ele>
        <time>2020-10-25T09:36:47Z</time>
      </trkpt>
      <trkpt lat="44.92749" lon="4.20715">
        <ele>1423.37</ele>
        <time>2020-10-25T09:37:01Z</time>
      </trkpt>
      <trkpt lat="44.92748" lon="4.20715">
        <ele>1423.85</ele>
        <time>2020-10-25T09:37:02Z</time>
      </trkpt>
      <trkpt lat="44.92739" lon="4.20717">
        <ele>1421.93</ele>
        <time>2020-10-25T09:37:11Z</time>
      </trkpt>
      <trkpt lat="44.92734" lon="4.20721">
        <ele>1421.93</ele>
        <time>2020-10-25T09:37:16Z</time>
      </trkpt>
      <trkpt lat="44.92727" lon="4.20728">
        <ele>1422.41</ele>
        <time>2020-10-25T09:37:25Z</time>
      </trkpt>
      <trkpt lat="44.9272" lon="4.20731">
        <ele>1420.97</ele>
        <time>2020-10-25T09:37:31Z</time>
      </trkpt>
      <trkpt lat="44.92712" lon="4.20728">
        <ele>1419.52</ele>
        <time>2020-10-25T09:37:36Z</time>
      </trkpt>
      <trkpt lat="44.92706" lon="4.20728">
        <ele>1419.52</ele>
        <time>2020-10-25T09:37:41Z</time>
      </trkpt>
      <trkpt lat="44.92703" lon="4.20731">
        <ele>1420.49</ele>
        <time>2020-10-25T09:37:43Z</time>
      </trkpt>
      <trkpt lat="44.92679" lon="4.20742">
        <ele>1423.37</ele>
        <time>2020-10-25T09:38:00Z</time>
      </trkpt>
      <trkpt lat="44.92678" lon="4.20743">
        <ele>1423.37</ele>
        <time>2020-10-25T09:38:02Z</time>
      </trkpt>
      <trkpt lat="44.92675" lon="4.20747">
        <ele>1424.33</ele>
        <time>2020-10-25T09:38:05Z</time>
      </trkpt>
      <trkpt lat="44.92673" lon="4.2075">
        <ele>1423.85</ele>
        <time>2020-10-25T09:38:07Z</time>
      </trkpt>
      <trkpt lat="44.9267" lon="4.20752">
        <ele>1423.85</ele>
        <time>2020-10-25T09:38:09Z</time>
      </trkpt>
      <trkpt lat="44.92662" lon="4.20755">
        <ele>1423.85</ele>
        <time>2020-10-25T09:38:15Z</time>
      </trkpt>
      <trkpt lat="44.9266" lon="4.20757">
        <ele>1423.37</ele>
        <time>2020-10-25T09:38:17Z</time>
      </trkpt>
      <trkpt lat="44.92647" lon="4.20762">
        <ele>1422.41</ele>
        <time>2020-10-25T09:38:28Z</time>
      </trkpt>
      <trkpt lat="44.92632" lon="4.20764">
        <ele>1421.93</ele>
        <time>2020-10-25T09:38:39Z</time>
      </trkpt>
      <trkpt lat="44.92628" lon="4.20765">
        <ele>1421.93</ele>
        <time>2020-10-25T09:38:44Z</time>
      </trkpt>
      <trkpt lat="44.92622" lon="4.20762">
        <ele>1421.45</ele>
        <time>2020-10-25T09:38:56Z</time>
      </trkpt>
      <trkpt lat="44.92621" lon="4.20762">
        <ele>1421.45</ele>
        <time>2020-10-25T09:40:30Z</time>
      </trkpt>
      <trkpt lat="44.9262" lon="4.20761">
        <ele>1421.45</ele>
        <time>2020-10-25T09:41:04Z</time>
      </trkpt>
      <trkpt lat="44.92621" lon="4.20762">
        <ele>1421.45</ele>
        <time>2020-10-25T09:41:53Z</time>
      </trkpt>
      <trkpt lat="44.92622" lon="4.20761">
        <ele>1420</ele>
        <time>2020-10-25T09:42:15Z</time>
      </trkpt>
      <trkpt lat="44.92626" lon="4.20762">
        <ele>1419.52</ele>
        <time>2020-10-25T09:42:43Z</time>
      </trkpt>
      <trkpt lat="44.92628" lon="4.20768">
        <ele>1418.56</ele>
        <time>2020-10-25T09:42:57Z</time>
      </trkpt>
      <trkpt lat="44.92627" lon="4.2078">
        <ele>1418.08</ele>
        <time>2020-10-25T09:43:06Z</time>
      </trkpt>
      <trkpt lat="44.92619" lon="4.20792">
        <ele>1416.64</ele>
        <time>2020-10-25T09:43:16Z</time>
      </trkpt>
      <trkpt lat="44.92612" lon="4.20796">
        <ele>1415.68</ele>
        <time>2020-10-25T09:43:20Z</time>
      </trkpt>
      <trkpt lat="44.926" lon="4.20796">
        <ele>1415.2</ele>
        <time>2020-10-25T09:43:30Z</time>
      </trkpt>
      <trkpt lat="44.92591" lon="4.2079">
        <ele>1414.24</ele>
        <time>2020-10-25T09:43:39Z</time>
      </trkpt>
      <trkpt lat="44.92587" lon="4.20789">
        <ele>1414.72</ele>
        <time>2020-10-25T09:43:43Z</time>
      </trkpt>
      <trkpt lat="44.92583" lon="4.20789">
        <ele>1414.72</ele>
        <time>2020-10-25T09:43:46Z</time>
      </trkpt>
      <trkpt lat="44.9258" lon="4.20785">
        <ele>1414.24</ele>
        <time>2020-10-25T09:43:50Z</time>
      </trkpt>
      <trkpt lat="44.92579" lon="4.20778">
        <ele>1414.72</ele>
        <time>2020-10-25T09:43:55Z</time>
      </trkpt>
      <trkpt lat="44.92578" lon="4.20773">
        <ele>1414.72</ele>
        <time>2020-10-25T09:43:58Z</time>
      </trkpt>
      <trkpt lat="44.92575" lon="4.20766">
        <ele>1415.68</ele>
        <time>2020-10-25T09:44:03Z</time>
      </trkpt>
      <trkpt lat="44.92573" lon="4.20761">
        <ele>1416.16</ele>
        <time>2020-10-25T09:44:06Z</time>
      </trkpt>
      <trkpt lat="44.92562" lon="4.20746">
        <ele>1419.04</ele>
        <time>2020-10-25T09:44:21Z</time>
      </trkpt>
      <trkpt lat="44.92559" lon="4.20744">
        <ele>1420.49</ele>
        <time>2020-10-25T09:44:26Z</time>
      </trkpt>
      <trkpt lat="44.92556" lon="4.2074">
        <ele>1422.89</ele>
        <time>2020-10-25T09:44:37Z</time>
      </trkpt>
      <trkpt lat="44.92554" lon="4.20738">
        <ele>1422.89</ele>
        <time>2020-10-25T09:44:40Z</time>
      </trkpt>
      <trkpt lat="44.92548" lon="4.20737">
        <ele>1422.89</ele>
        <time>2020-10-25T09:44:45Z</time>
      </trkpt>
      <trkpt lat="44.92542" lon="4.20735">
        <ele>1422.41</ele>
        <time>2020-10-25T09:44:50Z</time>
      </trkpt>
      <trkpt lat="44.92539" lon="4.20734">
        <ele>1422.89</ele>
        <time>2020-10-25T09:44:52Z</time>
      </trkpt>
      <trkpt lat="44.92535" lon="4.20732">
        <ele>1422.89</ele>
        <time>2020-10-25T09:44:55Z</time>
      </trkpt>
      <trkpt lat="44.92518" lon="4.2073">
        <ele>1423.37</ele>
        <time>2020-10-25T09:45:10Z</time>
      </trkpt>
      <trkpt lat="44.92517" lon="4.2073">
        <ele>1422.89</ele>
        <time>2020-10-25T09:45:11Z</time>
      </trkpt>
      <trkpt lat="44.92501" lon="4.20722">
        <ele>1424.33</ele>
        <time>2020-10-25T09:45:25Z</time>
      </trkpt>
      <trkpt lat="44.92491" lon="4.20723">
        <ele>1423.85</ele>
        <time>2020-10-25T09:45:31Z</time>
      </trkpt>
      <trkpt lat="44.92478" lon="4.20723">
        <ele>1424.81</ele>
        <time>2020-10-25T09:45:41Z</time>
      </trkpt>
      <trkpt lat="44.92472" lon="4.20719">
        <ele>1425.77</ele>
        <time>2020-10-25T09:45:45Z</time>
      </trkpt>
      <trkpt lat="44.92466" lon="4.20718">
        <ele>1425.77</ele>
        <time>2020-10-25T09:45:49Z</time>
      </trkpt>
      <trkpt lat="44.92465" lon="4.20717">
        <ele>1425.77</ele>
        <time>2020-10-25T09:45:51Z</time>
      </trkpt>
      <trkpt lat="44.92455" lon="4.20715">
        <ele>1425.77</ele>
        <time>2020-10-25T09:46:00Z</time>
      </trkpt>
      <trkpt lat="44.92451" lon="4.20711">
        <ele>1425.77</ele>
        <time>2020-10-25T09:46:04Z</time>
      </trkpt>
      <trkpt lat="44.92435" lon="4.20706">
        <ele>1426.73</ele>
        <time>2020-10-25T09:46:16Z</time>
      </trkpt>
      <trkpt lat="44.92432" lon="4.20705">
        <ele>1426.73</ele>
        <time>2020-10-25T09:46:19Z</time>
      </trkpt>
      <trkpt lat="44.92418" lon="4.20712">
        <ele>1425.77</ele>
        <time>2020-10-25T09:46:29Z</time>
      </trkpt>
      <trkpt lat="44.92416" lon="4.20716">
        <ele>1425.29</ele>
        <time>2020-10-25T09:46:31Z</time>
      </trkpt>
      <trkpt lat="44.92412" lon="4.20719">
        <ele>1424.81</ele>
        <time>2020-10-25T09:46:33Z</time>
      </trkpt>
      <trkpt lat="44.9241" lon="4.20721">
        <ele>1424.81</ele>
        <time>2020-10-25T09:46:35Z</time>
      </trkpt>
      <trkpt lat="44.92396" lon="4.20735">
        <ele>1423.85</ele>
        <time>2020-10-25T09:46:46Z</time>
      </trkpt>
      <trkpt lat="44.9238" lon="4.20751">
        <ele>1424.33</ele>
        <time>2020-10-25T09:47:01Z</time>
      </trkpt>
      <trkpt lat="44.92376" lon="4.20757">
        <ele>1422.89</ele>
        <time>2020-10-25T09:47:09Z</time>
      </trkpt>
      <trkpt lat="44.92372" lon="4.20768">
        <ele>1422.89</ele>
        <time>2020-10-25T09:47:16Z</time>
      </trkpt>
      <trkpt lat="44.92365" lon="4.20798">
        <ele>1421.93</ele>
        <time>2020-10-25T09:47:30Z</time>
      </trkpt>
      <trkpt lat="44.92365" lon="4.208">
        <ele>1421.45</ele>
        <time>2020-10-25T09:47:31Z</time>
      </trkpt>
      <trkpt lat="44.92364" lon="4.20815">
        <ele>1421.45</ele>
        <time>2020-10-25T09:47:38Z</time>
      </trkpt>
      <trkpt lat="44.92361" lon="4.20827">
        <ele>1420.97</ele>
        <time>2020-10-25T09:47:44Z</time>
      </trkpt>
      <trkpt lat="44.92359" lon="4.20833">
        <ele>1420.49</ele>
        <time>2020-10-25T09:47:49Z</time>
      </trkpt>
      <trkpt lat="44.92355" lon="4.20841">
        <ele>1419.52</ele>
        <time>2020-10-25T09:47:54Z</time>
      </trkpt>
      <trkpt lat="44.9235" lon="4.20847">
        <ele>1419.52</ele>
        <time>2020-10-25T09:47:59Z</time>
      </trkpt>
      <trkpt lat="44.92345" lon="4.20845">
        <ele>1418.56</ele>
        <time>2020-10-25T09:48:04Z</time>
      </trkpt>
      <trkpt lat="44.92343" lon="4.20846">
        <ele>1417.12</ele>
        <time>2020-10-25T09:48:09Z</time>
      </trkpt>
      <trkpt lat="44.92334" lon="4.20853">
        <ele>1416.64</ele>
        <time>2020-10-25T09:48:18Z</time>
      </trkpt>
      <trkpt lat="44.92318" lon="4.20874">
        <ele>1413.76</ele>
        <time>2020-10-25T09:48:35Z</time>
      </trkpt>
      <trkpt lat="44.92316" lon="4.20878">
        <ele>1412.79</ele>
        <time>2020-10-25T09:48:39Z</time>
      </trkpt>
      <trkpt lat="44.92302" lon="4.20894">
        <ele>1410.87</ele>
        <time>2020-10-25T09:48:53Z</time>
      </trkpt>
      <trkpt lat="44.92294" lon="4.20915">
        <ele>1409.91</ele>
        <time>2020-10-25T09:49:06Z</time>
      </trkpt>
      <trkpt lat="44.92293" lon="4.20917">
        <ele>1409.43</ele>
        <time>2020-10-25T09:49:07Z</time>
      </trkpt>
      <trkpt lat="44.92285" lon="4.20938">
        <ele>1407.99</ele>
        <time>2020-10-25T09:49:16Z</time>
      </trkpt>
      <trkpt lat="44.92271" lon="4.20957">
        <ele>1405.1</ele>
        <time>2020-10-25T09:49:33Z</time>
      </trkpt>
      <trkpt lat="44.92261" lon="4.20981">
        <ele>1403.18</ele>
        <time>2020-10-25T09:49:47Z</time>
      </trkpt>
      <trkpt lat="44.92259" lon="4.20984">
        <ele>1402.22</ele>
        <time>2020-10-25T09:49:52Z</time>
      </trkpt>
      <trkpt lat="44.92254" lon="4.20997">
        <ele>1400.78</ele>
        <time>2020-10-25T09:50:00Z</time>
      </trkpt>
      <trkpt lat="44.9225" lon="4.21005">
        <ele>1400.78</ele>
        <time>2020-10-25T09:50:04Z</time>
      </trkpt>
      <trkpt lat="44.92246" lon="4.21015">
        <ele>1398.86</ele>
        <time>2020-10-25T09:50:13Z</time>
      </trkpt>
      <trkpt lat="44.9224" lon="4.21023">
        <ele>1397.89</ele>
        <time>2020-10-25T09:50:20Z</time>
      </trkpt>
      <trkpt lat="44.92238" lon="4.21026">
        <ele>1396.93</ele>
        <time>2020-10-25T09:50:23Z</time>
      </trkpt>
      <trkpt lat="44.92234" lon="4.21034">
        <ele>1395.97</ele>
        <time>2020-10-25T09:50:30Z</time>
      </trkpt>
      <trkpt lat="44.92231" lon="4.21039">
        <ele>1394.53</ele>
        <time>2020-10-25T09:50:33Z</time>
      </trkpt>
      <trkpt lat="44.92229" lon="4.21041">
        <ele>1394.53</ele>
        <time>2020-10-25T09:50:35Z</time>
      </trkpt>
      <trkpt lat="44.92226" lon="4.21044">
        <ele>1394.05</ele>
        <time>2020-10-25T09:50:37Z</time>
      </trkpt>
      <trkpt lat="44.92223" lon="4.21051">
        <ele>1393.09</ele>
        <time>2020-10-25T09:50:43Z</time>
      </trkpt>
      <trkpt lat="44.92214" lon="4.21066">
        <ele>1391.17</ele>
        <time>2020-10-25T09:50:54Z</time>
      </trkpt>
      <trkpt lat="44.92213" lon="4.21069">
        <ele>1390.2</ele>
        <time>2020-10-25T09:50:57Z</time>
      </trkpt>
      <trkpt lat="44.92208" lon="4.21074">
        <ele>1389.24</ele>
        <time>2020-10-25T09:51:02Z</time>
      </trkpt>
      <trkpt lat="44.92203" lon="4.21076">
        <ele>1389.24</ele>
        <time>2020-10-25T09:51:06Z</time>
      </trkpt>
      <trkpt lat="44.92202" lon="4.2108">
        <ele>1387.8</ele>
        <time>2020-10-25T09:51:11Z</time>
      </trkpt>
      <trkpt lat="44.92193" lon="4.21093">
        <ele>1386.36</ele>
        <time>2020-10-25T09:51:22Z</time>
      </trkpt>
      <trkpt lat="44.9219" lon="4.21099">
        <ele>1386.36</ele>
        <time>2020-10-25T09:51:26Z</time>
      </trkpt>
      <trkpt lat="44.92182" lon="4.21113">
        <ele>1384.92</ele>
        <time>2020-10-25T09:51:37Z</time>
      </trkpt>
      <trkpt lat="44.92176" lon="4.21123">
        <ele>1383.96</ele>
        <time>2020-10-25T09:51:45Z</time>
      </trkpt>
      <trkpt lat="44.92171" lon="4.21131">
        <ele>1382.99</ele>
        <time>2020-10-25T09:51:51Z</time>
      </trkpt>
      <trkpt lat="44.92166" lon="4.2114">
        <ele>1381.07</ele>
        <time>2020-10-25T09:51:57Z</time>
      </trkpt>
      <trkpt lat="44.92166" lon="4.21142">
        <ele>1381.55</ele>
        <time>2020-10-25T09:51:59Z</time>
      </trkpt>
      <trkpt lat="44.9216" lon="4.2115">
        <ele>1380.11</ele>
        <time>2020-10-25T09:52:05Z</time>
      </trkpt>
      <trkpt lat="44.92158" lon="4.21157">
        <ele>1380.59</ele>
        <time>2020-10-25T09:52:12Z</time>
      </trkpt>
      <trkpt lat="44.92154" lon="4.21166">
        <ele>1380.11</ele>
        <time>2020-10-25T09:52:17Z</time>
      </trkpt>
      <trkpt lat="44.92148" lon="4.21174">
        <ele>1380.59</ele>
        <time>2020-10-25T09:52:23Z</time>
      </trkpt>
      <trkpt lat="44.92148" lon="4.21184">
        <ele>1380.11</ele>
        <time>2020-10-25T09:52:28Z</time>
      </trkpt>
      <trkpt lat="44.92142" lon="4.21191">
        <ele>1380.59</ele>
        <time>2020-10-25T09:52:33Z</time>
      </trkpt>
      <trkpt lat="44.92141" lon="4.21194">
        <ele>1380.59</ele>
        <time>2020-10-25T09:52:36Z</time>
      </trkpt>
      <trkpt lat="44.9214" lon="4.21202">
        <ele>1380.59</ele>
        <time>2020-10-25T09:52:40Z</time>
      </trkpt>
      <trkpt lat="44.92129" lon="4.2122">
        <ele>1380.11</ele>
        <time>2020-10-25T09:52:51Z</time>
      </trkpt>
      <trkpt lat="44.92127" lon="4.21223">
        <ele>1380.59</ele>
        <time>2020-10-25T09:52:54Z</time>
      </trkpt>
      <trkpt lat="44.92123" lon="4.21226">
        <ele>1380.11</ele>
        <time>2020-10-25T09:52:57Z</time>
      </trkpt>
      <trkpt lat="44.92121" lon="4.21229">
        <ele>1380.59</ele>
        <time>2020-10-25T09:52:59Z</time>
      </trkpt>
      <trkpt lat="44.9212" lon="4.21232">
        <ele>1380.11</ele>
        <time>2020-10-25T09:53:03Z</time>
      </trkpt>
      <trkpt lat="44.92108" lon="4.21242">
        <ele>1377.71</ele>
        <time>2020-10-25T09:53:15Z</time>
      </trkpt>
      <trkpt lat="44.92095" lon="4.21248">
        <ele>1378.67</ele>
        <time>2020-10-25T09:53:29Z</time>
      </trkpt>
      <trkpt lat="44.92087" lon="4.21252">
        <ele>1377.23</ele>
        <time>2020-10-25T09:53:36Z</time>
      </trkpt>
      <trkpt lat="44.92079" lon="4.21257">
        <ele>1376.75</ele>
        <time>2020-10-25T09:53:43Z</time>
      </trkpt>
      <trkpt lat="44.92071" lon="4.21262">
        <ele>1380.11</ele>
        <time>2020-10-25T09:53:53Z</time>
      </trkpt>
      <trkpt lat="44.9207" lon="4.21263">
        <ele>1376.75</ele>
        <time>2020-10-25T09:53:57Z</time>
      </trkpt>
      <trkpt lat="44.92069" lon="4.21263">
        <ele>1380.11</ele>
        <time>2020-10-25T09:53:58Z</time>
      </trkpt>
      <trkpt lat="44.92063" lon="4.21267">
        <ele>1382.03</ele>
        <time>2020-10-25T09:54:04Z</time>
      </trkpt>
      <trkpt lat="44.92062" lon="4.21267">
        <ele>1376.75</ele>
        <time>2020-10-25T09:54:05Z</time>
      </trkpt>
      <trkpt lat="44.92058" lon="4.21269">
        <ele>1376.26</ele>
        <time>2020-10-25T09:54:10Z</time>
      </trkpt>
      <trkpt lat="44.92054" lon="4.21268">
        <ele>1372.42</ele>
        <time>2020-10-25T09:54:13Z</time>
      </trkpt>
      <trkpt lat="44.92053" lon="4.21267">
        <ele>1373.38</ele>
        <time>2020-10-25T09:54:14Z</time>
      </trkpt>
      <trkpt lat="44.92047" lon="4.21263">
        <ele>1371.94</ele>
        <time>2020-10-25T09:54:19Z</time>
      </trkpt>
      <trkpt lat="44.92044" lon="4.21262">
        <ele>1371.46</ele>
        <time>2020-10-25T09:54:22Z</time>
      </trkpt>
      <trkpt lat="44.9204" lon="4.21259">
        <ele>1371.94</ele>
        <time>2020-10-25T09:54:26Z</time>
      </trkpt>
      <trkpt lat="44.92039" lon="4.21255">
        <ele>1370.98</ele>
        <time>2020-10-25T09:54:29Z</time>
      </trkpt>
      <trkpt lat="44.92038" lon="4.21251">
        <ele>1371.46</ele>
        <time>2020-10-25T09:54:32Z</time>
      </trkpt>
      <trkpt lat="44.92039" lon="4.21229">
        <ele>1370.02</ele>
        <time>2020-10-25T09:54:44Z</time>
      </trkpt>
      <trkpt lat="44.92042" lon="4.21219">
        <ele>1369.54</ele>
        <time>2020-10-25T09:54:50Z</time>
      </trkpt>
      <trkpt lat="44.9204" lon="4.21213">
        <ele>1369.05</ele>
        <time>2020-10-25T09:54:53Z</time>
      </trkpt>
      <trkpt lat="44.92041" lon="4.21209">
        <ele>1369.05</ele>
        <time>2020-10-25T09:54:55Z</time>
      </trkpt>
      <trkpt lat="44.92044" lon="4.21195">
        <ele>1369.05</ele>
        <time>2020-10-25T09:55:04Z</time>
      </trkpt>
      <trkpt lat="44.92046" lon="4.21183">
        <ele>1368.57</ele>
        <time>2020-10-25T09:55:11Z</time>
      </trkpt>
      <trkpt lat="44.92044" lon="4.21169">
        <ele>1367.61</ele>
        <time>2020-10-25T09:55:19Z</time>
      </trkpt>
      <trkpt lat="44.92045" lon="4.2116">
        <ele>1366.17</ele>
        <time>2020-10-25T09:55:25Z</time>
      </trkpt>
      <trkpt lat="44.92046" lon="4.21147">
        <ele>1365.69</ele>
        <time>2020-10-25T09:55:33Z</time>
      </trkpt>
      <trkpt lat="44.92045" lon="4.21138">
        <ele>1365.21</ele>
        <time>2020-10-25T09:55:38Z</time>
      </trkpt>
      <trkpt lat="44.92047" lon="4.2113">
        <ele>1364.25</ele>
        <time>2020-10-25T09:55:42Z</time>
      </trkpt>
      <trkpt lat="44.92048" lon="4.21127">
        <ele>1364.25</ele>
        <time>2020-10-25T09:55:44Z</time>
      </trkpt>
      <trkpt lat="44.92046" lon="4.21114">
        <ele>1362.81</ele>
        <time>2020-10-25T09:55:50Z</time>
      </trkpt>
      <trkpt lat="44.9205" lon="4.21105">
        <ele>1362.81</ele>
        <time>2020-10-25T09:55:56Z</time>
      </trkpt>
      <trkpt lat="44.92051" lon="4.21092">
        <ele>1361.84</ele>
        <time>2020-10-25T09:56:05Z</time>
      </trkpt>
      <trkpt lat="44.92055" lon="4.21079">
        <ele>1359.92</ele>
        <time>2020-10-25T09:56:13Z</time>
      </trkpt>
      <trkpt lat="44.92055" lon="4.21074">
        <ele>1360.88</ele>
        <time>2020-10-25T09:56:15Z</time>
      </trkpt>
      <trkpt lat="44.92055" lon="4.2107">
        <ele>1359.92</ele>
        <time>2020-10-25T09:56:17Z</time>
      </trkpt>
      <trkpt lat="44.92057" lon="4.21065">
        <ele>1359.92</ele>
        <time>2020-10-25T09:56:20Z</time>
      </trkpt>
      <trkpt lat="44.92057" lon="4.21052">
        <ele>1357.52</ele>
        <time>2020-10-25T09:56:28Z</time>
      </trkpt>
      <trkpt lat="44.9207" lon="4.21041">
        <ele>1357.04</ele>
        <time>2020-10-25T09:56:37Z</time>
      </trkpt>
      <trkpt lat="44.92072" lon="4.21037">
        <ele>1355.6</ele>
        <time>2020-10-25T09:56:40Z</time>
      </trkpt>
      <trkpt lat="44.92071" lon="4.21029">
        <ele>1355.6</ele>
        <time>2020-10-25T09:56:45Z</time>
      </trkpt>
      <trkpt lat="44.92084" lon="4.21019">
        <ele>1353.19</ele>
        <time>2020-10-25T09:56:54Z</time>
      </trkpt>
      <trkpt lat="44.92088" lon="4.21011">
        <ele>1352.71</ele>
        <time>2020-10-25T09:57:00Z</time>
      </trkpt>
      <trkpt lat="44.92092" lon="4.21009">
        <ele>1353.67</ele>
        <time>2020-10-25T09:57:02Z</time>
      </trkpt>
      <trkpt lat="44.92102" lon="4.21002">
        <ele>1351.27</ele>
        <time>2020-10-25T09:57:11Z</time>
      </trkpt>
      <trkpt lat="44.92111" lon="4.20996">
        <ele>1350.79</ele>
        <time>2020-10-25T09:57:17Z</time>
      </trkpt>
      <trkpt lat="44.92115" lon="4.20991">
        <ele>1351.27</ele>
        <time>2020-10-25T09:57:21Z</time>
      </trkpt>
      <trkpt lat="44.92114" lon="4.20986">
        <ele>1350.79</ele>
        <time>2020-10-25T09:57:24Z</time>
      </trkpt>
      <trkpt lat="44.92125" lon="4.20977">
        <ele>1349.83</ele>
        <time>2020-10-25T09:57:33Z</time>
      </trkpt>
      <trkpt lat="44.92129" lon="4.20964">
        <ele>1348.39</ele>
        <time>2020-10-25T09:57:40Z</time>
      </trkpt>
      <trkpt lat="44.92133" lon="4.20961">
        <ele>1347.91</ele>
        <time>2020-10-25T09:57:45Z</time>
      </trkpt>
      <trkpt lat="44.92137" lon="4.20953">
        <ele>1347.43</ele>
        <time>2020-10-25T09:57:51Z</time>
      </trkpt>
      <trkpt lat="44.9214" lon="4.2094">
        <ele>1345.98</ele>
        <time>2020-10-25T09:58:03Z</time>
      </trkpt>
      <trkpt lat="44.92142" lon="4.20935">
        <ele>1345.98</ele>
        <time>2020-10-25T09:58:05Z</time>
      </trkpt>
      <trkpt lat="44.92142" lon="4.20908">
        <ele>1347.43</ele>
        <time>2020-10-25T09:58:20Z</time>
      </trkpt>
      <trkpt lat="44.92139" lon="4.209">
        <ele>1347.43</ele>
        <time>2020-10-25T09:58:24Z</time>
      </trkpt>
      <trkpt lat="44.9214" lon="4.20897">
        <ele>1347.43</ele>
        <time>2020-10-25T09:58:26Z</time>
      </trkpt>
      <trkpt lat="44.92141" lon="4.20882">
        <ele>1347.43</ele>
        <time>2020-10-25T09:58:37Z</time>
      </trkpt>
      <trkpt lat="44.92136" lon="4.20855">
        <ele>1346.94</ele>
        <time>2020-10-25T09:58:49Z</time>
      </trkpt>
      <trkpt lat="44.92136" lon="4.20849">
        <ele>1353.67</ele>
        <time>2020-10-25T09:59:01Z</time>
      </trkpt>
      <trkpt lat="44.92134" lon="4.2085">
        <ele>1346.46</ele>
        <time>2020-10-25T09:59:05Z</time>
      </trkpt>
      <trkpt lat="44.92129" lon="4.20846">
        <ele>1345.98</ele>
        <time>2020-10-25T09:59:19Z</time>
      </trkpt>
      <trkpt lat="44.92123" lon="4.20841">
        <ele>1344.54</ele>
        <time>2020-10-25T09:59:25Z</time>
      </trkpt>
      <trkpt lat="44.92111" lon="4.20831">
        <ele>1345.02</ele>
        <time>2020-10-25T09:59:36Z</time>
      </trkpt>
      <trkpt lat="44.921" lon="4.20827">
        <ele>1341.18</ele>
        <time>2020-10-25T09:59:44Z</time>
      </trkpt>
      <trkpt lat="44.92096" lon="4.20828">
        <ele>1341.66</ele>
        <time>2020-10-25T09:59:47Z</time>
      </trkpt>
      <trkpt lat="44.92093" lon="4.20828">
        <ele>1343.1</ele>
        <time>2020-10-25T09:59:49Z</time>
      </trkpt>
      <trkpt lat="44.92092" lon="4.20827">
        <ele>1343.1</ele>
        <time>2020-10-25T09:59:51Z</time>
      </trkpt>
      <trkpt lat="44.92091" lon="4.20827">
        <ele>1342.62</ele>
        <time>2020-10-25T09:59:53Z</time>
      </trkpt>
      <trkpt lat="44.92087" lon="4.20827">
        <ele>1342.62</ele>
        <time>2020-10-25T09:59:56Z</time>
      </trkpt>
      <trkpt lat="44.92079" lon="4.20829">
        <ele>1339.25</ele>
        <time>2020-10-25T10:00:03Z</time>
      </trkpt>
      <trkpt lat="44.92075" lon="4.20827">
        <ele>1340.7</ele>
        <time>2020-10-25T10:00:06Z</time>
      </trkpt>
      <trkpt lat="44.9207" lon="4.20828">
        <ele>1339.73</ele>
        <time>2020-10-25T10:00:10Z</time>
      </trkpt>
      <trkpt lat="44.92064" lon="4.20828">
        <ele>1341.66</ele>
        <time>2020-10-25T10:00:15Z</time>
      </trkpt>
      <trkpt lat="44.92049" lon="4.2082">
        <ele>1340.22</ele>
        <time>2020-10-25T10:00:31Z</time>
      </trkpt>
      <trkpt lat="44.92047" lon="4.20819">
        <ele>1339.73</ele>
        <time>2020-10-25T10:00:45Z</time>
      </trkpt>
      <trkpt lat="44.92043" lon="4.20815">
        <ele>1339.73</ele>
        <time>2020-10-25T10:00:49Z</time>
      </trkpt>
      <trkpt lat="44.9204" lon="4.20811">
        <ele>1339.25</ele>
        <time>2020-10-25T10:00:52Z</time>
      </trkpt>
      <trkpt lat="44.92036" lon="4.20808">
        <ele>1339.25</ele>
        <time>2020-10-25T10:00:57Z</time>
      </trkpt>
      <trkpt lat="44.92033" lon="4.20806">
        <ele>1338.77</ele>
        <time>2020-10-25T10:00:59Z</time>
      </trkpt>
      <trkpt lat="44.92031" lon="4.20804">
        <ele>1338.77</ele>
        <time>2020-10-25T10:01:01Z</time>
      </trkpt>
      <trkpt lat="44.92026" lon="4.20797">
        <ele>1337.33</ele>
        <time>2020-10-25T10:01:08Z</time>
      </trkpt>
      <trkpt lat="44.92014" lon="4.20791">
        <ele>1336.85</ele>
        <time>2020-10-25T10:01:16Z</time>
      </trkpt>
      <trkpt lat="44.92007" lon="4.20789">
        <ele>1335.89</ele>
        <time>2020-10-25T10:01:22Z</time>
      </trkpt>
      <trkpt lat="44.91993" lon="4.20785">
        <ele>1334.93</ele>
        <time>2020-10-25T10:01:32Z</time>
      </trkpt>
      <trkpt lat="44.91991" lon="4.20782">
        <ele>1334.45</ele>
        <time>2020-10-25T10:01:34Z</time>
      </trkpt>
      <trkpt lat="44.91983" lon="4.20781">
        <ele>1333.49</ele>
        <time>2020-10-25T10:01:40Z</time>
      </trkpt>
      <trkpt lat="44.91971" lon="4.20786">
        <ele>1332.04</ele>
        <time>2020-10-25T10:01:48Z</time>
      </trkpt>
      <trkpt lat="44.91964" lon="4.20785">
        <ele>1331.56</ele>
        <time>2020-10-25T10:01:52Z</time>
      </trkpt>
      <trkpt lat="44.91961" lon="4.20785">
        <ele>1332.52</ele>
        <time>2020-10-25T10:01:54Z</time>
      </trkpt>
      <trkpt lat="44.91954" lon="4.20785">
        <ele>1332.04</ele>
        <time>2020-10-25T10:02:00Z</time>
      </trkpt>
      <trkpt lat="44.91945" lon="4.20788">
        <ele>1329.64</ele>
        <time>2020-10-25T10:02:07Z</time>
      </trkpt>
      <trkpt lat="44.91941" lon="4.20788">
        <ele>1332.04</ele>
        <time>2020-10-25T10:02:10Z</time>
      </trkpt>
      <trkpt lat="44.91922" lon="4.20793">
        <ele>1330.6</ele>
        <time>2020-10-25T10:02:23Z</time>
      </trkpt>
      <trkpt lat="44.91915" lon="4.20793">
        <ele>1331.08</ele>
        <time>2020-10-25T10:02:28Z</time>
      </trkpt>
      <trkpt lat="44.91895" lon="4.208">
        <ele>1330.12</ele>
        <time>2020-10-25T10:02:43Z</time>
      </trkpt>
      <trkpt lat="44.91887" lon="4.20801">
        <ele>1330.6</ele>
        <time>2020-10-25T10:02:48Z</time>
      </trkpt>
      <trkpt lat="44.91882" lon="4.20804">
        <ele>1331.08</ele>
        <time>2020-10-25T10:02:52Z</time>
      </trkpt>
      <trkpt lat="44.91874" lon="4.20807">
        <ele>1330.6</ele>
        <time>2020-10-25T10:02:58Z</time>
      </trkpt>
      <trkpt lat="44.91869" lon="4.20807">
        <ele>1328.68</ele>
        <time>2020-10-25T10:03:02Z</time>
      </trkpt>
      <trkpt lat="44.91858" lon="4.20806">
        <ele>1328.68</ele>
        <time>2020-10-25T10:03:11Z</time>
      </trkpt>
      <trkpt lat="44.91851" lon="4.20807">
        <ele>1328.2</ele>
        <time>2020-10-25T10:03:16Z</time>
      </trkpt>
      <trkpt lat="44.91845" lon="4.20805">
        <ele>1328.2</ele>
        <time>2020-10-25T10:03:21Z</time>
      </trkpt>
      <trkpt lat="44.9184" lon="4.20801">
        <ele>1327.24</ele>
        <time>2020-10-25T10:03:25Z</time>
      </trkpt>
      <trkpt lat="44.91837" lon="4.208">
        <ele>1332.04</ele>
        <time>2020-10-25T10:03:27Z</time>
      </trkpt>
      <trkpt lat="44.91836" lon="4.20799">
        <ele>1328.2</ele>
        <time>2020-10-25T10:03:28Z</time>
      </trkpt>
      <trkpt lat="44.91833" lon="4.20797">
        <ele>1327.24</ele>
        <time>2020-10-25T10:03:30Z</time>
      </trkpt>
      <trkpt lat="44.91825" lon="4.20786">
        <ele>1328.68</ele>
        <time>2020-10-25T10:03:41Z</time>
      </trkpt>
      <trkpt lat="44.91821" lon="4.20782">
        <ele>1329.16</ele>
        <time>2020-10-25T10:03:45Z</time>
      </trkpt>
      <trkpt lat="44.91814" lon="4.20769">
        <ele>1325.31</ele>
        <time>2020-10-25T10:03:53Z</time>
      </trkpt>
      <trkpt lat="44.91811" lon="4.20763">
        <ele>1327.24</ele>
        <time>2020-10-25T10:03:57Z</time>
      </trkpt>
      <trkpt lat="44.91809" lon="4.20752">
        <ele>1327.24</ele>
        <time>2020-10-25T10:04:02Z</time>
      </trkpt>
      <trkpt lat="44.91799" lon="4.20731">
        <ele>1327.24</ele>
        <time>2020-10-25T10:04:15Z</time>
      </trkpt>
      <trkpt lat="44.91798" lon="4.20726">
        <ele>1326.76</ele>
        <time>2020-10-25T10:04:18Z</time>
      </trkpt>
      <trkpt lat="44.91796" lon="4.20713">
        <ele>1326.28</ele>
        <time>2020-10-25T10:04:28Z</time>
      </trkpt>
      <trkpt lat="44.91794" lon="4.2071">
        <ele>1325.8</ele>
        <time>2020-10-25T10:04:30Z</time>
      </trkpt>
      <trkpt lat="44.91792" lon="4.20706">
        <ele>1326.28</ele>
        <time>2020-10-25T10:04:33Z</time>
      </trkpt>
      <trkpt lat="44.91785" lon="4.20694">
        <ele>1324.83</ele>
        <time>2020-10-25T10:04:41Z</time>
      </trkpt>
      <trkpt lat="44.91777" lon="4.20682">
        <ele>1324.83</ele>
        <time>2020-10-25T10:04:48Z</time>
      </trkpt>
      <trkpt lat="44.91764" lon="4.20674">
        <ele>1322.91</ele>
        <time>2020-10-25T10:05:01Z</time>
      </trkpt>
      <trkpt lat="44.91757" lon="4.2067">
        <ele>1322.43</ele>
        <time>2020-10-25T10:05:05Z</time>
      </trkpt>
      <trkpt lat="44.9175" lon="4.20669">
        <ele>1322.91</ele>
        <time>2020-10-25T10:05:09Z</time>
      </trkpt>
      <trkpt lat="44.91745" lon="4.20666">
        <ele>1323.39</ele>
        <time>2020-10-25T10:05:13Z</time>
      </trkpt>
      <trkpt lat="44.91738" lon="4.20665">
        <ele>1324.35</ele>
        <time>2020-10-25T10:05:19Z</time>
      </trkpt>
      <trkpt lat="44.91735" lon="4.20665">
        <ele>1324.35</ele>
        <time>2020-10-25T10:05:21Z</time>
      </trkpt>
      <trkpt lat="44.91719" lon="4.20659">
        <ele>1324.35</ele>
        <time>2020-10-25T10:05:33Z</time>
      </trkpt>
      <trkpt lat="44.91705" lon="4.20661">
        <ele>1325.31</ele>
        <time>2020-10-25T10:05:43Z</time>
      </trkpt>
      <trkpt lat="44.91697" lon="4.20658">
        <ele>1325.31</ele>
        <time>2020-10-25T10:05:50Z</time>
      </trkpt>
      <trkpt lat="44.91693" lon="4.20657">
        <ele>1325.31</ele>
        <time>2020-10-25T10:05:52Z</time>
      </trkpt>
      <trkpt lat="44.91686" lon="4.20661">
        <ele>1324.83</ele>
        <time>2020-10-25T10:05:57Z</time>
      </trkpt>
      <trkpt lat="44.91678" lon="4.20662">
        <ele>1325.31</ele>
        <time>2020-10-25T10:06:03Z</time>
      </trkpt>
      <trkpt lat="44.91671" lon="4.20661">
        <ele>1324.83</ele>
        <time>2020-10-25T10:06:08Z</time>
      </trkpt>
      <trkpt lat="44.9166" lon="4.20665">
        <ele>1324.35</ele>
        <time>2020-10-25T10:06:18Z</time>
      </trkpt>
      <trkpt lat="44.91656" lon="4.20667">
        <ele>1324.35</ele>
        <time>2020-10-25T10:06:21Z</time>
      </trkpt>
      <trkpt lat="44.91649" lon="4.2067">
        <ele>1324.35</ele>
        <time>2020-10-25T10:06:25Z</time>
      </trkpt>
      <trkpt lat="44.91641" lon="4.20671">
        <ele>1323.87</ele>
        <time>2020-10-25T10:06:30Z</time>
      </trkpt>
      <trkpt lat="44.91628" lon="4.20675">
        <ele>1324.35</ele>
        <time>2020-10-25T10:06:39Z</time>
      </trkpt>
      <trkpt lat="44.91625" lon="4.20679">
        <ele>1324.83</ele>
        <time>2020-10-25T10:06:42Z</time>
      </trkpt>
      <trkpt lat="44.91611" lon="4.20684">
        <ele>1324.35</ele>
        <time>2020-10-25T10:06:52Z</time>
      </trkpt>
      <trkpt lat="44.91607" lon="4.20684">
        <ele>1324.35</ele>
        <time>2020-10-25T10:06:54Z</time>
      </trkpt>
      <trkpt lat="44.916" lon="4.20687">
        <ele>1325.31</ele>
        <time>2020-10-25T10:07:00Z</time>
      </trkpt>
      <trkpt lat="44.9158" lon="4.20694">
        <ele>1323.87</ele>
        <time>2020-10-25T10:07:16Z</time>
      </trkpt>
      <trkpt lat="44.91561" lon="4.20702">
        <ele>1323.87</ele>
        <time>2020-10-25T10:07:31Z</time>
      </trkpt>
      <trkpt lat="44.91546" lon="4.20703">
        <ele>1322.91</ele>
        <time>2020-10-25T10:07:43Z</time>
      </trkpt>
      <trkpt lat="44.91534" lon="4.20706">
        <ele>1322.43</ele>
        <time>2020-10-25T10:07:51Z</time>
      </trkpt>
      <trkpt lat="44.91528" lon="4.207">
        <ele>1323.39</ele>
        <time>2020-10-25T10:07:57Z</time>
      </trkpt>
      <trkpt lat="44.91521" lon="4.20699">
        <ele>1323.39</ele>
        <time>2020-10-25T10:08:02Z</time>
      </trkpt>
      <trkpt lat="44.91519" lon="4.207">
        <ele>1323.39</ele>
        <time>2020-10-25T10:08:04Z</time>
      </trkpt>
      <trkpt lat="44.91507" lon="4.20698">
        <ele>1322.91</ele>
        <time>2020-10-25T10:08:12Z</time>
      </trkpt>
      <trkpt lat="44.91494" lon="4.20693">
        <ele>1322.91</ele>
        <time>2020-10-25T10:08:23Z</time>
      </trkpt>
      <trkpt lat="44.91488" lon="4.20696">
        <ele>1322.43</ele>
        <time>2020-10-25T10:08:28Z</time>
      </trkpt>
      <trkpt lat="44.91485" lon="4.20695">
        <ele>1321.95</ele>
        <time>2020-10-25T10:08:30Z</time>
      </trkpt>
      <trkpt lat="44.91476" lon="4.20689">
        <ele>1322.43</ele>
        <time>2020-10-25T10:08:36Z</time>
      </trkpt>
      <trkpt lat="44.91467" lon="4.20688">
        <ele>1321.95</ele>
        <time>2020-10-25T10:08:43Z</time>
      </trkpt>
      <trkpt lat="44.91458" lon="4.20692">
        <ele>1321.47</ele>
        <time>2020-10-25T10:08:50Z</time>
      </trkpt>
      <trkpt lat="44.91438" lon="4.20689">
        <ele>1321.95</ele>
        <time>2020-10-25T10:09:04Z</time>
      </trkpt>
      <trkpt lat="44.9143" lon="4.20695">
        <ele>1320.51</ele>
        <time>2020-10-25T10:09:11Z</time>
      </trkpt>
      <trkpt lat="44.91423" lon="4.20695">
        <ele>1320.51</ele>
        <time>2020-10-25T10:09:16Z</time>
      </trkpt>
      <trkpt lat="44.91407" lon="4.207">
        <ele>1320.51</ele>
        <time>2020-10-25T10:09:30Z</time>
      </trkpt>
      <trkpt lat="44.91404" lon="4.20702">
        <ele>1320.99</ele>
        <time>2020-10-25T10:09:32Z</time>
      </trkpt>
      <trkpt lat="44.91384" lon="4.20702">
        <ele>1319.55</ele>
        <time>2020-10-25T10:09:46Z</time>
      </trkpt>
      <trkpt lat="44.91371" lon="4.2071">
        <ele>1320.03</ele>
        <time>2020-10-25T10:09:56Z</time>
      </trkpt>
      <trkpt lat="44.91357" lon="4.2071">
        <ele>1320.03</ele>
        <time>2020-10-25T10:10:06Z</time>
      </trkpt>
      <trkpt lat="44.91352" lon="4.20716">
        <ele>1320.51</ele>
        <time>2020-10-25T10:10:12Z</time>
      </trkpt>
      <trkpt lat="44.91336" lon="4.20721">
        <ele>1320.03</ele>
        <time>2020-10-25T10:10:24Z</time>
      </trkpt>
      <trkpt lat="44.91327" lon="4.20729">
        <ele>1319.55</ele>
        <time>2020-10-25T10:10:32Z</time>
      </trkpt>
      <trkpt lat="44.91319" lon="4.20729">
        <ele>1320.03</ele>
        <time>2020-10-25T10:10:37Z</time>
      </trkpt>
      <trkpt lat="44.91315" lon="4.2073">
        <ele>1319.55</ele>
        <time>2020-10-25T10:10:40Z</time>
      </trkpt>
      <trkpt lat="44.91312" lon="4.20732">
        <ele>1319.07</ele>
        <time>2020-10-25T10:10:43Z</time>
      </trkpt>
      <trkpt lat="44.91308" lon="4.20735">
        <ele>1319.55</ele>
        <time>2020-10-25T10:10:46Z</time>
      </trkpt>
      <trkpt lat="44.91291" lon="4.20732">
        <ele>1320.03</ele>
        <time>2020-10-25T10:11:00Z</time>
      </trkpt>
      <trkpt lat="44.91281" lon="4.20733">
        <ele>1320.51</ele>
        <time>2020-10-25T10:11:07Z</time>
      </trkpt>
      <trkpt lat="44.9127" lon="4.20729">
        <ele>1318.59</ele>
        <time>2020-10-25T10:11:15Z</time>
      </trkpt>
      <trkpt lat="44.91265" lon="4.20731">
        <ele>1320.51</ele>
        <time>2020-10-25T10:11:19Z</time>
      </trkpt>
      <trkpt lat="44.91255" lon="4.20727">
        <ele>1319.55</ele>
        <time>2020-10-25T10:11:27Z</time>
      </trkpt>
      <trkpt lat="44.91251" lon="4.20728">
        <ele>1319.07</ele>
        <time>2020-10-25T10:11:30Z</time>
      </trkpt>
      <trkpt lat="44.91244" lon="4.20727">
        <ele>1319.55</ele>
        <time>2020-10-25T10:11:35Z</time>
      </trkpt>
      <trkpt lat="44.91235" lon="4.20722">
        <ele>1319.55</ele>
        <time>2020-10-25T10:11:43Z</time>
      </trkpt>
      <trkpt lat="44.91233" lon="4.20723">
        <ele>1319.55</ele>
        <time>2020-10-25T10:11:45Z</time>
      </trkpt>
      <trkpt lat="44.91219" lon="4.20717">
        <ele>1321.47</ele>
        <time>2020-10-25T10:11:56Z</time>
      </trkpt>
      <trkpt lat="44.91215" lon="4.20719">
        <ele>1321.95</ele>
        <time>2020-10-25T10:12:00Z</time>
      </trkpt>
      <trkpt lat="44.91211" lon="4.20719">
        <ele>1320.99</ele>
        <time>2020-10-25T10:12:03Z</time>
      </trkpt>
      <trkpt lat="44.91203" lon="4.2072">
        <ele>1320.51</ele>
        <time>2020-10-25T10:12:08Z</time>
      </trkpt>
      <trkpt lat="44.91198" lon="4.20725">
        <ele>1321.95</ele>
        <time>2020-10-25T10:12:13Z</time>
      </trkpt>
      <trkpt lat="44.91195" lon="4.20725">
        <ele>1322.43</ele>
        <time>2020-10-25T10:12:16Z</time>
      </trkpt>
      <trkpt lat="44.91189" lon="4.20726">
        <ele>1321.95</ele>
        <time>2020-10-25T10:12:20Z</time>
      </trkpt>
      <trkpt lat="44.91183" lon="4.2073">
        <ele>1321.47</ele>
        <time>2020-10-25T10:12:26Z</time>
      </trkpt>
      <trkpt lat="44.91173" lon="4.20732">
        <ele>1323.39</ele>
        <time>2020-10-25T10:12:34Z</time>
      </trkpt>
      <trkpt lat="44.9117" lon="4.20735">
        <ele>1322.43</ele>
        <time>2020-10-25T10:12:37Z</time>
      </trkpt>
      <trkpt lat="44.9116" lon="4.20737">
        <ele>1322.43</ele>
        <time>2020-10-25T10:12:44Z</time>
      </trkpt>
      <trkpt lat="44.91153" lon="4.20742">
        <ele>1322.43</ele>
        <time>2020-10-25T10:12:50Z</time>
      </trkpt>
      <trkpt lat="44.91138" lon="4.20744">
        <ele>1322.91</ele>
        <time>2020-10-25T10:13:02Z</time>
      </trkpt>
      <trkpt lat="44.9113" lon="4.20743">
        <ele>1322.91</ele>
        <time>2020-10-25T10:13:09Z</time>
      </trkpt>
      <trkpt lat="44.91124" lon="4.20741">
        <ele>1323.39</ele>
        <time>2020-10-25T10:13:14Z</time>
      </trkpt>
      <trkpt lat="44.91118" lon="4.20737">
        <ele>1322.91</ele>
        <time>2020-10-25T10:13:18Z</time>
      </trkpt>
      <trkpt lat="44.91114" lon="4.20737">
        <ele>1323.87</ele>
        <time>2020-10-25T10:13:23Z</time>
      </trkpt>
      <trkpt lat="44.91108" lon="4.20729">
        <ele>1322.91</ele>
        <time>2020-10-25T10:13:29Z</time>
      </trkpt>
      <trkpt lat="44.91098" lon="4.20717">
        <ele>1324.35</ele>
        <time>2020-10-25T10:13:40Z</time>
      </trkpt>
      <trkpt lat="44.91095" lon="4.20714">
        <ele>1326.28</ele>
        <time>2020-10-25T10:13:44Z</time>
      </trkpt>
      <trkpt lat="44.91093" lon="4.20711">
        <ele>1325.8</ele>
        <time>2020-10-25T10:13:47Z</time>
      </trkpt>
      <trkpt lat="44.91091" lon="4.20709">
        <ele>1324.83</ele>
        <time>2020-10-25T10:13:50Z</time>
      </trkpt>
      <trkpt lat="44.91088" lon="4.20706">
        <ele>1324.83</ele>
        <time>2020-10-25T10:13:53Z</time>
      </trkpt>
      <trkpt lat="44.91081" lon="4.20691">
        <ele>1325.8</ele>
        <time>2020-10-25T10:14:05Z</time>
      </trkpt>
      <trkpt lat="44.91076" lon="4.20684">
        <ele>1326.28</ele>
        <time>2020-10-25T10:14:10Z</time>
      </trkpt>
      <trkpt lat="44.91067" lon="4.20678">
        <ele>1325.8</ele>
        <time>2020-10-25T10:14:20Z</time>
      </trkpt>
      <trkpt lat="44.91051" lon="4.20663">
        <ele>1326.76</ele>
        <time>2020-10-25T10:14:31Z</time>
      </trkpt>
      <trkpt lat="44.91047" lon="4.20658">
        <ele>1326.76</ele>
        <time>2020-10-25T10:14:37Z</time>
      </trkpt>
      <trkpt lat="44.91034" lon="4.20653">
        <ele>1326.28</ele>
        <time>2020-10-25T10:14:47Z</time>
      </trkpt>
      <trkpt lat="44.91032" lon="4.20652">
        <ele>1326.76</ele>
        <time>2020-10-25T10:14:49Z</time>
      </trkpt>
      <trkpt lat="44.91025" lon="4.2065">
        <ele>1326.76</ele>
        <time>2020-10-25T10:14:54Z</time>
      </trkpt>
      <trkpt lat="44.91012" lon="4.20647">
        <ele>1328.2</ele>
        <time>2020-10-25T10:15:07Z</time>
      </trkpt>
      <trkpt lat="44.91004" lon="4.20643">
        <ele>1327.72</ele>
        <time>2020-10-25T10:15:15Z</time>
      </trkpt>
      <trkpt lat="44.90995" lon="4.20639">
        <ele>1325.8</ele>
        <time>2020-10-25T10:15:22Z</time>
      </trkpt>
      <trkpt lat="44.90975" lon="4.20636">
        <ele>1328.2</ele>
        <time>2020-10-25T10:15:37Z</time>
      </trkpt>
      <trkpt lat="44.9097" lon="4.20637">
        <ele>1327.72</ele>
        <time>2020-10-25T10:15:40Z</time>
      </trkpt>
      <trkpt lat="44.90964" lon="4.20639">
        <ele>1328.68</ele>
        <time>2020-10-25T10:15:44Z</time>
      </trkpt>
      <trkpt lat="44.90959" lon="4.20637">
        <ele>1326.76</ele>
        <time>2020-10-25T10:15:48Z</time>
      </trkpt>
      <trkpt lat="44.90956" lon="4.20636">
        <ele>1325.8</ele>
        <time>2020-10-25T10:15:51Z</time>
      </trkpt>
      <trkpt lat="44.90949" lon="4.20638">
        <ele>1327.24</ele>
        <time>2020-10-25T10:15:57Z</time>
      </trkpt>
      <trkpt lat="44.90943" lon="4.20637">
        <ele>1328.2</ele>
        <time>2020-10-25T10:16:02Z</time>
      </trkpt>
      <trkpt lat="44.90939" lon="4.20638">
        <ele>1329.64</ele>
        <time>2020-10-25T10:16:05Z</time>
      </trkpt>
      <trkpt lat="44.9093" lon="4.20633">
        <ele>1329.16</ele>
        <time>2020-10-25T10:16:12Z</time>
      </trkpt>
      <trkpt lat="44.90926" lon="4.20631">
        <ele>1328.2</ele>
        <time>2020-10-25T10:16:15Z</time>
      </trkpt>
      <trkpt lat="44.9092" lon="4.20623">
        <ele>1328.68</ele>
        <time>2020-10-25T10:16:22Z</time>
      </trkpt>
      <trkpt lat="44.90912" lon="4.20615">
        <ele>1329.64</ele>
        <time>2020-10-25T10:16:29Z</time>
      </trkpt>
      <trkpt lat="44.90909" lon="4.20614">
        <ele>1330.6</ele>
        <time>2020-10-25T10:16:32Z</time>
      </trkpt>
      <trkpt lat="44.90905" lon="4.2061">
        <ele>1330.12</ele>
        <time>2020-10-25T10:16:35Z</time>
      </trkpt>
      <trkpt lat="44.90897" lon="4.20599">
        <ele>1330.6</ele>
        <time>2020-10-25T10:16:46Z</time>
      </trkpt>
      <trkpt lat="44.90883" lon="4.20592">
        <ele>1331.08</ele>
        <time>2020-10-25T10:17:00Z</time>
      </trkpt>
      <trkpt lat="44.9088" lon="4.20591">
        <ele>1331.56</ele>
        <time>2020-10-25T10:17:02Z</time>
      </trkpt>
      <trkpt lat="44.9087" lon="4.2059">
        <ele>1330.12</ele>
        <time>2020-10-25T10:17:08Z</time>
      </trkpt>
      <trkpt lat="44.90862" lon="4.20587">
        <ele>1330.6</ele>
        <time>2020-10-25T10:17:13Z</time>
      </trkpt>
      <trkpt lat="44.90856" lon="4.20583">
        <ele>1330.6</ele>
        <time>2020-10-25T10:17:18Z</time>
      </trkpt>
      <trkpt lat="44.90846" lon="4.20582">
        <ele>1329.64</ele>
        <time>2020-10-25T10:17:26Z</time>
      </trkpt>
      <trkpt lat="44.9084" lon="4.20578">
        <ele>1330.12</ele>
        <time>2020-10-25T10:17:31Z</time>
      </trkpt>
      <trkpt lat="44.9082" lon="4.20577">
        <ele>1331.56</ele>
        <time>2020-10-25T10:17:48Z</time>
      </trkpt>
      <trkpt lat="44.908" lon="4.20582">
        <ele>1331.56</ele>
        <time>2020-10-25T10:18:03Z</time>
      </trkpt>
      <trkpt lat="44.90789" lon="4.20587">
        <ele>1331.08</ele>
        <time>2020-10-25T10:18:12Z</time>
      </trkpt>
      <trkpt lat="44.90782" lon="4.2059">
        <ele>1331.08</ele>
        <time>2020-10-25T10:18:18Z</time>
      </trkpt>
      <trkpt lat="44.90779" lon="4.20591">
        <ele>1332.52</ele>
        <time>2020-10-25T10:18:22Z</time>
      </trkpt>
      <trkpt lat="44.90772" lon="4.20594">
        <ele>1333.49</ele>
        <time>2020-10-25T10:22:23Z</time>
      </trkpt>
      <trkpt lat="44.9077" lon="4.20591">
        <ele>1332.52</ele>
        <time>2020-10-25T10:22:25Z</time>
      </trkpt>
      <trkpt lat="44.90765" lon="4.20585">
        <ele>1336.37</ele>
        <time>2020-10-25T10:22:43Z</time>
      </trkpt>
      <trkpt lat="44.90765" lon="4.20586">
        <ele>1333.49</ele>
        <time>2020-10-25T10:23:13Z</time>
      </trkpt>
      <trkpt lat="44.90764" lon="4.20586">
        <ele>1333.49</ele>
        <time>2020-10-25T10:23:33Z</time>
      </trkpt>
      <trkpt lat="44.90761" lon="4.20583">
        <ele>1334.93</ele>
        <time>2020-10-25T10:24:47Z</time>
      </trkpt>
      <trkpt lat="44.90757" lon="4.20582">
        <ele>1336.37</ele>
        <time>2020-10-25T10:25:00Z</time>
      </trkpt>
      <trkpt lat="44.90755" lon="4.20583">
        <ele>1336.37</ele>
        <time>2020-10-25T10:25:05Z</time>
      </trkpt>
      <trkpt lat="44.9075" lon="4.20581">
        <ele>1336.37</ele>
        <time>2020-10-25T10:25:20Z</time>
      </trkpt>
      <trkpt lat="44.90749" lon="4.20582">
        <ele>1335.89</ele>
        <time>2020-10-25T10:25:21Z</time>
      </trkpt>
      <trkpt lat="44.90746" lon="4.20581">
        <ele>1336.37</ele>
        <time>2020-10-25T10:25:23Z</time>
      </trkpt>
      <trkpt lat="44.90738" lon="4.20583">
        <ele>1336.37</ele>
        <time>2020-10-25T10:25:28Z</time>
      </trkpt>
      <trkpt lat="44.90731" lon="4.20586">
        <ele>1337.81</ele>
        <time>2020-10-25T10:25:36Z</time>
      </trkpt>
      <trkpt lat="44.90728" lon="4.20585">
        <ele>1337.33</ele>
        <time>2020-10-25T10:25:38Z</time>
      </trkpt>
      <trkpt lat="44.9071" lon="4.20588">
        <ele>1335.89</ele>
        <time>2020-10-25T10:25:50Z</time>
      </trkpt>
      <trkpt lat="44.90703" lon="4.20591">
        <ele>1334.45</ele>
        <time>2020-10-25T10:25:58Z</time>
      </trkpt>
      <trkpt lat="44.90697" lon="4.20591">
        <ele>1335.89</ele>
        <time>2020-10-25T10:26:04Z</time>
      </trkpt>
      <trkpt lat="44.90695" lon="4.2059">
        <ele>1337.33</ele>
        <time>2020-10-25T10:26:06Z</time>
      </trkpt>
      <trkpt lat="44.9069" lon="4.20588">
        <ele>1337.33</ele>
        <time>2020-10-25T10:26:09Z</time>
      </trkpt>
      <trkpt lat="44.90685" lon="4.20587">
        <ele>1336.85</ele>
        <time>2020-10-25T10:26:14Z</time>
      </trkpt>
      <trkpt lat="44.90679" lon="4.20586">
        <ele>1337.81</ele>
        <time>2020-10-25T10:26:23Z</time>
      </trkpt>
      <trkpt lat="44.90677" lon="4.20586">
        <ele>1337.33</ele>
        <time>2020-10-25T10:26:26Z</time>
      </trkpt>
      <trkpt lat="44.90657" lon="4.20585">
        <ele>1338.77</ele>
        <time>2020-10-25T10:26:38Z</time>
      </trkpt>
      <trkpt lat="44.90654" lon="4.20587">
        <ele>1338.77</ele>
        <time>2020-10-25T10:26:41Z</time>
      </trkpt>
      <trkpt lat="44.9065" lon="4.20584">
        <ele>1337.81</ele>
        <time>2020-10-25T10:26:44Z</time>
      </trkpt>
      <trkpt lat="44.90634" lon="4.20582">
        <ele>1339.25</ele>
        <time>2020-10-25T10:26:58Z</time>
      </trkpt>
      <trkpt lat="44.90628" lon="4.20581">
        <ele>1337.81</ele>
        <time>2020-10-25T10:27:03Z</time>
      </trkpt>
      <trkpt lat="44.90612" lon="4.20582">
        <ele>1338.77</ele>
        <time>2020-10-25T10:27:15Z</time>
      </trkpt>
      <trkpt lat="44.90608" lon="4.20582">
        <ele>1335.41</ele>
        <time>2020-10-25T10:27:18Z</time>
      </trkpt>
      <trkpt lat="44.90605" lon="4.20581">
        <ele>1338.29</ele>
        <time>2020-10-25T10:27:20Z</time>
      </trkpt>
      <trkpt lat="44.90603" lon="4.20579">
        <ele>1338.77</ele>
        <time>2020-10-25T10:27:22Z</time>
      </trkpt>
      <trkpt lat="44.90596" lon="4.20579">
        <ele>1338.77</ele>
        <time>2020-10-25T10:27:27Z</time>
      </trkpt>
      <trkpt lat="44.90584" lon="4.20575">
        <ele>1339.25</ele>
        <time>2020-10-25T10:27:36Z</time>
      </trkpt>
      <trkpt lat="44.90568" lon="4.20574">
        <ele>1340.22</ele>
        <time>2020-10-25T10:27:47Z</time>
      </trkpt>
      <trkpt lat="44.90557" lon="4.20569">
        <ele>1341.66</ele>
        <time>2020-10-25T10:27:57Z</time>
      </trkpt>
      <trkpt lat="44.90551" lon="4.20556">
        <ele>1342.62</ele>
        <time>2020-10-25T10:28:06Z</time>
      </trkpt>
      <trkpt lat="44.9055" lon="4.20548">
        <ele>1343.58</ele>
        <time>2020-10-25T10:28:13Z</time>
      </trkpt>
      <trkpt lat="44.90546" lon="4.20545">
        <ele>1343.58</ele>
        <time>2020-10-25T10:28:16Z</time>
      </trkpt>
      <trkpt lat="44.90543" lon="4.20541">
        <ele>1344.54</ele>
        <time>2020-10-25T10:28:20Z</time>
      </trkpt>
      <trkpt lat="44.90538" lon="4.20534">
        <ele>1345.98</ele>
        <time>2020-10-25T10:28:28Z</time>
      </trkpt>
      <trkpt lat="44.90536" lon="4.20528">
        <ele>1345.98</ele>
        <time>2020-10-25T10:28:32Z</time>
      </trkpt>
      <trkpt lat="44.90535" lon="4.20523">
        <ele>1346.46</ele>
        <time>2020-10-25T10:28:36Z</time>
      </trkpt>
      <trkpt lat="44.90531" lon="4.20512">
        <ele>1348.87</ele>
        <time>2020-10-25T10:28:46Z</time>
      </trkpt>
      <trkpt lat="44.90529" lon="4.20505">
        <ele>1348.87</ele>
        <time>2020-10-25T10:28:51Z</time>
      </trkpt>
      <trkpt lat="44.90529" lon="4.20501">
        <ele>1349.35</ele>
        <time>2020-10-25T10:28:54Z</time>
      </trkpt>
      <trkpt lat="44.90527" lon="4.20497">
        <ele>1349.83</ele>
        <time>2020-10-25T10:28:58Z</time>
      </trkpt>
      <trkpt lat="44.90524" lon="4.20488">
        <ele>1350.31</ele>
        <time>2020-10-25T10:29:04Z</time>
      </trkpt>
      <trkpt lat="44.90521" lon="4.20479">
        <ele>1351.27</ele>
        <time>2020-10-25T10:29:11Z</time>
      </trkpt>
      <trkpt lat="44.9052" lon="4.20476">
        <ele>1351.75</ele>
        <time>2020-10-25T10:29:13Z</time>
      </trkpt>
      <trkpt lat="44.90517" lon="4.20468">
        <ele>1351.75</ele>
        <time>2020-10-25T10:29:20Z</time>
      </trkpt>
      <trkpt lat="44.90516" lon="4.20464">
        <ele>1351.27</ele>
        <time>2020-10-25T10:29:22Z</time>
      </trkpt>
      <trkpt lat="44.90514" lon="4.20458">
        <ele>1352.23</ele>
        <time>2020-10-25T10:29:26Z</time>
      </trkpt>
      <trkpt lat="44.9051" lon="4.20445">
        <ele>1353.19</ele>
        <time>2020-10-25T10:29:36Z</time>
      </trkpt>
      <trkpt lat="44.90511" lon="4.20442">
        <ele>1353.67</ele>
        <time>2020-10-25T10:29:38Z</time>
      </trkpt>
      <trkpt lat="44.90509" lon="4.20435">
        <ele>1355.12</ele>
        <time>2020-10-25T10:29:43Z</time>
      </trkpt>
      <trkpt lat="44.90509" lon="4.20434">
        <ele>1354.63</ele>
        <time>2020-10-25T10:29:45Z</time>
      </trkpt>
      <trkpt lat="44.90508" lon="4.2043">
        <ele>1357.04</ele>
        <time>2020-10-25T10:29:53Z</time>
      </trkpt>
      <trkpt lat="44.90507" lon="4.20426">
        <ele>1356.08</ele>
        <time>2020-10-25T10:29:56Z</time>
      </trkpt>
      <trkpt lat="44.90506" lon="4.20421">
        <ele>1356.08</ele>
        <time>2020-10-25T10:29:59Z</time>
      </trkpt>
      <trkpt lat="44.90505" lon="4.20417">
        <ele>1356.56</ele>
        <time>2020-10-25T10:30:01Z</time>
      </trkpt>
      <trkpt lat="44.90503" lon="4.2041">
        <ele>1356.08</ele>
        <time>2020-10-25T10:30:04Z</time>
      </trkpt>
      <trkpt lat="44.90497" lon="4.20394">
        <ele>1356.56</ele>
        <time>2020-10-25T10:30:18Z</time>
      </trkpt>
      <trkpt lat="44.90496" lon="4.20393">
        <ele>1357.04</ele>
        <time>2020-10-25T10:30:19Z</time>
      </trkpt>
      <trkpt lat="44.90494" lon="4.20385">
        <ele>1357.52</ele>
        <time>2020-10-25T10:30:23Z</time>
      </trkpt>
      <trkpt lat="44.90492" lon="4.20372">
        <ele>1359.44</ele>
        <time>2020-10-25T10:30:32Z</time>
      </trkpt>
      <trkpt lat="44.90492" lon="4.20361">
        <ele>1359.44</ele>
        <time>2020-10-25T10:30:41Z</time>
      </trkpt>
      <trkpt lat="44.90495" lon="4.20356">
        <ele>1360.4</ele>
        <time>2020-10-25T10:30:45Z</time>
      </trkpt>
      <trkpt lat="44.90497" lon="4.20347">
        <ele>1360.4</ele>
        <time>2020-10-25T10:30:51Z</time>
      </trkpt>
      <trkpt lat="44.90497" lon="4.20344">
        <ele>1360.88</ele>
        <time>2020-10-25T10:30:53Z</time>
      </trkpt>
      <trkpt lat="44.90498" lon="4.2034">
        <ele>1360.88</ele>
        <time>2020-10-25T10:30:56Z</time>
      </trkpt>
      <trkpt lat="44.90497" lon="4.20331">
        <ele>1361.36</ele>
        <time>2020-10-25T10:31:01Z</time>
      </trkpt>
      <trkpt lat="44.90493" lon="4.20322">
        <ele>1361.84</ele>
        <time>2020-10-25T10:31:08Z</time>
      </trkpt>
      <trkpt lat="44.90493" lon="4.20317">
        <ele>1362.33</ele>
        <time>2020-10-25T10:31:12Z</time>
      </trkpt>
      <trkpt lat="44.90492" lon="4.20311">
        <ele>1362.33</ele>
        <time>2020-10-25T10:31:15Z</time>
      </trkpt>
      <trkpt lat="44.9049" lon="4.20298">
        <ele>1362.81</ele>
        <time>2020-10-25T10:31:24Z</time>
      </trkpt>
      <trkpt lat="44.90489" lon="4.20295">
        <ele>1362.81</ele>
        <time>2020-10-25T10:31:26Z</time>
      </trkpt>
      <trkpt lat="44.90485" lon="4.20285">
        <ele>1362.81</ele>
        <time>2020-10-25T10:31:32Z</time>
      </trkpt>
      <trkpt lat="44.90482" lon="4.20282">
        <ele>1362.33</ele>
        <time>2020-10-25T10:31:35Z</time>
      </trkpt>
      <trkpt lat="44.9048" lon="4.20278">
        <ele>1363.29</ele>
        <time>2020-10-25T10:31:39Z</time>
      </trkpt>
      <trkpt lat="44.90476" lon="4.20276">
        <ele>1363.29</ele>
        <time>2020-10-25T10:31:42Z</time>
      </trkpt>
      <trkpt lat="44.90474" lon="4.20274">
        <ele>1363.77</ele>
        <time>2020-10-25T10:31:45Z</time>
      </trkpt>
      <trkpt lat="44.90465" lon="4.20263">
        <ele>1364.73</ele>
        <time>2020-10-25T10:31:54Z</time>
      </trkpt>
      <trkpt lat="44.90461" lon="4.20253">
        <ele>1365.21</ele>
        <time>2020-10-25T10:32:05Z</time>
      </trkpt>
      <trkpt lat="44.90458" lon="4.20249">
        <ele>1366.17</ele>
        <time>2020-10-25T10:32:09Z</time>
      </trkpt>
      <trkpt lat="44.90455" lon="4.20244">
        <ele>1367.13</ele>
        <time>2020-10-25T10:32:13Z</time>
      </trkpt>
      <trkpt lat="44.90453" lon="4.20241">
        <ele>1365.69</ele>
        <time>2020-10-25T10:32:17Z</time>
      </trkpt>
      <trkpt lat="44.90451" lon="4.20235">
        <ele>1368.09</ele>
        <time>2020-10-25T10:32:22Z</time>
      </trkpt>
      <trkpt lat="44.90449" lon="4.20231">
        <ele>1367.13</ele>
        <time>2020-10-25T10:32:25Z</time>
      </trkpt>
      <trkpt lat="44.90447" lon="4.20226">
        <ele>1365.69</ele>
        <time>2020-10-25T10:32:29Z</time>
      </trkpt>
      <trkpt lat="44.90446" lon="4.20225">
        <ele>1365.69</ele>
        <time>2020-10-25T10:32:30Z</time>
      </trkpt>
      <trkpt lat="44.90446" lon="4.20222">
        <ele>1370.02</ele>
        <time>2020-10-25T10:32:32Z</time>
      </trkpt>
      <trkpt lat="44.90445" lon="4.20221">
        <ele>1370.02</ele>
        <time>2020-10-25T10:32:33Z</time>
      </trkpt>
      <trkpt lat="44.90445" lon="4.20216">
        <ele>1370.02</ele>
        <time>2020-10-25T10:32:37Z</time>
      </trkpt>
      <trkpt lat="44.90443" lon="4.20211">
        <ele>1371.46</ele>
        <time>2020-10-25T10:32:41Z</time>
      </trkpt>
      <trkpt lat="44.90439" lon="4.20197">
        <ele>1370.5</ele>
        <time>2020-10-25T10:32:52Z</time>
      </trkpt>
      <trkpt lat="44.9044" lon="4.20195">
        <ele>1370.98</ele>
        <time>2020-10-25T10:32:54Z</time>
      </trkpt>
      <trkpt lat="44.90436" lon="4.20186">
        <ele>1371.94</ele>
        <time>2020-10-25T10:33:02Z</time>
      </trkpt>
      <trkpt lat="44.90436" lon="4.20183">
        <ele>1371.94</ele>
        <time>2020-10-25T10:33:05Z</time>
      </trkpt>
      <trkpt lat="44.90435" lon="4.2018">
        <ele>1372.42</ele>
        <time>2020-10-25T10:33:07Z</time>
      </trkpt>
      <trkpt lat="44.90432" lon="4.20171">
        <ele>1372.42</ele>
        <time>2020-10-25T10:33:14Z</time>
      </trkpt>
      <trkpt lat="44.90431" lon="4.20169">
        <ele>1372.9</ele>
        <time>2020-10-25T10:33:16Z</time>
      </trkpt>
      <trkpt lat="44.90429" lon="4.20165">
        <ele>1373.38</ele>
        <time>2020-10-25T10:33:20Z</time>
      </trkpt>
      <trkpt lat="44.9043" lon="4.20162">
        <ele>1374.34</ele>
        <time>2020-10-25T10:33:22Z</time>
      </trkpt>
      <trkpt lat="44.9043" lon="4.20156">
        <ele>1374.82</ele>
        <time>2020-10-25T10:33:28Z</time>
      </trkpt>
      <trkpt lat="44.90432" lon="4.20154">
        <ele>1375.3</ele>
        <time>2020-10-25T10:33:30Z</time>
      </trkpt>
      <trkpt lat="44.90431" lon="4.20152">
        <ele>1374.82</ele>
        <time>2020-10-25T10:33:32Z</time>
      </trkpt>
      <trkpt lat="44.90431" lon="4.2014">
        <ele>1377.23</ele>
        <time>2020-10-25T10:33:40Z</time>
      </trkpt>
      <trkpt lat="44.90431" lon="4.20136">
        <ele>1377.71</ele>
        <time>2020-10-25T10:33:44Z</time>
      </trkpt>
      <trkpt lat="44.90432" lon="4.20134">
        <ele>1377.71</ele>
        <time>2020-10-25T10:33:47Z</time>
      </trkpt>
      <trkpt lat="44.90434" lon="4.20131">
        <ele>1377.71</ele>
        <time>2020-10-25T10:33:50Z</time>
      </trkpt>
      <trkpt lat="44.90433" lon="4.20129">
        <ele>1377.71</ele>
        <time>2020-10-25T10:33:52Z</time>
      </trkpt>
      <trkpt lat="44.90435" lon="4.20122">
        <ele>1379.15</ele>
        <time>2020-10-25T10:33:59Z</time>
      </trkpt>
      <trkpt lat="44.90436" lon="4.20114">
        <ele>1380.59</ele>
        <time>2020-10-25T10:34:12Z</time>
      </trkpt>
      <trkpt lat="44.90438" lon="4.20105">
        <ele>1383.47</ele>
        <time>2020-10-25T10:34:26Z</time>
      </trkpt>
      <trkpt lat="44.90443" lon="4.2009">
        <ele>1386.36</ele>
        <time>2020-10-25T10:34:40Z</time>
      </trkpt>
      <trkpt lat="44.90449" lon="4.20082">
        <ele>1386.84</ele>
        <time>2020-10-25T10:34:52Z</time>
      </trkpt>
      <trkpt lat="44.90452" lon="4.20072">
        <ele>1389.24</ele>
        <time>2020-10-25T10:35:07Z</time>
      </trkpt>
      <trkpt lat="44.90449" lon="4.20063">
        <ele>1392.13</ele>
        <time>2020-10-25T10:35:22Z</time>
      </trkpt>
      <trkpt lat="44.90448" lon="4.20057">
        <ele>1392.61</ele>
        <time>2020-10-25T10:35:36Z</time>
      </trkpt>
      <trkpt lat="44.90447" lon="4.20055">
        <ele>1394.05</ele>
        <time>2020-10-25T10:35:39Z</time>
      </trkpt>
      <trkpt lat="44.90447" lon="4.20052">
        <ele>1395.49</ele>
        <time>2020-10-25T10:35:51Z</time>
      </trkpt>
      <trkpt lat="44.90444" lon="4.20042">
        <ele>1396.45</ele>
        <time>2020-10-25T10:36:00Z</time>
      </trkpt>
      <trkpt lat="44.90438" lon="4.20037">
        <ele>1396.45</ele>
        <time>2020-10-25T10:36:06Z</time>
      </trkpt>
      <trkpt lat="44.90431" lon="4.20032">
        <ele>1398.86</ele>
        <time>2020-10-25T10:36:20Z</time>
      </trkpt>
      <trkpt lat="44.9043" lon="4.20031">
        <ele>1401.26</ele>
        <time>2020-10-25T10:36:38Z</time>
      </trkpt>
      <trkpt lat="44.90429" lon="4.2003">
        <ele>1401.26</ele>
        <time>2020-10-25T10:36:40Z</time>
      </trkpt>
      <trkpt lat="44.9043" lon="4.2003">
        <ele>1401.26</ele>
        <time>2020-10-25T10:36:42Z</time>
      </trkpt>
      <trkpt lat="44.90432" lon="4.20021">
        <ele>1401.74</ele>
        <time>2020-10-25T10:36:54Z</time>
      </trkpt>
      <trkpt lat="44.9043" lon="4.2002">
        <ele>1403.18</ele>
        <time>2020-10-25T10:37:12Z</time>
      </trkpt>
      <trkpt lat="44.90439" lon="4.20009">
        <ele>1404.14</ele>
        <time>2020-10-25T10:37:25Z</time>
      </trkpt>
      <trkpt lat="44.90442" lon="4.20006">
        <ele>1404.62</ele>
        <time>2020-10-25T10:37:28Z</time>
      </trkpt>
      <trkpt lat="44.90448" lon="4.20003">
        <ele>1405.1</ele>
        <time>2020-10-25T10:37:41Z</time>
      </trkpt>
      <trkpt lat="44.90456" lon="4.19999">
        <ele>1406.55</ele>
        <time>2020-10-25T10:37:55Z</time>
      </trkpt>
      <trkpt lat="44.90463" lon="4.19996">
        <ele>1407.51</ele>
        <time>2020-10-25T10:38:04Z</time>
      </trkpt>
      <trkpt lat="44.90483" lon="4.19984">
        <ele>1409.43</ele>
        <time>2020-10-25T10:38:19Z</time>
      </trkpt>
      <trkpt lat="44.90489" lon="4.19981">
        <ele>1410.87</ele>
        <time>2020-10-25T10:38:30Z</time>
      </trkpt>
      <trkpt lat="44.90494" lon="4.19972">
        <ele>1411.83</ele>
        <time>2020-10-25T10:38:41Z</time>
      </trkpt>
      <trkpt lat="44.90497" lon="4.19966">
        <ele>1413.28</ele>
        <time>2020-10-25T10:38:56Z</time>
      </trkpt>
      <trkpt lat="44.90503" lon="4.19956">
        <ele>1414.72</ele>
        <time>2020-10-25T10:39:10Z</time>
      </trkpt>
      <trkpt lat="44.90506" lon="4.1995">
        <ele>1416.64</ele>
        <time>2020-10-25T10:39:26Z</time>
      </trkpt>
      <trkpt lat="44.90507" lon="4.19948">
        <ele>1417.12</ele>
        <time>2020-10-25T10:39:36Z</time>
      </trkpt>
      <trkpt lat="44.90509" lon="4.19938">
        <ele>1417.6</ele>
        <time>2020-10-25T10:39:52Z</time>
      </trkpt>
      <trkpt lat="44.9051" lon="4.19936">
        <ele>1417.12</ele>
        <time>2020-10-25T10:40:02Z</time>
      </trkpt>
      <trkpt lat="44.90513" lon="4.19931">
        <ele>1413.28</ele>
        <time>2020-10-25T10:40:09Z</time>
      </trkpt>
      <trkpt lat="44.90513" lon="4.19932">
        <ele>1424.33</ele>
        <time>2020-10-25T10:40:26Z</time>
      </trkpt>
      <trkpt lat="44.90512" lon="4.19932">
        <ele>1419.04</ele>
        <time>2020-10-25T10:40:29Z</time>
      </trkpt>
      <trkpt lat="44.90511" lon="4.19923">
        <ele>1415.68</ele>
        <time>2020-10-25T11:07:28Z</time>
      </trkpt>
      <trkpt lat="44.90511" lon="4.19922">
        <ele>1415.68</ele>
        <time>2020-10-25T11:07:29Z</time>
      </trkpt>
      <trkpt lat="44.90511" lon="4.19941">
        <ele>1419.04</ele>
        <time>2020-10-25T11:07:55Z</time>
      </trkpt>
      <trkpt lat="44.9051" lon="4.19942">
        <ele>1419.52</ele>
        <time>2020-10-25T11:07:57Z</time>
      </trkpt>
      <trkpt lat="44.90507" lon="4.19938">
        <ele>1423.37</ele>
        <time>2020-10-25T11:08:02Z</time>
      </trkpt>
      <trkpt lat="44.90506" lon="4.19937">
        <ele>1423.85</ele>
        <time>2020-10-25T11:08:04Z</time>
      </trkpt>
      <trkpt lat="44.90505" lon="4.19939">
        <ele>1427.21</ele>
        <time>2020-10-25T11:08:10Z</time>
      </trkpt>
      <trkpt lat="44.90504" lon="4.19939">
        <ele>1427.21</ele>
        <time>2020-10-25T11:08:11Z</time>
      </trkpt>
      <trkpt lat="44.90499" lon="4.19941">
        <ele>1429.14</ele>
        <time>2020-10-25T11:08:19Z</time>
      </trkpt>
      <trkpt lat="44.90488" lon="4.19942">
        <ele>1431.06</ele>
        <time>2020-10-25T11:08:33Z</time>
      </trkpt>
      <trkpt lat="44.9048" lon="4.19934">
        <ele>1432.5</ele>
        <time>2020-10-25T11:08:47Z</time>
      </trkpt>
      <trkpt lat="44.90473" lon="4.19928">
        <ele>1435.87</ele>
        <time>2020-10-25T11:08:56Z</time>
      </trkpt>
      <trkpt lat="44.90464" lon="4.19919">
        <ele>1435.87</ele>
        <time>2020-10-25T11:09:11Z</time>
      </trkpt>
      <trkpt lat="44.90454" lon="4.19913">
        <ele>1438.27</ele>
        <time>2020-10-25T11:09:22Z</time>
      </trkpt>
      <trkpt lat="44.90441" lon="4.19909">
        <ele>1439.23</ele>
        <time>2020-10-25T11:09:35Z</time>
      </trkpt>
      <trkpt lat="44.90433" lon="4.19897">
        <ele>1440.67</ele>
        <time>2020-10-25T11:09:52Z</time>
      </trkpt>
      <trkpt lat="44.90428" lon="4.19891">
        <ele>1441.63</ele>
        <time>2020-10-25T11:10:04Z</time>
      </trkpt>
      <trkpt lat="44.9042" lon="4.19878">
        <ele>1443.56</ele>
        <time>2020-10-25T11:10:19Z</time>
      </trkpt>
      <trkpt lat="44.90412" lon="4.19873">
        <ele>1444.52</ele>
        <time>2020-10-25T11:10:27Z</time>
      </trkpt>
      <trkpt lat="44.90413" lon="4.19868">
        <ele>1445.48</ele>
        <time>2020-10-25T11:10:31Z</time>
      </trkpt>
      <trkpt lat="44.90417" lon="4.19858">
        <ele>1446.92</ele>
        <time>2020-10-25T11:10:50Z</time>
      </trkpt>
      <trkpt lat="44.9042" lon="4.19857">
        <ele>1450.29</ele>
        <time>2020-10-25T11:11:06Z</time>
      </trkpt>
      <trkpt lat="44.90425" lon="4.19853">
        <ele>1451.25</ele>
        <time>2020-10-25T11:11:23Z</time>
      </trkpt>
      <trkpt lat="44.90432" lon="4.19852">
        <ele>1451.25</ele>
        <time>2020-10-25T11:11:33Z</time>
      </trkpt>
      <trkpt lat="44.90446" lon="4.19846">
        <ele>1453.17</ele>
        <time>2020-10-25T11:11:49Z</time>
      </trkpt>
      <trkpt lat="44.90452" lon="4.19843">
        <ele>1453.65</ele>
        <time>2020-10-25T11:11:55Z</time>
      </trkpt>
      <trkpt lat="44.90465" lon="4.1982">
        <ele>1455.09</ele>
        <time>2020-10-25T11:12:10Z</time>
      </trkpt>
      <trkpt lat="44.90459" lon="4.19806">
        <ele>1457.02</ele>
        <time>2020-10-25T11:12:24Z</time>
      </trkpt>
      <trkpt lat="44.90457" lon="4.19793">
        <ele>1459.42</ele>
        <time>2020-10-25T11:12:38Z</time>
      </trkpt>
      <trkpt lat="44.90447" lon="4.19785">
        <ele>1460.86</ele>
        <time>2020-10-25T11:12:54Z</time>
      </trkpt>
      <trkpt lat="44.90446" lon="4.19785">
        <ele>1460.38</ele>
        <time>2020-10-25T11:12:55Z</time>
      </trkpt>
      <trkpt lat="44.90438" lon="4.19781">
        <ele>1462.78</ele>
        <time>2020-10-25T11:13:11Z</time>
      </trkpt>
      <trkpt lat="44.90431" lon="4.19782">
        <ele>1463.26</ele>
        <time>2020-10-25T11:13:16Z</time>
      </trkpt>
      <trkpt lat="44.90413" lon="4.1978">
        <ele>1464.71</ele>
        <time>2020-10-25T11:13:33Z</time>
      </trkpt>
      <trkpt lat="44.90399" lon="4.1978">
        <ele>1466.15</ele>
        <time>2020-10-25T11:13:51Z</time>
      </trkpt>
      <trkpt lat="44.90393" lon="4.19781">
        <ele>1468.55</ele>
        <time>2020-10-25T11:13:57Z</time>
      </trkpt>
      <trkpt lat="44.90381" lon="4.19783">
        <ele>1468.55</ele>
        <time>2020-10-25T11:14:11Z</time>
      </trkpt>
      <trkpt lat="44.90368" lon="4.19776">
        <ele>1470.95</ele>
        <time>2020-10-25T11:14:27Z</time>
      </trkpt>
      <trkpt lat="44.90368" lon="4.19771">
        <ele>1470.47</ele>
        <time>2020-10-25T11:14:30Z</time>
      </trkpt>
      <trkpt lat="44.90366" lon="4.19769">
        <ele>1470.95</ele>
        <time>2020-10-25T11:14:32Z</time>
      </trkpt>
      <trkpt lat="44.90363" lon="4.19765">
        <ele>1471.92</ele>
        <time>2020-10-25T11:14:37Z</time>
      </trkpt>
      <trkpt lat="44.9037" lon="4.19757">
        <ele>1473.84</ele>
        <time>2020-10-25T11:14:49Z</time>
      </trkpt>
      <trkpt lat="44.90377" lon="4.19746">
        <ele>1473.84</ele>
        <time>2020-10-25T11:15:03Z</time>
      </trkpt>
      <trkpt lat="44.90378" lon="4.19746">
        <ele>1474.32</ele>
        <time>2020-10-25T11:15:10Z</time>
      </trkpt>
      <trkpt lat="44.90385" lon="4.19737">
        <ele>1475.76</ele>
        <time>2020-10-25T11:15:25Z</time>
      </trkpt>
      <trkpt lat="44.90395" lon="4.19715">
        <ele>1477.68</ele>
        <time>2020-10-25T11:15:41Z</time>
      </trkpt>
      <trkpt lat="44.90395" lon="4.19708">
        <ele>1478.16</ele>
        <time>2020-10-25T11:15:48Z</time>
      </trkpt>
      <trkpt lat="44.90396" lon="4.197">
        <ele>1478.65</ele>
        <time>2020-10-25T11:15:53Z</time>
      </trkpt>
      <trkpt lat="44.90397" lon="4.19693">
        <ele>1480.09</ele>
        <time>2020-10-25T11:15:57Z</time>
      </trkpt>
      <trkpt lat="44.90403" lon="4.19669">
        <ele>1481.53</ele>
        <time>2020-10-25T11:16:11Z</time>
      </trkpt>
      <trkpt lat="44.90391" lon="4.19666">
        <ele>1483.45</ele>
        <time>2020-10-25T11:16:22Z</time>
      </trkpt>
      <trkpt lat="44.90389" lon="4.19665">
        <ele>1484.41</ele>
        <time>2020-10-25T11:16:24Z</time>
      </trkpt>
      <trkpt lat="44.90377" lon="4.19658">
        <ele>1484.89</ele>
        <time>2020-10-25T11:16:38Z</time>
      </trkpt>
      <trkpt lat="44.90375" lon="4.19653">
        <ele>1486.34</ele>
        <time>2020-10-25T11:16:42Z</time>
      </trkpt>
      <trkpt lat="44.90376" lon="4.19639">
        <ele>1486.34</ele>
        <time>2020-10-25T11:16:56Z</time>
      </trkpt>
      <trkpt lat="44.90385" lon="4.19626">
        <ele>1482.97</ele>
        <time>2020-10-25T11:17:08Z</time>
      </trkpt>
      <trkpt lat="44.90386" lon="4.19624">
        <ele>1486.34</ele>
        <time>2020-10-25T11:17:09Z</time>
      </trkpt>
      <trkpt lat="44.90388" lon="4.1962">
        <ele>1489.7</ele>
        <time>2020-10-25T11:17:14Z</time>
      </trkpt>
      <trkpt lat="44.90388" lon="4.19619">
        <ele>1485.85</ele>
        <time>2020-10-25T11:17:18Z</time>
      </trkpt>
      <trkpt lat="44.90389" lon="4.19619">
        <ele>1490.18</ele>
        <time>2020-10-25T11:17:34Z</time>
      </trkpt>
      <trkpt lat="44.90388" lon="4.1962">
        <ele>1486.82</ele>
        <time>2020-10-25T11:17:38Z</time>
      </trkpt>
      <trkpt lat="44.90391" lon="4.19612">
        <ele>1485.85</ele>
        <time>2020-10-25T11:17:45Z</time>
      </trkpt>
      <trkpt lat="44.90394" lon="4.19599">
        <ele>1485.37</ele>
        <time>2020-10-25T11:17:54Z</time>
      </trkpt>
      <trkpt lat="44.90398" lon="4.19569">
        <ele>1484.89</ele>
        <time>2020-10-25T11:18:07Z</time>
      </trkpt>
      <trkpt lat="44.90397" lon="4.19554">
        <ele>1484.89</ele>
        <time>2020-10-25T11:18:17Z</time>
      </trkpt>
      <trkpt lat="44.90396" lon="4.19542">
        <ele>1485.85</ele>
        <time>2020-10-25T11:18:26Z</time>
      </trkpt>
      <trkpt lat="44.90396" lon="4.19536">
        <ele>1485.37</ele>
        <time>2020-10-25T11:18:29Z</time>
      </trkpt>
      <trkpt lat="44.90395" lon="4.19528">
        <ele>1484.89</ele>
        <time>2020-10-25T11:18:34Z</time>
      </trkpt>
      <trkpt lat="44.90397" lon="4.19508">
        <ele>1482.97</ele>
        <time>2020-10-25T11:18:49Z</time>
      </trkpt>
      <trkpt lat="44.90397" lon="4.19505">
        <ele>1482.49</ele>
        <time>2020-10-25T11:18:54Z</time>
      </trkpt>
      <trkpt lat="44.904" lon="4.19488">
        <ele>1482.97</ele>
        <time>2020-10-25T11:19:12Z</time>
      </trkpt>
      <trkpt lat="44.90401" lon="4.19485">
        <ele>1483.45</ele>
        <time>2020-10-25T11:19:32Z</time>
      </trkpt>
      <trkpt lat="44.90401" lon="4.19477">
        <ele>1482.97</ele>
        <time>2020-10-25T11:19:36Z</time>
      </trkpt>
      <trkpt lat="44.90402" lon="4.19457">
        <ele>1483.45</ele>
        <time>2020-10-25T11:19:42Z</time>
      </trkpt>
      <trkpt lat="44.90402" lon="4.19447">
        <ele>1483.45</ele>
        <time>2020-10-25T11:19:45Z</time>
      </trkpt>
      <trkpt lat="44.90398" lon="4.19428">
        <ele>1482.49</ele>
        <time>2020-10-25T11:19:56Z</time>
      </trkpt>
      <trkpt lat="44.90392" lon="4.19417">
        <ele>1482.01</ele>
        <time>2020-10-25T11:20:02Z</time>
      </trkpt>
      <trkpt lat="44.90392" lon="4.19412">
        <ele>1482.49</ele>
        <time>2020-10-25T11:20:04Z</time>
      </trkpt>
      <trkpt lat="44.9039" lon="4.19409">
        <ele>1482.97</ele>
        <time>2020-10-25T11:20:06Z</time>
      </trkpt>
      <trkpt lat="44.9039" lon="4.19406">
        <ele>1482.97</ele>
        <time>2020-10-25T11:20:08Z</time>
      </trkpt>
      <trkpt lat="44.90386" lon="4.19392">
        <ele>1482.49</ele>
        <time>2020-10-25T11:20:15Z</time>
      </trkpt>
      <trkpt lat="44.90384" lon="4.19387">
        <ele>1481.53</ele>
        <time>2020-10-25T11:20:17Z</time>
      </trkpt>
      <trkpt lat="44.90374" lon="4.19366">
        <ele>1480.57</ele>
        <time>2020-10-25T11:20:31Z</time>
      </trkpt>
      <trkpt lat="44.90374" lon="4.19363">
        <ele>1480.57</ele>
        <time>2020-10-25T11:20:33Z</time>
      </trkpt>
      <trkpt lat="44.9037" lon="4.19357">
        <ele>1480.57</ele>
        <time>2020-10-25T11:20:38Z</time>
      </trkpt>
      <trkpt lat="44.90361" lon="4.19349">
        <ele>1479.13</ele>
        <time>2020-10-25T11:20:46Z</time>
      </trkpt>
      <trkpt lat="44.90359" lon="4.19345">
        <ele>1478.16</ele>
        <time>2020-10-25T11:20:49Z</time>
      </trkpt>
      <trkpt lat="44.90356" lon="4.19342">
        <ele>1480.09</ele>
        <time>2020-10-25T11:20:52Z</time>
      </trkpt>
      <trkpt lat="44.90353" lon="4.1933">
        <ele>1478.16</ele>
        <time>2020-10-25T11:20:59Z</time>
      </trkpt>
      <trkpt lat="44.90346" lon="4.19312">
        <ele>1478.16</ele>
        <time>2020-10-25T11:21:10Z</time>
      </trkpt>
      <trkpt lat="44.90342" lon="4.19309">
        <ele>1478.16</ele>
        <time>2020-10-25T11:21:14Z</time>
      </trkpt>
      <trkpt lat="44.90337" lon="4.19307">
        <ele>1478.16</ele>
        <time>2020-10-25T11:21:18Z</time>
      </trkpt>
      <trkpt lat="44.90331" lon="4.19303">
        <ele>1477.2</ele>
        <time>2020-10-25T11:21:24Z</time>
      </trkpt>
      <trkpt lat="44.90328" lon="4.19294">
        <ele>1477.2</ele>
        <time>2020-10-25T11:21:30Z</time>
      </trkpt>
      <trkpt lat="44.90308" lon="4.19276">
        <ele>1477.2</ele>
        <time>2020-10-25T11:21:50Z</time>
      </trkpt>
      <trkpt lat="44.90307" lon="4.19275">
        <ele>1476.72</ele>
        <time>2020-10-25T11:21:51Z</time>
      </trkpt>
      <trkpt lat="44.90292" lon="4.19256">
        <ele>1475.76</ele>
        <time>2020-10-25T11:22:09Z</time>
      </trkpt>
      <trkpt lat="44.90281" lon="4.19232">
        <ele>1477.68</ele>
        <time>2020-10-25T11:22:26Z</time>
      </trkpt>
      <trkpt lat="44.90273" lon="4.1921">
        <ele>1479.13</ele>
        <time>2020-10-25T11:22:41Z</time>
      </trkpt>
      <trkpt lat="44.90271" lon="4.19206">
        <ele>1478.65</ele>
        <time>2020-10-25T11:22:44Z</time>
      </trkpt>
      <trkpt lat="44.90266" lon="4.19186">
        <ele>1480.09</ele>
        <time>2020-10-25T11:22:57Z</time>
      </trkpt>
      <trkpt lat="44.90264" lon="4.19179">
        <ele>1480.09</ele>
        <time>2020-10-25T11:23:02Z</time>
      </trkpt>
      <trkpt lat="44.90262" lon="4.19164">
        <ele>1480.09</ele>
        <time>2020-10-25T11:23:12Z</time>
      </trkpt>
      <trkpt lat="44.90259" lon="4.19156">
        <ele>1481.05</ele>
        <time>2020-10-25T11:23:18Z</time>
      </trkpt>
      <trkpt lat="44.90253" lon="4.19143">
        <ele>1482.49</ele>
        <time>2020-10-25T11:23:28Z</time>
      </trkpt>
      <trkpt lat="44.9025" lon="4.19139">
        <ele>1482.01</ele>
        <time>2020-10-25T11:23:34Z</time>
      </trkpt>
      <trkpt lat="44.90246" lon="4.19128">
        <ele>1482.97</ele>
        <time>2020-10-25T11:23:42Z</time>
      </trkpt>
      <trkpt lat="44.90237" lon="4.19112">
        <ele>1483.93</ele>
        <time>2020-10-25T11:23:57Z</time>
      </trkpt>
      <trkpt lat="44.90227" lon="4.19099">
        <ele>1485.37</ele>
        <time>2020-10-25T11:24:13Z</time>
      </trkpt>
      <trkpt lat="44.90215" lon="4.19085">
        <ele>1486.34</ele>
        <time>2020-10-25T11:24:29Z</time>
      </trkpt>
      <trkpt lat="44.90206" lon="4.19071">
        <ele>1486.82</ele>
        <time>2020-10-25T11:24:43Z</time>
      </trkpt>
      <trkpt lat="44.90201" lon="4.19059">
        <ele>1487.78</ele>
        <time>2020-10-25T11:24:53Z</time>
      </trkpt>
      <trkpt lat="44.90193" lon="4.19036">
        <ele>1489.7</ele>
        <time>2020-10-25T11:25:13Z</time>
      </trkpt>
      <trkpt lat="44.90191" lon="4.1903">
        <ele>1489.7</ele>
        <time>2020-10-25T11:25:18Z</time>
      </trkpt>
      <trkpt lat="44.90188" lon="4.19018">
        <ele>1488.26</ele>
        <time>2020-10-25T11:25:33Z</time>
      </trkpt>
      <trkpt lat="44.90187" lon="4.19018">
        <ele>1489.22</ele>
        <time>2020-10-25T11:25:37Z</time>
      </trkpt>
      <trkpt lat="44.90187" lon="4.19014">
        <ele>1490.18</ele>
        <time>2020-10-25T11:25:47Z</time>
      </trkpt>
      <trkpt lat="44.90185" lon="4.19005">
        <ele>1491.62</ele>
        <time>2020-10-25T11:25:55Z</time>
      </trkpt>
      <trkpt lat="44.90183" lon="4.18994">
        <ele>1494.03</ele>
        <time>2020-10-25T11:26:03Z</time>
      </trkpt>
      <trkpt lat="44.90179" lon="4.18971">
        <ele>1495.95</ele>
        <time>2020-10-25T11:26:20Z</time>
      </trkpt>
      <trkpt lat="44.90176" lon="4.1895">
        <ele>1496.43</ele>
        <time>2020-10-25T11:26:36Z</time>
      </trkpt>
      <trkpt lat="44.90174" lon="4.18944">
        <ele>1496.91</ele>
        <time>2020-10-25T11:26:40Z</time>
      </trkpt>
      <trkpt lat="44.90173" lon="4.18935">
        <ele>1497.39</ele>
        <time>2020-10-25T11:26:46Z</time>
      </trkpt>
      <trkpt lat="44.90169" lon="4.18903">
        <ele>1498.35</ele>
        <time>2020-10-25T11:27:05Z</time>
      </trkpt>
      <trkpt lat="44.90169" lon="4.18894">
        <ele>1499.31</ele>
        <time>2020-10-25T11:27:11Z</time>
      </trkpt>
      <trkpt lat="44.90168" lon="4.18883">
        <ele>1497.39</ele>
        <time>2020-10-25T11:27:18Z</time>
      </trkpt>
      <trkpt lat="44.90165" lon="4.18855">
        <ele>1497.87</ele>
        <time>2020-10-25T11:27:34Z</time>
      </trkpt>
      <trkpt lat="44.90159" lon="4.18831">
        <ele>1499.79</ele>
        <time>2020-10-25T11:27:50Z</time>
      </trkpt>
      <trkpt lat="44.90148" lon="4.18807">
        <ele>1500.76</ele>
        <time>2020-10-25T11:28:06Z</time>
      </trkpt>
      <trkpt lat="44.90133" lon="4.18787">
        <ele>1502.68</ele>
        <time>2020-10-25T11:28:24Z</time>
      </trkpt>
      <trkpt lat="44.90118" lon="4.18763">
        <ele>1500.27</ele>
        <time>2020-10-25T11:28:43Z</time>
      </trkpt>
      <trkpt lat="44.90104" lon="4.18741">
        <ele>1503.16</ele>
        <time>2020-10-25T11:29:01Z</time>
      </trkpt>
      <trkpt lat="44.901" lon="4.18734">
        <ele>1503.64</ele>
        <time>2020-10-25T11:29:10Z</time>
      </trkpt>
      <trkpt lat="44.90097" lon="4.18726">
        <ele>1504.6</ele>
        <time>2020-10-25T11:29:25Z</time>
      </trkpt>
      <trkpt lat="44.90096" lon="4.18725">
        <ele>1503.64</ele>
        <time>2020-10-25T11:29:48Z</time>
      </trkpt>
      <trkpt lat="44.90083" lon="4.18704">
        <ele>1503.16</ele>
        <time>2020-10-25T11:30:05Z</time>
      </trkpt>
      <trkpt lat="44.90071" lon="4.18684">
        <ele>1502.2</ele>
        <time>2020-10-25T11:30:23Z</time>
      </trkpt>
      <trkpt lat="44.90066" lon="4.18679">
        <ele>1501.24</ele>
        <time>2020-10-25T11:30:29Z</time>
      </trkpt>
      <trkpt lat="44.90053" lon="4.1866">
        <ele>1500.27</ele>
        <time>2020-10-25T11:30:46Z</time>
      </trkpt>
      <trkpt lat="44.9005" lon="4.18657">
        <ele>1500.27</ele>
        <time>2020-10-25T11:30:49Z</time>
      </trkpt>
      <trkpt lat="44.90044" lon="4.1865">
        <ele>1500.76</ele>
        <time>2020-10-25T11:30:57Z</time>
      </trkpt>
      <trkpt lat="44.90038" lon="4.18644">
        <ele>1501.24</ele>
        <time>2020-10-25T11:31:13Z</time>
      </trkpt>
      <trkpt lat="44.90037" lon="4.18643">
        <ele>1499.79</ele>
        <time>2020-10-25T11:31:38Z</time>
      </trkpt>
      <trkpt lat="44.90036" lon="4.18643">
        <ele>1499.31</ele>
        <time>2020-10-25T11:31:39Z</time>
      </trkpt>
      <trkpt lat="44.90033" lon="4.18642">
        <ele>1499.79</ele>
        <time>2020-10-25T11:31:42Z</time>
      </trkpt>
      <trkpt lat="44.90021" lon="4.18635">
        <ele>1501.72</ele>
        <time>2020-10-25T11:31:53Z</time>
      </trkpt>
      <trkpt lat="44.90004" lon="4.18619">
        <ele>1504.12</ele>
        <time>2020-10-25T11:32:12Z</time>
      </trkpt>
      <trkpt lat="44.8999" lon="4.18608">
        <ele>1506.52</ele>
        <time>2020-10-25T11:32:27Z</time>
      </trkpt>
      <trkpt lat="44.89972" lon="4.1859">
        <ele>1508.45</ele>
        <time>2020-10-25T11:32:44Z</time>
      </trkpt>
      <trkpt lat="44.89961" lon="4.18567">
        <ele>1509.41</ele>
        <time>2020-10-25T11:33:02Z</time>
      </trkpt>
      <trkpt lat="44.89957" lon="4.18558">
        <ele>1510.85</ele>
        <time>2020-10-25T11:33:12Z</time>
      </trkpt>
      <trkpt lat="44.89956" lon="4.18554">
        <ele>1510.85</ele>
        <time>2020-10-25T11:33:15Z</time>
      </trkpt>
      <trkpt lat="44.89957" lon="4.18551">
        <ele>1510.37</ele>
        <time>2020-10-25T11:33:17Z</time>
      </trkpt>
      <trkpt lat="44.89967" lon="4.18535">
        <ele>1510.85</ele>
        <time>2020-10-25T11:33:31Z</time>
      </trkpt>
      <trkpt lat="44.89971" lon="4.18525">
        <ele>1510.85</ele>
        <time>2020-10-25T11:33:44Z</time>
      </trkpt>
      <trkpt lat="44.89969" lon="4.18523">
        <ele>1511.33</ele>
        <time>2020-10-25T11:34:25Z</time>
      </trkpt>
      <trkpt lat="44.89969" lon="4.18524">
        <ele>1510.37</ele>
        <time>2020-10-25T11:34:52Z</time>
      </trkpt>
      <trkpt lat="44.89984" lon="4.18532">
        <ele>1511.81</ele>
        <time>2020-10-25T11:35:09Z</time>
      </trkpt>
      <trkpt lat="44.89998" lon="4.18528">
        <ele>1512.77</ele>
        <time>2020-10-25T11:35:24Z</time>
      </trkpt>
      <trkpt lat="44.9001" lon="4.18525">
        <ele>1513.25</ele>
        <time>2020-10-25T11:35:40Z</time>
      </trkpt>
      <trkpt lat="44.90019" lon="4.1852">
        <ele>1515.18</ele>
        <time>2020-10-25T11:35:55Z</time>
      </trkpt>
      <trkpt lat="44.90027" lon="4.18516">
        <ele>1516.14</ele>
        <time>2020-10-25T11:36:09Z</time>
      </trkpt>
      <trkpt lat="44.90043" lon="4.18507">
        <ele>1517.58</ele>
        <time>2020-10-25T11:36:26Z</time>
      </trkpt>
      <trkpt lat="44.90056" lon="4.18508">
        <ele>1519.02</ele>
        <time>2020-10-25T11:36:42Z</time>
      </trkpt>
      <trkpt lat="44.9006" lon="4.18513">
        <ele>1520.94</ele>
        <time>2020-10-25T11:36:56Z</time>
      </trkpt>
      <trkpt lat="44.90074" lon="4.18522">
        <ele>1520.94</ele>
        <time>2020-10-25T11:37:11Z</time>
      </trkpt>
      <trkpt lat="44.90088" lon="4.18529">
        <ele>1520.94</ele>
        <time>2020-10-25T11:37:27Z</time>
      </trkpt>
      <trkpt lat="44.90097" lon="4.1854">
        <ele>1522.39</ele>
        <time>2020-10-25T11:37:52Z</time>
      </trkpt>
      <trkpt lat="44.90107" lon="4.18544">
        <ele>1522.87</ele>
        <time>2020-10-25T11:37:59Z</time>
      </trkpt>
      <trkpt lat="44.90122" lon="4.18547">
        <ele>1524.31</ele>
        <time>2020-10-25T11:38:14Z</time>
      </trkpt>
      <trkpt lat="44.90125" lon="4.18548">
        <ele>1524.79</ele>
        <time>2020-10-25T11:38:44Z</time>
      </trkpt>
      <trkpt lat="44.90129" lon="4.1855">
        <ele>1524.31</ele>
        <time>2020-10-25T11:39:16Z</time>
      </trkpt>
      <trkpt lat="44.90135" lon="4.18552">
        <ele>1524.31</ele>
        <time>2020-10-25T11:39:22Z</time>
      </trkpt>
      <trkpt lat="44.90143" lon="4.18562">
        <ele>1523.83</ele>
        <time>2020-10-25T11:39:33Z</time>
      </trkpt>
      <trkpt lat="44.90155" lon="4.18577">
        <ele>1524.79</ele>
        <time>2020-10-25T11:39:47Z</time>
      </trkpt>
      <trkpt lat="44.90166" lon="4.18589">
        <ele>1525.75</ele>
        <time>2020-10-25T11:40:01Z</time>
      </trkpt>
      <trkpt lat="44.90171" lon="4.18594">
        <ele>1529.11</ele>
        <time>2020-10-25T11:40:13Z</time>
      </trkpt>
      <trkpt lat="44.90182" lon="4.18604">
        <ele>1528.15</ele>
        <time>2020-10-25T11:40:26Z</time>
      </trkpt>
      <trkpt lat="44.90192" lon="4.18609">
        <ele>1531.04</ele>
        <time>2020-10-25T11:40:40Z</time>
      </trkpt>
      <trkpt lat="44.90199" lon="4.18614">
        <ele>1532.96</ele>
        <time>2020-10-25T11:40:57Z</time>
      </trkpt>
      <trkpt lat="44.90207" lon="4.18601">
        <ele>1533.92</ele>
        <time>2020-10-25T11:41:12Z</time>
      </trkpt>
      <trkpt lat="44.9021" lon="4.18598">
        <ele>1533.92</ele>
        <time>2020-10-25T11:41:20Z</time>
      </trkpt>
      <trkpt lat="44.90218" lon="4.18577">
        <ele>1534.4</ele>
        <time>2020-10-25T11:41:35Z</time>
      </trkpt>
      <trkpt lat="44.90223" lon="4.1857">
        <ele>1534.88</ele>
        <time>2020-10-25T11:41:50Z</time>
      </trkpt>
      <trkpt lat="44.90225" lon="4.18568">
        <ele>1534.88</ele>
        <time>2020-10-25T11:41:55Z</time>
      </trkpt>
      <trkpt lat="44.90239" lon="4.18566">
        <ele>1536.32</ele>
        <time>2020-10-25T11:42:10Z</time>
      </trkpt>
      <trkpt lat="44.90249" lon="4.18579">
        <ele>1536.8</ele>
        <time>2020-10-25T11:42:27Z</time>
      </trkpt>
      <trkpt lat="44.90251" lon="4.18598">
        <ele>1539.21</ele>
        <time>2020-10-25T11:42:42Z</time>
      </trkpt>
      <trkpt lat="44.9026" lon="4.18609">
        <ele>1539.69</ele>
        <time>2020-10-25T11:43:00Z</time>
      </trkpt>
      <trkpt lat="44.90267" lon="4.18599">
        <ele>1540.65</ele>
        <time>2020-10-25T11:43:17Z</time>
      </trkpt>
      <trkpt lat="44.90271" lon="4.18596">
        <ele>1542.57</ele>
        <time>2020-10-25T11:43:30Z</time>
      </trkpt>
      <trkpt lat="44.90284" lon="4.18594">
        <ele>1542.57</ele>
        <time>2020-10-25T11:43:44Z</time>
      </trkpt>
      <trkpt lat="44.90294" lon="4.18595">
        <ele>1543.53</ele>
        <time>2020-10-25T11:43:53Z</time>
      </trkpt>
      <trkpt lat="44.9031" lon="4.18589">
        <ele>1544.98</ele>
        <time>2020-10-25T11:44:12Z</time>
      </trkpt>
      <trkpt lat="44.90315" lon="4.1859">
        <ele>1545.94</ele>
        <time>2020-10-25T11:44:25Z</time>
      </trkpt>
      <trkpt lat="44.90321" lon="4.18593">
        <ele>1548.34</ele>
        <time>2020-10-25T11:44:40Z</time>
      </trkpt>
      <trkpt lat="44.90323" lon="4.18601">
        <ele>1550.26</ele>
        <time>2020-10-25T11:44:58Z</time>
      </trkpt>
      <trkpt lat="44.9033" lon="4.18603">
        <ele>1551.22</ele>
        <time>2020-10-25T11:45:18Z</time>
      </trkpt>
      <trkpt lat="44.90332" lon="4.18605">
        <ele>1550.74</ele>
        <time>2020-10-25T11:45:48Z</time>
      </trkpt>
      <trkpt lat="44.90344" lon="4.18611">
        <ele>1552.19</ele>
        <time>2020-10-25T11:46:02Z</time>
      </trkpt>
      <trkpt lat="44.90355" lon="4.18607">
        <ele>1554.11</ele>
        <time>2020-10-25T11:46:15Z</time>
      </trkpt>
      <trkpt lat="44.90365" lon="4.186">
        <ele>1554.11</ele>
        <time>2020-10-25T11:46:29Z</time>
      </trkpt>
      <trkpt lat="44.90376" lon="4.18597">
        <ele>1554.11</ele>
        <time>2020-10-25T11:46:46Z</time>
      </trkpt>
      <trkpt lat="44.90394" lon="4.18589">
        <ele>1556.51</ele>
        <time>2020-10-25T11:47:03Z</time>
      </trkpt>
      <trkpt lat="44.90396" lon="4.18593">
        <ele>1558.92</ele>
        <time>2020-10-25T11:47:21Z</time>
      </trkpt>
      <trkpt lat="44.90395" lon="4.186">
        <ele>1558.92</ele>
        <time>2020-10-25T11:47:37Z</time>
      </trkpt>
      <trkpt lat="44.90387" lon="4.18626">
        <ele>1560.84</ele>
        <time>2020-10-25T11:47:52Z</time>
      </trkpt>
      <trkpt lat="44.90393" lon="4.18637">
        <ele>1562.28</ele>
        <time>2020-10-25T11:48:11Z</time>
      </trkpt>
      <trkpt lat="44.90402" lon="4.18631">
        <ele>1563.24</ele>
        <time>2020-10-25T11:48:24Z</time>
      </trkpt>
      <trkpt lat="44.90411" lon="4.18623">
        <ele>1564.68</ele>
        <time>2020-10-25T11:48:39Z</time>
      </trkpt>
      <trkpt lat="44.90423" lon="4.18621">
        <ele>1566.61</ele>
        <time>2020-10-25T11:48:58Z</time>
      </trkpt>
      <trkpt lat="44.90442" lon="4.18621">
        <ele>1568.05</ele>
        <time>2020-10-25T11:49:15Z</time>
      </trkpt>
      <trkpt lat="44.90447" lon="4.18627">
        <ele>1569.49</ele>
        <time>2020-10-25T11:49:34Z</time>
      </trkpt>
      <trkpt lat="44.9045" lon="4.18646">
        <ele>1571.41</ele>
        <time>2020-10-25T11:49:50Z</time>
      </trkpt>
      <trkpt lat="44.90457" lon="4.1867">
        <ele>1572.85</ele>
        <time>2020-10-25T11:50:05Z</time>
      </trkpt>
      <trkpt lat="44.90456" lon="4.18679">
        <ele>1572.85</ele>
        <time>2020-10-25T11:50:12Z</time>
      </trkpt>
      <trkpt lat="44.90458" lon="4.18691">
        <ele>1574.78</ele>
        <time>2020-10-25T11:50:28Z</time>
      </trkpt>
      <trkpt lat="44.90461" lon="4.18702">
        <ele>1575.74</ele>
        <time>2020-10-25T11:50:49Z</time>
      </trkpt>
      <trkpt lat="44.90465" lon="4.18715">
        <ele>1576.22</ele>
        <time>2020-10-25T11:51:05Z</time>
      </trkpt>
      <trkpt lat="44.90473" lon="4.18731">
        <ele>1578.62</ele>
        <time>2020-10-25T11:51:20Z</time>
      </trkpt>
      <trkpt lat="44.90476" lon="4.18737">
        <ele>1579.1</ele>
        <time>2020-10-25T11:51:25Z</time>
      </trkpt>
      <trkpt lat="44.90484" lon="4.18759">
        <ele>1580.54</ele>
        <time>2020-10-25T11:51:40Z</time>
      </trkpt>
      <trkpt lat="44.90486" lon="4.18778">
        <ele>1583.43</ele>
        <time>2020-10-25T11:51:54Z</time>
      </trkpt>
      <trkpt lat="44.90487" lon="4.18801">
        <ele>1584.39</ele>
        <time>2020-10-25T11:52:11Z</time>
      </trkpt>
      <trkpt lat="44.90494" lon="4.18812">
        <ele>1584.87</ele>
        <time>2020-10-25T11:52:27Z</time>
      </trkpt>
      <trkpt lat="44.90497" lon="4.18804">
        <ele>1584.39</ele>
        <time>2020-10-25T11:52:44Z</time>
      </trkpt>
      <trkpt lat="44.90507" lon="4.18788">
        <ele>1585.83</ele>
        <time>2020-10-25T11:53:00Z</time>
      </trkpt>
      <trkpt lat="44.90511" lon="4.18778">
        <ele>1589.2</ele>
        <time>2020-10-25T11:53:12Z</time>
      </trkpt>
      <trkpt lat="44.90513" lon="4.18767">
        <ele>1591.12</ele>
        <time>2020-10-25T11:53:27Z</time>
      </trkpt>
      <trkpt lat="44.90521" lon="4.18761">
        <ele>1593.04</ele>
        <time>2020-10-25T11:53:44Z</time>
      </trkpt>
      <trkpt lat="44.90526" lon="4.18758">
        <ele>1595.93</ele>
        <time>2020-10-25T11:54:00Z</time>
      </trkpt>
      <trkpt lat="44.90533" lon="4.18754">
        <ele>1598.33</ele>
        <time>2020-10-25T11:54:13Z</time>
      </trkpt>
      <trkpt lat="44.90542" lon="4.18751">
        <ele>1599.77</ele>
        <time>2020-10-25T11:54:27Z</time>
      </trkpt>
      <trkpt lat="44.90551" lon="4.1875">
        <ele>1602.17</ele>
        <time>2020-10-25T11:54:41Z</time>
      </trkpt>
      <trkpt lat="44.90558" lon="4.18745">
        <ele>1603.14</ele>
        <time>2020-10-25T11:54:56Z</time>
      </trkpt>
      <trkpt lat="44.90568" lon="4.18744">
        <ele>1603.62</ele>
        <time>2020-10-25T11:55:12Z</time>
      </trkpt>
      <trkpt lat="44.90579" lon="4.18736">
        <ele>1606.02</ele>
        <time>2020-10-25T11:55:28Z</time>
      </trkpt>
      <trkpt lat="44.90591" lon="4.18735">
        <ele>1608.42</ele>
        <time>2020-10-25T11:55:42Z</time>
      </trkpt>
      <trkpt lat="44.90603" lon="4.18733">
        <ele>1610.35</ele>
        <time>2020-10-25T11:55:58Z</time>
      </trkpt>
      <trkpt lat="44.90615" lon="4.18732">
        <ele>1611.31</ele>
        <time>2020-10-25T11:56:14Z</time>
      </trkpt>
      <trkpt lat="44.90616" lon="4.18731">
        <ele>1611.31</ele>
        <time>2020-10-25T11:56:16Z</time>
      </trkpt>
      <trkpt lat="44.90631" lon="4.18737">
        <ele>1614.67</ele>
        <time>2020-10-25T11:56:32Z</time>
      </trkpt>
      <trkpt lat="44.90645" lon="4.18739">
        <ele>1615.63</ele>
        <time>2020-10-25T11:56:49Z</time>
      </trkpt>
      <trkpt lat="44.90652" lon="4.18742">
        <ele>1617.07</ele>
        <time>2020-10-25T11:57:05Z</time>
      </trkpt>
      <trkpt lat="44.90654" lon="4.18742">
        <ele>1617.07</ele>
        <time>2020-10-25T11:57:07Z</time>
      </trkpt>
      <trkpt lat="44.90661" lon="4.1874">
        <ele>1617.56</ele>
        <time>2020-10-25T11:57:11Z</time>
      </trkpt>
      <trkpt lat="44.90686" lon="4.18739">
        <ele>1618.04</ele>
        <time>2020-10-25T11:57:27Z</time>
      </trkpt>
      <trkpt lat="44.90694" lon="4.18733">
        <ele>1618.52</ele>
        <time>2020-10-25T11:57:41Z</time>
      </trkpt>
      <trkpt lat="44.90698" lon="4.18732">
        <ele>1619.96</ele>
        <time>2020-10-25T11:57:44Z</time>
      </trkpt>
      <trkpt lat="44.90704" lon="4.18731">
        <ele>1621.4</ele>
        <time>2020-10-25T11:57:52Z</time>
      </trkpt>
      <trkpt lat="44.90709" lon="4.18731">
        <ele>1621.4</ele>
        <time>2020-10-25T11:57:56Z</time>
      </trkpt>
      <trkpt lat="44.90713" lon="4.18734">
        <ele>1621.88</ele>
        <time>2020-10-25T11:58:00Z</time>
      </trkpt>
      <trkpt lat="44.90727" lon="4.18743">
        <ele>1623.32</ele>
        <time>2020-10-25T11:58:14Z</time>
      </trkpt>
      <trkpt lat="44.90737" lon="4.18746">
        <ele>1623.32</ele>
        <time>2020-10-25T11:58:28Z</time>
      </trkpt>
      <trkpt lat="44.90744" lon="4.18745">
        <ele>1626.21</ele>
        <time>2020-10-25T11:58:44Z</time>
      </trkpt>
      <trkpt lat="44.90759" lon="4.1875">
        <ele>1626.69</ele>
        <time>2020-10-25T11:58:58Z</time>
      </trkpt>
      <trkpt lat="44.90774" lon="4.18752">
        <ele>1628.61</ele>
        <time>2020-10-25T11:59:15Z</time>
      </trkpt>
      <trkpt lat="44.90784" lon="4.18755">
        <ele>1629.09</ele>
        <time>2020-10-25T11:59:25Z</time>
      </trkpt>
      <trkpt lat="44.90792" lon="4.18762">
        <ele>1631.01</ele>
        <time>2020-10-25T11:59:37Z</time>
      </trkpt>
      <trkpt lat="44.908" lon="4.18763">
        <ele>1632.46</ele>
        <time>2020-10-25T11:59:50Z</time>
      </trkpt>
      <trkpt lat="44.90807" lon="4.18764">
        <ele>1634.86</ele>
        <time>2020-10-25T12:00:04Z</time>
      </trkpt>
      <trkpt lat="44.90813" lon="4.18772">
        <ele>1637.26</ele>
        <time>2020-10-25T12:00:22Z</time>
      </trkpt>
      <trkpt lat="44.90815" lon="4.18771">
        <ele>1636.78</ele>
        <time>2020-10-25T12:00:28Z</time>
      </trkpt>
      <trkpt lat="44.90828" lon="4.18775">
        <ele>1638.22</ele>
        <time>2020-10-25T12:00:41Z</time>
      </trkpt>
      <trkpt lat="44.90831" lon="4.18775">
        <ele>1639.67</ele>
        <time>2020-10-25T12:00:44Z</time>
      </trkpt>
      <trkpt lat="44.90837" lon="4.1878">
        <ele>1639.67</ele>
        <time>2020-10-25T12:01:01Z</time>
      </trkpt>
      <trkpt lat="44.90845" lon="4.18787">
        <ele>1642.55</ele>
        <time>2020-10-25T12:01:13Z</time>
      </trkpt>
      <trkpt lat="44.90846" lon="4.18787">
        <ele>1642.07</ele>
        <time>2020-10-25T12:01:14Z</time>
      </trkpt>
      <trkpt lat="44.9086" lon="4.18796">
        <ele>1642.07</ele>
        <time>2020-10-25T12:01:29Z</time>
      </trkpt>
      <trkpt lat="44.90868" lon="4.18801">
        <ele>1642.55</ele>
        <time>2020-10-25T12:01:44Z</time>
      </trkpt>
      <trkpt lat="44.90871" lon="4.188">
        <ele>1642.55</ele>
        <time>2020-10-25T12:01:47Z</time>
      </trkpt>
      <trkpt lat="44.90888" lon="4.18801">
        <ele>1642.07</ele>
        <time>2020-10-25T12:02:04Z</time>
      </trkpt>
      <trkpt lat="44.90894" lon="4.18806">
        <ele>1643.99</ele>
        <time>2020-10-25T12:02:11Z</time>
      </trkpt>
      <trkpt lat="44.90897" lon="4.18807">
        <ele>1644.47</ele>
        <time>2020-10-25T12:02:14Z</time>
      </trkpt>
      <trkpt lat="44.90911" lon="4.18813">
        <ele>1645.91</ele>
        <time>2020-10-25T12:02:29Z</time>
      </trkpt>
      <trkpt lat="44.9092" lon="4.18817">
        <ele>1646.88</ele>
        <time>2020-10-25T12:02:42Z</time>
      </trkpt>
      <trkpt lat="44.90932" lon="4.1881">
        <ele>1646.88</ele>
        <time>2020-10-25T12:02:54Z</time>
      </trkpt>
      <trkpt lat="44.90944" lon="4.18804">
        <ele>1647.84</ele>
        <time>2020-10-25T12:03:11Z</time>
      </trkpt>
      <trkpt lat="44.90958" lon="4.188">
        <ele>1648.8</ele>
        <time>2020-10-25T12:03:24Z</time>
      </trkpt>
      <trkpt lat="44.90964" lon="4.18799">
        <ele>1648.8</ele>
        <time>2020-10-25T12:03:30Z</time>
      </trkpt>
      <trkpt lat="44.90978" lon="4.18784">
        <ele>1648.32</ele>
        <time>2020-10-25T12:03:47Z</time>
      </trkpt>
      <trkpt lat="44.90991" lon="4.18778">
        <ele>1648.8</ele>
        <time>2020-10-25T12:03:57Z</time>
      </trkpt>
      <trkpt lat="44.90995" lon="4.18778">
        <ele>1649.28</ele>
        <time>2020-10-25T12:04:00Z</time>
      </trkpt>
      <trkpt lat="44.90998" lon="4.18779">
        <ele>1649.28</ele>
        <time>2020-10-25T12:04:03Z</time>
      </trkpt>
      <trkpt lat="44.91" lon="4.18777">
        <ele>1649.76</ele>
        <time>2020-10-25T12:04:05Z</time>
      </trkpt>
      <trkpt lat="44.91009" lon="4.18772">
        <ele>1650.72</ele>
        <time>2020-10-25T12:04:20Z</time>
      </trkpt>
      <trkpt lat="44.91013" lon="4.18766">
        <ele>1650.72</ele>
        <time>2020-10-25T12:04:26Z</time>
      </trkpt>
      <trkpt lat="44.91025" lon="4.18766">
        <ele>1652.64</ele>
        <time>2020-10-25T12:04:43Z</time>
      </trkpt>
      <trkpt lat="44.91029" lon="4.18769">
        <ele>1653.12</ele>
        <time>2020-10-25T12:04:48Z</time>
      </trkpt>
      <trkpt lat="44.91043" lon="4.18772">
        <ele>1654.09</ele>
        <time>2020-10-25T12:05:03Z</time>
      </trkpt>
      <trkpt lat="44.91053" lon="4.18779">
        <ele>1656.01</ele>
        <time>2020-10-25T12:05:18Z</time>
      </trkpt>
      <trkpt lat="44.91067" lon="4.1878">
        <ele>1658.41</ele>
        <time>2020-10-25T12:05:33Z</time>
      </trkpt>
      <trkpt lat="44.91074" lon="4.18793">
        <ele>1659.37</ele>
        <time>2020-10-25T12:05:46Z</time>
      </trkpt>
      <trkpt lat="44.91079" lon="4.18805">
        <ele>1661.3</ele>
        <time>2020-10-25T12:06:00Z</time>
      </trkpt>
      <trkpt lat="44.91089" lon="4.18814">
        <ele>1663.22</ele>
        <time>2020-10-25T12:06:15Z</time>
      </trkpt>
      <trkpt lat="44.911" lon="4.18821">
        <ele>1664.18</ele>
        <time>2020-10-25T12:06:28Z</time>
      </trkpt>
      <trkpt lat="44.91109" lon="4.18826">
        <ele>1665.14</ele>
        <time>2020-10-25T12:06:41Z</time>
      </trkpt>
      <trkpt lat="44.91117" lon="4.1883">
        <ele>1667.06</ele>
        <time>2020-10-25T12:06:55Z</time>
      </trkpt>
      <trkpt lat="44.91124" lon="4.18836">
        <ele>1667.54</ele>
        <time>2020-10-25T12:07:07Z</time>
      </trkpt>
      <trkpt lat="44.91129" lon="4.18839">
        <ele>1668.99</ele>
        <time>2020-10-25T12:07:16Z</time>
      </trkpt>
      <trkpt lat="44.91137" lon="4.18838">
        <ele>1669.95</ele>
        <time>2020-10-25T12:07:29Z</time>
      </trkpt>
      <trkpt lat="44.91144" lon="4.18837">
        <ele>1668.99</ele>
        <time>2020-10-25T12:07:44Z</time>
      </trkpt>
      <trkpt lat="44.91145" lon="4.18837">
        <ele>1669.95</ele>
        <time>2020-10-25T12:07:46Z</time>
      </trkpt>
      <trkpt lat="44.9115" lon="4.18837">
        <ele>1668.51</ele>
        <time>2020-10-25T12:08:02Z</time>
      </trkpt>
      <trkpt lat="44.91158" lon="4.18837">
        <ele>1672.35</ele>
        <time>2020-10-25T12:08:30Z</time>
      </trkpt>
      <trkpt lat="44.91159" lon="4.18837">
        <ele>1673.31</ele>
        <time>2020-10-25T12:08:32Z</time>
      </trkpt>
      <trkpt lat="44.91165" lon="4.18842">
        <ele>1673.31</ele>
        <time>2020-10-25T12:08:47Z</time>
      </trkpt>
      <trkpt lat="44.91166" lon="4.18858">
        <ele>1675.72</ele>
        <time>2020-10-25T12:09:04Z</time>
      </trkpt>
      <trkpt lat="44.91166" lon="4.18859">
        <ele>1677.64</ele>
        <time>2020-10-25T12:09:06Z</time>
      </trkpt>
      <trkpt lat="44.91165" lon="4.18871">
        <ele>1679.08</ele>
        <time>2020-10-25T12:09:22Z</time>
      </trkpt>
      <trkpt lat="44.91164" lon="4.18872">
        <ele>1675.23</ele>
        <time>2020-10-25T12:09:24Z</time>
      </trkpt>
      <trkpt lat="44.91161" lon="4.18875">
        <ele>1681.48</ele>
        <time>2020-10-25T12:09:33Z</time>
      </trkpt>
      <trkpt lat="44.91161" lon="4.18876">
        <ele>1681</ele>
        <time>2020-10-25T12:09:34Z</time>
      </trkpt>
      <trkpt lat="44.9116" lon="4.18881">
        <ele>1674.27</ele>
        <time>2020-10-25T12:09:40Z</time>
      </trkpt>
      <trkpt lat="44.91159" lon="4.1888">
        <ele>1676.68</ele>
        <time>2020-10-25T12:09:41Z</time>
      </trkpt>
      <trkpt lat="44.9116" lon="4.18887">
        <ele>1681.48</ele>
        <time>2020-10-25T12:09:54Z</time>
      </trkpt>
      <trkpt lat="44.91157" lon="4.1889">
        <ele>1682.93</ele>
        <time>2020-10-25T12:10:02Z</time>
      </trkpt>
      <trkpt lat="44.91155" lon="4.18901">
        <ele>1682.93</ele>
        <time>2020-10-25T12:10:18Z</time>
      </trkpt>
      <trkpt lat="44.91162" lon="4.18907">
        <ele>1684.85</ele>
        <time>2020-10-25T12:10:32Z</time>
      </trkpt>
      <trkpt lat="44.91171" lon="4.18908">
        <ele>1687.25</ele>
        <time>2020-10-25T12:10:47Z</time>
      </trkpt>
      <trkpt lat="44.91177" lon="4.18912">
        <ele>1689.17</ele>
        <time>2020-10-25T12:11:02Z</time>
      </trkpt>
      <trkpt lat="44.91185" lon="4.18913">
        <ele>1691.1</ele>
        <time>2020-10-25T12:11:16Z</time>
      </trkpt>
      <trkpt lat="44.91193" lon="4.18921">
        <ele>1692.54</ele>
        <time>2020-10-25T12:11:31Z</time>
      </trkpt>
      <trkpt lat="44.912" lon="4.18929">
        <ele>1693.98</ele>
        <time>2020-10-25T12:11:45Z</time>
      </trkpt>
      <trkpt lat="44.91207" lon="4.1893">
        <ele>1695.42</ele>
        <time>2020-10-25T12:11:56Z</time>
      </trkpt>
      <trkpt lat="44.91217" lon="4.1893">
        <ele>1696.38</ele>
        <time>2020-10-25T12:12:10Z</time>
      </trkpt>
      <trkpt lat="44.91222" lon="4.18927">
        <ele>1697.34</ele>
        <time>2020-10-25T12:12:24Z</time>
      </trkpt>
      <trkpt lat="44.91227" lon="4.18927">
        <ele>1698.31</ele>
        <time>2020-10-25T12:12:29Z</time>
      </trkpt>
      <trkpt lat="44.91233" lon="4.18934">
        <ele>1699.75</ele>
        <time>2020-10-25T12:12:42Z</time>
      </trkpt>
      <trkpt lat="44.91239" lon="4.1894">
        <ele>1702.63</ele>
        <time>2020-10-25T12:12:53Z</time>
      </trkpt>
      <trkpt lat="44.91248" lon="4.18949">
        <ele>1703.59</ele>
        <time>2020-10-25T12:13:08Z</time>
      </trkpt>
      <trkpt lat="44.91251" lon="4.18961">
        <ele>1706.48</ele>
        <time>2020-10-25T12:13:25Z</time>
      </trkpt>
      <trkpt lat="44.91254" lon="4.18968">
        <ele>1707.92</ele>
        <time>2020-10-25T12:13:39Z</time>
      </trkpt>
      <trkpt lat="44.91258" lon="4.18975">
        <ele>1710.8</ele>
        <time>2020-10-25T12:13:52Z</time>
      </trkpt>
      <trkpt lat="44.9126" lon="4.18975">
        <ele>1710.8</ele>
        <time>2020-10-25T12:14:09Z</time>
      </trkpt>
      <trkpt lat="44.91264" lon="4.18981">
        <ele>1714.17</ele>
        <time>2020-10-25T12:14:23Z</time>
      </trkpt>
      <trkpt lat="44.91271" lon="4.18993">
        <ele>1714.65</ele>
        <time>2020-10-25T12:14:38Z</time>
      </trkpt>
      <trkpt lat="44.91272" lon="4.18997">
        <ele>1714.65</ele>
        <time>2020-10-25T12:14:41Z</time>
      </trkpt>
      <trkpt lat="44.91272" lon="4.19002">
        <ele>1716.57</ele>
        <time>2020-10-25T12:14:46Z</time>
      </trkpt>
      <trkpt lat="44.91274" lon="4.19009">
        <ele>1716.09</ele>
        <time>2020-10-25T12:14:52Z</time>
      </trkpt>
      <trkpt lat="44.91275" lon="4.19013">
        <ele>1717.05</ele>
        <time>2020-10-25T12:14:55Z</time>
      </trkpt>
      <trkpt lat="44.91273" lon="4.19022">
        <ele>1719.46</ele>
        <time>2020-10-25T12:15:07Z</time>
      </trkpt>
      <trkpt lat="44.91273" lon="4.19025">
        <ele>1718.49</ele>
        <time>2020-10-25T12:15:09Z</time>
      </trkpt>
      <trkpt lat="44.9127" lon="4.19042">
        <ele>1721.38</ele>
        <time>2020-10-25T12:15:25Z</time>
      </trkpt>
      <trkpt lat="44.91271" lon="4.19049">
        <ele>1720.9</ele>
        <time>2020-10-25T12:15:30Z</time>
      </trkpt>
      <trkpt lat="44.91268" lon="4.1907">
        <ele>1723.3</ele>
        <time>2020-10-25T12:15:47Z</time>
      </trkpt>
      <trkpt lat="44.91266" lon="4.1908">
        <ele>1723.78</ele>
        <time>2020-10-25T12:16:02Z</time>
      </trkpt>
      <trkpt lat="44.91266" lon="4.19083">
        <ele>1724.26</ele>
        <time>2020-10-25T12:16:05Z</time>
      </trkpt>
      <trkpt lat="44.91266" lon="4.19086">
        <ele>1724.74</ele>
        <time>2020-10-25T12:16:08Z</time>
      </trkpt>
      <trkpt lat="44.91265" lon="4.19088">
        <ele>1724.74</ele>
        <time>2020-10-25T12:16:10Z</time>
      </trkpt>
      <trkpt lat="44.91264" lon="4.19091">
        <ele>1724.26</ele>
        <time>2020-10-25T12:16:12Z</time>
      </trkpt>
      <trkpt lat="44.91262" lon="4.19097">
        <ele>1725.7</ele>
        <time>2020-10-25T12:16:18Z</time>
      </trkpt>
      <trkpt lat="44.9126" lon="4.19104">
        <ele>1725.7</ele>
        <time>2020-10-25T12:16:32Z</time>
      </trkpt>
      <trkpt lat="44.91254" lon="4.19123">
        <ele>1729.55</ele>
        <time>2020-10-25T12:16:48Z</time>
      </trkpt>
      <trkpt lat="44.9125" lon="4.19133">
        <ele>1728.11</ele>
        <time>2020-10-25T12:16:56Z</time>
      </trkpt>
      <trkpt lat="44.91245" lon="4.1914">
        <ele>1726.67</ele>
        <time>2020-10-25T12:17:04Z</time>
      </trkpt>
      <trkpt lat="44.91232" lon="4.19141">
        <ele>1729.55</ele>
        <time>2020-10-25T12:17:20Z</time>
      </trkpt>
      <trkpt lat="44.91227" lon="4.19136">
        <ele>1732.43</ele>
        <time>2020-10-25T12:17:30Z</time>
      </trkpt>
      <trkpt lat="44.91224" lon="4.19133">
        <ele>1733.88</ele>
        <time>2020-10-25T12:17:39Z</time>
      </trkpt>
      <trkpt lat="44.91214" lon="4.19132">
        <ele>1737.72</ele>
        <time>2020-10-25T12:17:53Z</time>
      </trkpt>
      <trkpt lat="44.9121" lon="4.19134">
        <ele>1737.72</ele>
        <time>2020-10-25T12:18:11Z</time>
      </trkpt>
      <trkpt lat="44.91209" lon="4.19133">
        <ele>1734.84</ele>
        <time>2020-10-25T12:18:19Z</time>
      </trkpt>
      <trkpt lat="44.91206" lon="4.19133">
        <ele>1734.84</ele>
        <time>2020-10-25T12:18:21Z</time>
      </trkpt>
      <trkpt lat="44.91198" lon="4.19134">
        <ele>1736.28</ele>
        <time>2020-10-25T12:18:29Z</time>
      </trkpt>
      <trkpt lat="44.91196" lon="4.19135">
        <ele>1737.24</ele>
        <time>2020-10-25T12:18:31Z</time>
      </trkpt>
      <trkpt lat="44.91194" lon="4.19136">
        <ele>1736.28</ele>
        <time>2020-10-25T12:18:33Z</time>
      </trkpt>
      <trkpt lat="44.91189" lon="4.19136">
        <ele>1737.72</ele>
        <time>2020-10-25T12:18:38Z</time>
      </trkpt>
      <trkpt lat="44.91185" lon="4.19136">
        <ele>1738.2</ele>
        <time>2020-10-25T12:18:55Z</time>
      </trkpt>
      <trkpt lat="44.91182" lon="4.19135">
        <ele>1738.68</ele>
        <time>2020-10-25T12:18:59Z</time>
      </trkpt>
      <trkpt lat="44.91167" lon="4.19131">
        <ele>1740.6</ele>
        <time>2020-10-25T12:19:17Z</time>
      </trkpt>
      <trkpt lat="44.91156" lon="4.19127">
        <ele>1741.08</ele>
        <time>2020-10-25T12:19:31Z</time>
      </trkpt>
      <trkpt lat="44.91149" lon="4.19123">
        <ele>1744.45</ele>
        <time>2020-10-25T12:19:42Z</time>
      </trkpt>
      <trkpt lat="44.91148" lon="4.19122">
        <ele>1744.45</ele>
        <time>2020-10-25T12:19:43Z</time>
      </trkpt>
      <trkpt lat="44.91139" lon="4.1912">
        <ele>1745.41</ele>
        <time>2020-10-25T12:19:57Z</time>
      </trkpt>
      <trkpt lat="44.91132" lon="4.19113">
        <ele>1748.29</ele>
        <time>2020-10-25T12:20:08Z</time>
      </trkpt>
      <trkpt lat="44.91125" lon="4.19111">
        <ele>1750.7</ele>
        <time>2020-10-25T12:20:20Z</time>
      </trkpt>
      <trkpt lat="44.9112" lon="4.19107">
        <ele>1750.7</ele>
        <time>2020-10-25T12:20:28Z</time>
      </trkpt>
      <trkpt lat="44.9111" lon="4.191">
        <ele>1753.1</ele>
        <time>2020-10-25T12:20:43Z</time>
      </trkpt>
      <trkpt lat="44.91108" lon="4.19096">
        <ele>1754.54</ele>
        <time>2020-10-25T12:20:46Z</time>
      </trkpt>
      <trkpt lat="44.91106" lon="4.19091">
        <ele>1754.06</ele>
        <time>2020-10-25T12:20:51Z</time>
      </trkpt>
      <trkpt lat="44.91105" lon="4.19089">
        <ele>1755.99</ele>
        <time>2020-10-25T12:20:53Z</time>
      </trkpt>
      <trkpt lat="44.91105" lon="4.19088">
        <ele>1755.5</ele>
        <time>2020-10-25T12:20:54Z</time>
      </trkpt>
      <trkpt lat="44.91104" lon="4.19085">
        <ele>1756.95</ele>
        <time>2020-10-25T12:20:57Z</time>
      </trkpt>
      <trkpt lat="44.91104" lon="4.19084">
        <ele>1758.87</ele>
        <time>2020-10-25T12:21:02Z</time>
      </trkpt>
      <trkpt lat="44.91103" lon="4.19084">
        <ele>1755.5</ele>
        <time>2020-10-25T12:21:12Z</time>
      </trkpt>
      <trkpt lat="44.91102" lon="4.19085">
        <ele>1761.75</ele>
        <time>2020-10-25T12:21:26Z</time>
      </trkpt>
      <trkpt lat="44.91102" lon="4.19086">
        <ele>1756.47</ele>
        <time>2020-10-25T12:21:52Z</time>
      </trkpt>
      <trkpt lat="44.91102" lon="4.19085">
        <ele>1759.83</ele>
        <time>2020-10-25T12:22:02Z</time>
      </trkpt>
      <trkpt lat="44.91101" lon="4.19085">
        <ele>1757.43</ele>
        <time>2020-10-25T12:22:17Z</time>
      </trkpt>
      <trkpt lat="44.91102" lon="4.19085">
        <ele>1754.06</ele>
        <time>2020-10-25T12:22:37Z</time>
      </trkpt>
      <trkpt lat="44.911" lon="4.19088">
        <ele>1755.99</ele>
        <time>2020-10-25T12:23:03Z</time>
      </trkpt>
      <trkpt lat="44.91093" lon="4.1909">
        <ele>1755.5</ele>
        <time>2020-10-25T12:23:12Z</time>
      </trkpt>
      <trkpt lat="44.91091" lon="4.19088">
        <ele>1754.06</ele>
        <time>2020-10-25T12:23:21Z</time>
      </trkpt>
      <trkpt lat="44.91091" lon="4.19087">
        <ele>1751.66</ele>
        <time>2020-10-25T12:23:23Z</time>
      </trkpt>
      <trkpt lat="44.9109" lon="4.19087">
        <ele>1751.66</ele>
        <time>2020-10-25T12:23:24Z</time>
      </trkpt>
      <trkpt lat="44.91088" lon="4.19086">
        <ele>1753.58</ele>
        <time>2020-10-25T12:23:26Z</time>
      </trkpt>
      <trkpt lat="44.91085" lon="4.19086">
        <ele>1752.62</ele>
        <time>2020-10-25T12:23:28Z</time>
      </trkpt>
      <trkpt lat="44.91078" lon="4.19087">
        <ele>1752.62</ele>
        <time>2020-10-25T12:23:34Z</time>
      </trkpt>
      <trkpt lat="44.91073" lon="4.19087">
        <ele>1749.74</ele>
        <time>2020-10-25T12:23:38Z</time>
      </trkpt>
      <trkpt lat="44.91072" lon="4.19088">
        <ele>1749.74</ele>
        <time>2020-10-25T12:23:39Z</time>
      </trkpt>
      <trkpt lat="44.91069" lon="4.19089">
        <ele>1752.14</ele>
        <time>2020-10-25T12:23:42Z</time>
      </trkpt>
      <trkpt lat="44.91065" lon="4.19086">
        <ele>1748.29</ele>
        <time>2020-10-25T12:23:48Z</time>
      </trkpt>
      <trkpt lat="44.91065" lon="4.19085">
        <ele>1751.66</ele>
        <time>2020-10-25T12:23:49Z</time>
      </trkpt>
      <trkpt lat="44.91064" lon="4.19085">
        <ele>1754.54</ele>
        <time>2020-10-25T12:23:50Z</time>
      </trkpt>
      <trkpt lat="44.91064" lon="4.19084">
        <ele>1750.22</ele>
        <time>2020-10-25T12:23:52Z</time>
      </trkpt>
      <trkpt lat="44.91061" lon="4.19079">
        <ele>1752.62</ele>
        <time>2020-10-25T12:23:56Z</time>
      </trkpt>
      <trkpt lat="44.91061" lon="4.19078">
        <ele>1752.14</ele>
        <time>2020-10-25T12:23:57Z</time>
      </trkpt>
      <trkpt lat="44.91059" lon="4.1907">
        <ele>1753.58</ele>
        <time>2020-10-25T12:24:03Z</time>
      </trkpt>
      <trkpt lat="44.91059" lon="4.19069">
        <ele>1749.26</ele>
        <time>2020-10-25T12:24:04Z</time>
      </trkpt>
      <trkpt lat="44.91058" lon="4.19069">
        <ele>1750.22</ele>
        <time>2020-10-25T12:24:05Z</time>
      </trkpt>
      <trkpt lat="44.91056" lon="4.19066">
        <ele>1747.33</ele>
        <time>2020-10-25T12:24:07Z</time>
      </trkpt>
      <trkpt lat="44.91054" lon="4.19064">
        <ele>1750.22</ele>
        <time>2020-10-25T12:24:10Z</time>
      </trkpt>
      <trkpt lat="44.91053" lon="4.19059">
        <ele>1754.06</ele>
        <time>2020-10-25T12:24:14Z</time>
      </trkpt>
      <trkpt lat="44.91053" lon="4.19057">
        <ele>1751.66</ele>
        <time>2020-10-25T12:24:16Z</time>
      </trkpt>
      <trkpt lat="44.91051" lon="4.19053">
        <ele>1751.66</ele>
        <time>2020-10-25T12:24:20Z</time>
      </trkpt>
      <trkpt lat="44.91047" lon="4.19046">
        <ele>1749.74</ele>
        <time>2020-10-25T12:24:37Z</time>
      </trkpt>
      <trkpt lat="44.91047" lon="4.19043">
        <ele>1747.81</ele>
        <time>2020-10-25T12:24:41Z</time>
      </trkpt>
      <trkpt lat="44.91044" lon="4.19041">
        <ele>1747.33</ele>
        <time>2020-10-25T12:24:48Z</time>
      </trkpt>
      <trkpt lat="44.91042" lon="4.19038">
        <ele>1743.97</ele>
        <time>2020-10-25T12:24:55Z</time>
      </trkpt>
      <trkpt lat="44.91043" lon="4.19038">
        <ele>1748.29</ele>
        <time>2020-10-25T12:24:58Z</time>
      </trkpt>
      <trkpt lat="44.91039" lon="4.19035">
        <ele>1741.08</ele>
        <time>2020-10-25T12:25:25Z</time>
      </trkpt>
      <trkpt lat="44.91037" lon="4.19034">
        <ele>1745.41</ele>
        <time>2020-10-25T12:25:30Z</time>
      </trkpt>
      <trkpt lat="44.91037" lon="4.19035">
        <ele>1744.93</ele>
        <time>2020-10-25T12:25:31Z</time>
      </trkpt>
      <trkpt lat="44.91037" lon="4.19037">
        <ele>1750.22</ele>
        <time>2020-10-25T12:25:35Z</time>
      </trkpt>
      <trkpt lat="44.91036" lon="4.19037">
        <ele>1745.41</ele>
        <time>2020-10-25T12:25:36Z</time>
      </trkpt>
      <trkpt lat="44.91036" lon="4.19043">
        <ele>1749.74</ele>
        <time>2020-10-25T12:25:46Z</time>
      </trkpt>
      <trkpt lat="44.91035" lon="4.19044">
        <ele>1746.85</ele>
        <time>2020-10-25T12:25:52Z</time>
      </trkpt>
      <trkpt lat="44.91035" lon="4.19046">
        <ele>1750.7</ele>
        <time>2020-10-25T12:26:03Z</time>
      </trkpt>
      <trkpt lat="44.91034" lon="4.19046">
        <ele>1752.14</ele>
        <time>2020-10-25T12:26:09Z</time>
      </trkpt>
      <trkpt lat="44.91035" lon="4.19047">
        <ele>1748.29</ele>
        <time>2020-10-25T12:26:16Z</time>
      </trkpt>
      <trkpt lat="44.91039" lon="4.19053">
        <ele>1753.1</ele>
        <time>2020-10-25T12:26:30Z</time>
      </trkpt>
      <trkpt lat="44.91041" lon="4.19056">
        <ele>1755.5</ele>
        <time>2020-10-25T12:26:37Z</time>
      </trkpt>
      <trkpt lat="44.91042" lon="4.19057">
        <ele>1752.62</ele>
        <time>2020-10-25T12:26:47Z</time>
      </trkpt>
      <trkpt lat="44.91044" lon="4.19066">
        <ele>1753.1</ele>
        <time>2020-10-25T12:26:52Z</time>
      </trkpt>
      <trkpt lat="44.91042" lon="4.19079">
        <ele>1752.14</ele>
        <time>2020-10-25T12:27:00Z</time>
      </trkpt>
      <trkpt lat="44.91042" lon="4.19087">
        <ele>1749.26</ele>
        <time>2020-10-25T12:27:05Z</time>
      </trkpt>
      <trkpt lat="44.91041" lon="4.19101">
        <ele>1750.22</ele>
        <time>2020-10-25T12:27:13Z</time>
      </trkpt>
      <trkpt lat="44.91043" lon="4.19115">
        <ele>1742.53</ele>
        <time>2020-10-25T12:27:25Z</time>
      </trkpt>
      <trkpt lat="44.91043" lon="4.19116">
        <ele>1749.74</ele>
        <time>2020-10-25T12:27:26Z</time>
      </trkpt>
      <trkpt lat="44.91044" lon="4.19117">
        <ele>1749.26</ele>
        <time>2020-10-25T12:27:27Z</time>
      </trkpt>
      <trkpt lat="44.91045" lon="4.19121">
        <ele>1745.41</ele>
        <time>2020-10-25T12:27:35Z</time>
      </trkpt>
      <trkpt lat="44.91044" lon="4.19123">
        <ele>1748.29</ele>
        <time>2020-10-25T12:27:38Z</time>
      </trkpt>
      <trkpt lat="44.91045" lon="4.19127">
        <ele>1746.85</ele>
        <time>2020-10-25T12:27:41Z</time>
      </trkpt>
      <trkpt lat="44.91047" lon="4.19152">
        <ele>1745.89</ele>
        <time>2020-10-25T12:27:58Z</time>
      </trkpt>
      <trkpt lat="44.91047" lon="4.19161">
        <ele>1739.64</ele>
        <time>2020-10-25T12:28:05Z</time>
      </trkpt>
      <trkpt lat="44.91048" lon="4.19161">
        <ele>1742.05</ele>
        <time>2020-10-25T12:28:10Z</time>
      </trkpt>
      <trkpt lat="44.91047" lon="4.19163">
        <ele>1743.97</ele>
        <time>2020-10-25T12:28:12Z</time>
      </trkpt>
      <trkpt lat="44.91047" lon="4.19166">
        <ele>1743.97</ele>
        <time>2020-10-25T12:28:14Z</time>
      </trkpt>
      <trkpt lat="44.91047" lon="4.19174">
        <ele>1743.97</ele>
        <time>2020-10-25T12:28:20Z</time>
      </trkpt>
      <trkpt lat="44.91045" lon="4.19178">
        <ele>1743.01</ele>
        <time>2020-10-25T12:28:23Z</time>
      </trkpt>
      <trkpt lat="44.91044" lon="4.19184">
        <ele>1743.01</ele>
        <time>2020-10-25T12:28:27Z</time>
      </trkpt>
      <trkpt lat="44.91043" lon="4.19201">
        <ele>1744.93</ele>
        <time>2020-10-25T12:28:39Z</time>
      </trkpt>
      <trkpt lat="44.91042" lon="4.19215">
        <ele>1744.93</ele>
        <time>2020-10-25T12:28:53Z</time>
      </trkpt>
      <trkpt lat="44.91042" lon="4.19217">
        <ele>1746.85</ele>
        <time>2020-10-25T12:28:55Z</time>
      </trkpt>
      <trkpt lat="44.91042" lon="4.19227">
        <ele>1747.33</ele>
        <time>2020-10-25T12:29:03Z</time>
      </trkpt>
      <trkpt lat="44.91046" lon="4.19238">
        <ele>1748.29</ele>
        <time>2020-10-25T12:29:14Z</time>
      </trkpt>
      <trkpt lat="44.91049" lon="4.19242">
        <ele>1744.45</ele>
        <time>2020-10-25T12:29:20Z</time>
      </trkpt>
      <trkpt lat="44.91049" lon="4.19243">
        <ele>1749.74</ele>
        <time>2020-10-25T12:29:21Z</time>
      </trkpt>
      <trkpt lat="44.91049" lon="4.19244">
        <ele>1749.74</ele>
        <time>2020-10-25T12:29:25Z</time>
      </trkpt>
      <trkpt lat="44.91051" lon="4.19251">
        <ele>1748.29</ele>
        <time>2020-10-25T12:29:30Z</time>
      </trkpt>
      <trkpt lat="44.91055" lon="4.1926">
        <ele>1746.85</ele>
        <time>2020-10-25T12:29:37Z</time>
      </trkpt>
      <trkpt lat="44.91063" lon="4.19272">
        <ele>1743.49</ele>
        <time>2020-10-25T12:29:50Z</time>
      </trkpt>
      <trkpt lat="44.91064" lon="4.19273">
        <ele>1746.37</ele>
        <time>2020-10-25T12:29:52Z</time>
      </trkpt>
      <trkpt lat="44.91066" lon="4.19275">
        <ele>1745.89</ele>
        <time>2020-10-25T12:29:54Z</time>
      </trkpt>
      <trkpt lat="44.91067" lon="4.19284">
        <ele>1746.37</ele>
        <time>2020-10-25T12:30:00Z</time>
      </trkpt>
      <trkpt lat="44.91068" lon="4.19286">
        <ele>1747.33</ele>
        <time>2020-10-25T12:30:02Z</time>
      </trkpt>
      <trkpt lat="44.91071" lon="4.19294">
        <ele>1745.41</ele>
        <time>2020-10-25T12:30:08Z</time>
      </trkpt>
      <trkpt lat="44.9107" lon="4.19304">
        <ele>1745.41</ele>
        <time>2020-10-25T12:30:19Z</time>
      </trkpt>
      <trkpt lat="44.9107" lon="4.19303">
        <ele>1746.37</ele>
        <time>2020-10-25T12:30:32Z</time>
      </trkpt>
      <trkpt lat="44.91071" lon="4.19303">
        <ele>1747.81</ele>
        <time>2020-10-25T12:31:12Z</time>
      </trkpt>
      <trkpt lat="44.91073" lon="4.19301">
        <ele>1746.37</ele>
        <time>2020-10-25T12:31:27Z</time>
      </trkpt>
      <trkpt lat="44.91077" lon="4.19298">
        <ele>1745.89</ele>
        <time>2020-10-25T12:31:31Z</time>
      </trkpt>
      <trkpt lat="44.91083" lon="4.19294">
        <ele>1743.49</ele>
        <time>2020-10-25T12:31:37Z</time>
      </trkpt>
      <trkpt lat="44.91096" lon="4.19281">
        <ele>1740.12</ele>
        <time>2020-10-25T12:31:52Z</time>
      </trkpt>
      <trkpt lat="44.91097" lon="4.1928">
        <ele>1740.12</ele>
        <time>2020-10-25T12:31:53Z</time>
      </trkpt>
      <trkpt lat="44.91104" lon="4.19267">
        <ele>1741.57</ele>
        <time>2020-10-25T12:32:06Z</time>
      </trkpt>
      <trkpt lat="44.91107" lon="4.19265">
        <ele>1740.12</ele>
        <time>2020-10-25T12:32:09Z</time>
      </trkpt>
      <trkpt lat="44.91106" lon="4.19265">
        <ele>1740.12</ele>
        <time>2020-10-25T12:32:21Z</time>
      </trkpt>
      <trkpt lat="44.91107" lon="4.19266">
        <ele>1740.12</ele>
        <time>2020-10-25T12:33:26Z</time>
      </trkpt>
      <trkpt lat="44.91108" lon="4.19266">
        <ele>1739.64</ele>
        <time>2020-10-25T12:34:05Z</time>
      </trkpt>
      <trkpt lat="44.91108" lon="4.19265">
        <ele>1739.64</ele>
        <time>2020-10-25T12:35:24Z</time>
      </trkpt>
      <trkpt lat="44.9111" lon="4.19265">
        <ele>1739.16</ele>
        <time>2020-10-25T12:35:46Z</time>
      </trkpt>
      <trkpt lat="44.91115" lon="4.19263">
        <ele>1737.72</ele>
        <time>2020-10-25T12:35:52Z</time>
      </trkpt>
      <trkpt lat="44.91117" lon="4.19261">
        <ele>1737.72</ele>
        <time>2020-10-25T12:35:55Z</time>
      </trkpt>
      <trkpt lat="44.91121" lon="4.19259">
        <ele>1738.2</ele>
        <time>2020-10-25T12:35:59Z</time>
      </trkpt>
      <trkpt lat="44.91125" lon="4.19257">
        <ele>1736.76</ele>
        <time>2020-10-25T12:36:03Z</time>
      </trkpt>
      <trkpt lat="44.91127" lon="4.19255">
        <ele>1736.28</ele>
        <time>2020-10-25T12:36:06Z</time>
      </trkpt>
      <trkpt lat="44.91142" lon="4.19237">
        <ele>1734.84</ele>
        <time>2020-10-25T12:36:24Z</time>
      </trkpt>
      <trkpt lat="44.91143" lon="4.19238">
        <ele>1734.36</ele>
        <time>2020-10-25T12:36:31Z</time>
      </trkpt>
      <trkpt lat="44.91149" lon="4.19231">
        <ele>1735.32</ele>
        <time>2020-10-25T12:36:42Z</time>
      </trkpt>
      <trkpt lat="44.91155" lon="4.19227">
        <ele>1733.39</ele>
        <time>2020-10-25T12:36:48Z</time>
      </trkpt>
      <trkpt lat="44.91165" lon="4.1922">
        <ele>1733.39</ele>
        <time>2020-10-25T12:36:57Z</time>
      </trkpt>
      <trkpt lat="44.91168" lon="4.19215">
        <ele>1733.39</ele>
        <time>2020-10-25T12:37:02Z</time>
      </trkpt>
      <trkpt lat="44.91171" lon="4.19209">
        <ele>1733.88</ele>
        <time>2020-10-25T12:37:08Z</time>
      </trkpt>
      <trkpt lat="44.91174" lon="4.19205">
        <ele>1733.88</ele>
        <time>2020-10-25T12:37:12Z</time>
      </trkpt>
      <trkpt lat="44.91177" lon="4.19197">
        <ele>1734.84</ele>
        <time>2020-10-25T12:37:17Z</time>
      </trkpt>
      <trkpt lat="44.9118" lon="4.19195">
        <ele>1734.36</ele>
        <time>2020-10-25T12:37:20Z</time>
      </trkpt>
      <trkpt lat="44.91182" lon="4.19193">
        <ele>1733.88</ele>
        <time>2020-10-25T12:37:23Z</time>
      </trkpt>
      <trkpt lat="44.91204" lon="4.19181">
        <ele>1732.91</ele>
        <time>2020-10-25T12:37:43Z</time>
      </trkpt>
      <trkpt lat="44.91217" lon="4.1917">
        <ele>1732.43</ele>
        <time>2020-10-25T12:37:56Z</time>
      </trkpt>
      <trkpt lat="44.91222" lon="4.19164">
        <ele>1732.43</ele>
        <time>2020-10-25T12:38:02Z</time>
      </trkpt>
      <trkpt lat="44.91224" lon="4.19163">
        <ele>1731.47</ele>
        <time>2020-10-25T12:38:04Z</time>
      </trkpt>
      <trkpt lat="44.91225" lon="4.19161">
        <ele>1730.51</ele>
        <time>2020-10-25T12:38:06Z</time>
      </trkpt>
      <trkpt lat="44.91239" lon="4.19147">
        <ele>1729.55</ele>
        <time>2020-10-25T12:38:22Z</time>
      </trkpt>
      <trkpt lat="44.91242" lon="4.19145">
        <ele>1729.55</ele>
        <time>2020-10-25T12:38:25Z</time>
      </trkpt>
      <trkpt lat="44.91245" lon="4.19142">
        <ele>1729.55</ele>
        <time>2020-10-25T12:38:29Z</time>
      </trkpt>
      <trkpt lat="44.91253" lon="4.1914">
        <ele>1728.11</ele>
        <time>2020-10-25T12:38:36Z</time>
      </trkpt>
      <trkpt lat="44.91257" lon="4.1914">
        <ele>1728.59</ele>
        <time>2020-10-25T12:38:40Z</time>
      </trkpt>
      <trkpt lat="44.91262" lon="4.19139">
        <ele>1729.07</ele>
        <time>2020-10-25T12:38:44Z</time>
      </trkpt>
      <trkpt lat="44.9128" lon="4.19132">
        <ele>1727.15</ele>
        <time>2020-10-25T12:39:02Z</time>
      </trkpt>
      <trkpt lat="44.91298" lon="4.19118">
        <ele>1725.7</ele>
        <time>2020-10-25T12:39:21Z</time>
      </trkpt>
      <trkpt lat="44.91308" lon="4.19111">
        <ele>1726.18</ele>
        <time>2020-10-25T12:39:32Z</time>
      </trkpt>
      <trkpt lat="44.9132" lon="4.191">
        <ele>1727.63</ele>
        <time>2020-10-25T12:39:44Z</time>
      </trkpt>
      <trkpt lat="44.91337" lon="4.19089">
        <ele>1730.03</ele>
        <time>2020-10-25T12:40:02Z</time>
      </trkpt>
      <trkpt lat="44.91338" lon="4.19087">
        <ele>1730.99</ele>
        <time>2020-10-25T12:40:04Z</time>
      </trkpt>
      <trkpt lat="44.9135" lon="4.19079">
        <ele>1734.36</ele>
        <time>2020-10-25T12:40:16Z</time>
      </trkpt>
      <trkpt lat="44.91353" lon="4.19076">
        <ele>1731.95</ele>
        <time>2020-10-25T12:40:19Z</time>
      </trkpt>
      <trkpt lat="44.9136" lon="4.19073">
        <ele>1731.95</ele>
        <time>2020-10-25T12:40:27Z</time>
      </trkpt>
      <trkpt lat="44.91374" lon="4.19058">
        <ele>1735.8</ele>
        <time>2020-10-25T12:40:44Z</time>
      </trkpt>
      <trkpt lat="44.9138" lon="4.19051">
        <ele>1739.64</ele>
        <time>2020-10-25T12:40:52Z</time>
      </trkpt>
      <trkpt lat="44.91381" lon="4.1905">
        <ele>1740.12</ele>
        <time>2020-10-25T12:40:53Z</time>
      </trkpt>
      <trkpt lat="44.91383" lon="4.19049">
        <ele>1737.24</ele>
        <time>2020-10-25T12:40:55Z</time>
      </trkpt>
      <trkpt lat="44.91391" lon="4.19045">
        <ele>1740.6</ele>
        <time>2020-10-25T12:41:06Z</time>
      </trkpt>
      <trkpt lat="44.91393" lon="4.19044">
        <ele>1742.05</ele>
        <time>2020-10-25T12:41:09Z</time>
      </trkpt>
      <trkpt lat="44.91394" lon="4.19044">
        <ele>1743.01</ele>
        <time>2020-10-25T12:41:10Z</time>
      </trkpt>
      <trkpt lat="44.91397" lon="4.19042">
        <ele>1742.05</ele>
        <time>2020-10-25T12:41:14Z</time>
      </trkpt>
      <trkpt lat="44.914" lon="4.19041">
        <ele>1747.81</ele>
        <time>2020-10-25T12:41:18Z</time>
      </trkpt>
      <trkpt lat="44.91408" lon="4.19035">
        <ele>1751.18</ele>
        <time>2020-10-25T12:41:27Z</time>
      </trkpt>
      <trkpt lat="44.91409" lon="4.19034">
        <ele>1750.22</ele>
        <time>2020-10-25T12:41:28Z</time>
      </trkpt>
      <trkpt lat="44.91411" lon="4.19033">
        <ele>1746.37</ele>
        <time>2020-10-25T12:41:30Z</time>
      </trkpt>
      <trkpt lat="44.91412" lon="4.19032">
        <ele>1747.81</ele>
        <time>2020-10-25T12:41:31Z</time>
      </trkpt>
      <trkpt lat="44.9142" lon="4.19026">
        <ele>1743.97</ele>
        <time>2020-10-25T12:41:39Z</time>
      </trkpt>
      <trkpt lat="44.91421" lon="4.19023">
        <ele>1743.49</ele>
        <time>2020-10-25T12:41:41Z</time>
      </trkpt>
      <trkpt lat="44.91423" lon="4.19014">
        <ele>1745.41</ele>
        <time>2020-10-25T12:41:49Z</time>
      </trkpt>
      <trkpt lat="44.91423" lon="4.19013">
        <ele>1745.41</ele>
        <time>2020-10-25T12:41:50Z</time>
      </trkpt>
      <trkpt lat="44.91424" lon="4.19009">
        <ele>1746.85</ele>
        <time>2020-10-25T12:41:53Z</time>
      </trkpt>
      <trkpt lat="44.91425" lon="4.19001">
        <ele>1749.74</ele>
        <time>2020-10-25T12:42:01Z</time>
      </trkpt>
      <trkpt lat="44.91425" lon="4.18998">
        <ele>1747.81</ele>
        <time>2020-10-25T12:42:04Z</time>
      </trkpt>
      <trkpt lat="44.91421" lon="4.18995">
        <ele>1747.81</ele>
        <time>2020-10-25T12:42:16Z</time>
      </trkpt>
      <trkpt lat="44.91422" lon="4.18997">
        <ele>1751.66</ele>
        <time>2020-10-25T12:42:38Z</time>
      </trkpt>
      <trkpt lat="44.91422" lon="4.18998">
        <ele>1749.74</ele>
        <time>2020-10-25T12:42:41Z</time>
      </trkpt>
      <trkpt lat="44.91422" lon="4.18999">
        <ele>1744.45</ele>
        <time>2020-10-25T12:42:46Z</time>
      </trkpt>
      <trkpt lat="44.91422" lon="4.19009">
        <ele>1747.33</ele>
        <time>2020-10-25T12:42:57Z</time>
      </trkpt>
      <trkpt lat="44.91421" lon="4.19014">
        <ele>1744.45</ele>
        <time>2020-10-25T12:43:01Z</time>
      </trkpt>
      <trkpt lat="44.91422" lon="4.19018">
        <ele>1744.45</ele>
        <time>2020-10-25T12:43:04Z</time>
      </trkpt>
      <trkpt lat="44.91421" lon="4.19022">
        <ele>1743.97</ele>
        <time>2020-10-25T12:43:07Z</time>
      </trkpt>
      <trkpt lat="44.91419" lon="4.19025">
        <ele>1743.01</ele>
        <time>2020-10-25T12:43:09Z</time>
      </trkpt>
      <trkpt lat="44.91414" lon="4.19031">
        <ele>1746.85</ele>
        <time>2020-10-25T12:43:15Z</time>
      </trkpt>
      <trkpt lat="44.91413" lon="4.19031">
        <ele>1740.6</ele>
        <time>2020-10-25T12:43:16Z</time>
      </trkpt>
      <trkpt lat="44.91404" lon="4.19035">
        <ele>1737.72</ele>
        <time>2020-10-25T12:43:25Z</time>
      </trkpt>
      <trkpt lat="44.91403" lon="4.19037">
        <ele>1740.6</ele>
        <time>2020-10-25T12:43:27Z</time>
      </trkpt>
      <trkpt lat="44.91397" lon="4.1904">
        <ele>1736.76</ele>
        <time>2020-10-25T12:43:33Z</time>
      </trkpt>
      <trkpt lat="44.91388" lon="4.19038">
        <ele>1726.67</ele>
        <time>2020-10-25T12:43:42Z</time>
      </trkpt>
      <trkpt lat="44.91386" lon="4.19035">
        <ele>1733.39</ele>
        <time>2020-10-25T12:44:02Z</time>
      </trkpt>
      <trkpt lat="44.91382" lon="4.1903">
        <ele>1732.43</ele>
        <time>2020-10-25T12:44:06Z</time>
      </trkpt>
      <trkpt lat="44.9138" lon="4.19027">
        <ele>1729.07</ele>
        <time>2020-10-25T12:44:09Z</time>
      </trkpt>
      <trkpt lat="44.9138" lon="4.19025">
        <ele>1730.51</ele>
        <time>2020-10-25T12:44:10Z</time>
      </trkpt>
      <trkpt lat="44.91379" lon="4.19024">
        <ele>1730.99</ele>
        <time>2020-10-25T12:44:11Z</time>
      </trkpt>
      <trkpt lat="44.91373" lon="4.19018">
        <ele>1729.55</ele>
        <time>2020-10-25T12:44:19Z</time>
      </trkpt>
      <trkpt lat="44.91373" lon="4.19015">
        <ele>1729.07</ele>
        <time>2020-10-25T12:44:21Z</time>
      </trkpt>
      <trkpt lat="44.91371" lon="4.19009">
        <ele>1728.59</ele>
        <time>2020-10-25T12:44:26Z</time>
      </trkpt>
      <trkpt lat="44.91365" lon="4.19005">
        <ele>1728.11</ele>
        <time>2020-10-25T12:44:34Z</time>
      </trkpt>
      <trkpt lat="44.91362" lon="4.19004">
        <ele>1726.18</ele>
        <time>2020-10-25T12:44:36Z</time>
      </trkpt>
      <trkpt lat="44.9136" lon="4.19002">
        <ele>1725.22</ele>
        <time>2020-10-25T12:44:39Z</time>
      </trkpt>
      <trkpt lat="44.91352" lon="4.18984">
        <ele>1722.34</ele>
        <time>2020-10-25T12:44:57Z</time>
      </trkpt>
      <trkpt lat="44.91352" lon="4.18983">
        <ele>1721.86</ele>
        <time>2020-10-25T12:45:19Z</time>
      </trkpt>
      <trkpt lat="44.9135" lon="4.18979">
        <ele>1720.9</ele>
        <time>2020-10-25T12:45:29Z</time>
      </trkpt>
      <trkpt lat="44.91349" lon="4.18978">
        <ele>1720.9</ele>
        <time>2020-10-25T12:45:30Z</time>
      </trkpt>
      <trkpt lat="44.91348" lon="4.18976">
        <ele>1721.38</ele>
        <time>2020-10-25T12:45:32Z</time>
      </trkpt>
      <trkpt lat="44.91346" lon="4.18964">
        <ele>1720.9</ele>
        <time>2020-10-25T12:45:41Z</time>
      </trkpt>
      <trkpt lat="44.91346" lon="4.18961">
        <ele>1720.42</ele>
        <time>2020-10-25T12:45:43Z</time>
      </trkpt>
      <trkpt lat="44.91346" lon="4.18958">
        <ele>1719.46</ele>
        <time>2020-10-25T12:45:45Z</time>
      </trkpt>
      <trkpt lat="44.91343" lon="4.18948">
        <ele>1717.05</ele>
        <time>2020-10-25T12:45:53Z</time>
      </trkpt>
      <trkpt lat="44.91335" lon="4.18942">
        <ele>1713.21</ele>
        <time>2020-10-25T12:46:03Z</time>
      </trkpt>
      <trkpt lat="44.91334" lon="4.1894">
        <ele>1715.61</ele>
        <time>2020-10-25T12:46:05Z</time>
      </trkpt>
      <trkpt lat="44.91324" lon="4.18933">
        <ele>1715.61</ele>
        <time>2020-10-25T12:46:18Z</time>
      </trkpt>
      <trkpt lat="44.91323" lon="4.18932">
        <ele>1712.25</ele>
        <time>2020-10-25T12:46:37Z</time>
      </trkpt>
      <trkpt lat="44.91322" lon="4.18933">
        <ele>1713.21</ele>
        <time>2020-10-25T12:46:38Z</time>
      </trkpt>
      <trkpt lat="44.9132" lon="4.18932">
        <ele>1713.21</ele>
        <time>2020-10-25T12:46:41Z</time>
      </trkpt>
      <trkpt lat="44.91318" lon="4.18932">
        <ele>1711.76</ele>
        <time>2020-10-25T12:46:43Z</time>
      </trkpt>
      <trkpt lat="44.91313" lon="4.18931">
        <ele>1713.21</ele>
        <time>2020-10-25T12:46:51Z</time>
      </trkpt>
      <trkpt lat="44.91312" lon="4.18931">
        <ele>1713.69</ele>
        <time>2020-10-25T12:46:52Z</time>
      </trkpt>
      <trkpt lat="44.91308" lon="4.18932">
        <ele>1710.8</ele>
        <time>2020-10-25T12:46:56Z</time>
      </trkpt>
      <trkpt lat="44.91305" lon="4.18932">
        <ele>1709.36</ele>
        <time>2020-10-25T12:46:59Z</time>
      </trkpt>
      <trkpt lat="44.91298" lon="4.18932">
        <ele>1707.92</ele>
        <time>2020-10-25T12:47:06Z</time>
      </trkpt>
      <trkpt lat="44.91294" lon="4.18932">
        <ele>1709.36</ele>
        <time>2020-10-25T12:47:12Z</time>
      </trkpt>
      <trkpt lat="44.9129" lon="4.18933">
        <ele>1709.84</ele>
        <time>2020-10-25T12:47:16Z</time>
      </trkpt>
      <trkpt lat="44.91283" lon="4.18936">
        <ele>1706.96</ele>
        <time>2020-10-25T12:47:22Z</time>
      </trkpt>
      <trkpt lat="44.91281" lon="4.18937">
        <ele>1707.44</ele>
        <time>2020-10-25T12:47:24Z</time>
      </trkpt>
      <trkpt lat="44.91274" lon="4.18934">
        <ele>1707.44</ele>
        <time>2020-10-25T12:47:31Z</time>
      </trkpt>
      <trkpt lat="44.91265" lon="4.18936">
        <ele>1702.15</ele>
        <time>2020-10-25T12:47:39Z</time>
      </trkpt>
      <trkpt lat="44.91263" lon="4.18936">
        <ele>1700.23</ele>
        <time>2020-10-25T12:47:42Z</time>
      </trkpt>
      <trkpt lat="44.91262" lon="4.18936">
        <ele>1701.19</ele>
        <time>2020-10-25T12:47:43Z</time>
      </trkpt>
      <trkpt lat="44.91254" lon="4.1894">
        <ele>1700.71</ele>
        <time>2020-10-25T12:47:50Z</time>
      </trkpt>
      <trkpt lat="44.91252" lon="4.18941">
        <ele>1706</ele>
        <time>2020-10-25T12:47:56Z</time>
      </trkpt>
      <trkpt lat="44.91251" lon="4.18941">
        <ele>1705.52</ele>
        <time>2020-10-25T12:47:57Z</time>
      </trkpt>
      <trkpt lat="44.9125" lon="4.1894">
        <ele>1702.15</ele>
        <time>2020-10-25T12:47:59Z</time>
      </trkpt>
      <trkpt lat="44.91247" lon="4.18939">
        <ele>1701.19</ele>
        <time>2020-10-25T12:48:02Z</time>
      </trkpt>
      <trkpt lat="44.91244" lon="4.18938">
        <ele>1699.75</ele>
        <time>2020-10-25T12:48:08Z</time>
      </trkpt>
      <trkpt lat="44.91241" lon="4.18938">
        <ele>1700.71</ele>
        <time>2020-10-25T12:48:12Z</time>
      </trkpt>
      <trkpt lat="44.91234" lon="4.18935">
        <ele>1695.42</ele>
        <time>2020-10-25T12:48:19Z</time>
      </trkpt>
      <trkpt lat="44.9123" lon="4.18932">
        <ele>1700.71</ele>
        <time>2020-10-25T12:48:24Z</time>
      </trkpt>
      <trkpt lat="44.91226" lon="4.1893">
        <ele>1696.86</ele>
        <time>2020-10-25T12:48:27Z</time>
      </trkpt>
      <trkpt lat="44.91212" lon="4.18925">
        <ele>1696.38</ele>
        <time>2020-10-25T12:48:41Z</time>
      </trkpt>
      <trkpt lat="44.9121" lon="4.18925">
        <ele>1697.34</ele>
        <time>2020-10-25T12:48:43Z</time>
      </trkpt>
      <trkpt lat="44.91208" lon="4.18923">
        <ele>1697.34</ele>
        <time>2020-10-25T12:48:47Z</time>
      </trkpt>
      <trkpt lat="44.91206" lon="4.18922">
        <ele>1695.9</ele>
        <time>2020-10-25T12:48:49Z</time>
      </trkpt>
      <trkpt lat="44.91198" lon="4.18919">
        <ele>1694.46</ele>
        <time>2020-10-25T12:49:03Z</time>
      </trkpt>
      <trkpt lat="44.91197" lon="4.18917">
        <ele>1693.5</ele>
        <time>2020-10-25T12:49:05Z</time>
      </trkpt>
      <trkpt lat="44.91181" lon="4.1891">
        <ele>1691.58</ele>
        <time>2020-10-25T12:49:21Z</time>
      </trkpt>
      <trkpt lat="44.91179" lon="4.18909">
        <ele>1689.65</ele>
        <time>2020-10-25T12:49:23Z</time>
      </trkpt>
      <trkpt lat="44.91167" lon="4.18903">
        <ele>1688.21</ele>
        <time>2020-10-25T12:49:36Z</time>
      </trkpt>
      <trkpt lat="44.91166" lon="4.18901">
        <ele>1685.33</ele>
        <time>2020-10-25T12:49:38Z</time>
      </trkpt>
      <trkpt lat="44.91161" lon="4.18898">
        <ele>1685.81</ele>
        <time>2020-10-25T12:49:44Z</time>
      </trkpt>
      <trkpt lat="44.91157" lon="4.18893">
        <ele>1684.37</ele>
        <time>2020-10-25T12:49:50Z</time>
      </trkpt>
      <trkpt lat="44.91157" lon="4.18891">
        <ele>1684.37</ele>
        <time>2020-10-25T12:49:53Z</time>
      </trkpt>
      <trkpt lat="44.91156" lon="4.18889">
        <ele>1684.37</ele>
        <time>2020-10-25T12:49:55Z</time>
      </trkpt>
      <trkpt lat="44.91158" lon="4.18884">
        <ele>1683.41</ele>
        <time>2020-10-25T12:50:11Z</time>
      </trkpt>
      <trkpt lat="44.91158" lon="4.18878">
        <ele>1682.93</ele>
        <time>2020-10-25T12:50:15Z</time>
      </trkpt>
      <trkpt lat="44.91161" lon="4.18864">
        <ele>1680.52</ele>
        <time>2020-10-25T12:50:26Z</time>
      </trkpt>
      <trkpt lat="44.9116" lon="4.18858">
        <ele>1677.16</ele>
        <time>2020-10-25T12:50:31Z</time>
      </trkpt>
      <trkpt lat="44.9116" lon="4.18857">
        <ele>1678.12</ele>
        <time>2020-10-25T12:50:32Z</time>
      </trkpt>
      <trkpt lat="44.9116" lon="4.18853">
        <ele>1679.08</ele>
        <time>2020-10-25T12:50:34Z</time>
      </trkpt>
      <trkpt lat="44.91161" lon="4.18845">
        <ele>1676.68</ele>
        <time>2020-10-25T12:50:40Z</time>
      </trkpt>
      <trkpt lat="44.9116" lon="4.18833">
        <ele>1673.31</ele>
        <time>2020-10-25T12:50:51Z</time>
      </trkpt>
      <trkpt lat="44.91159" lon="4.18832">
        <ele>1673.31</ele>
        <time>2020-10-25T12:50:52Z</time>
      </trkpt>
      <trkpt lat="44.91155" lon="4.18829">
        <ele>1671.39</ele>
        <time>2020-10-25T12:50:57Z</time>
      </trkpt>
      <trkpt lat="44.91154" lon="4.18827">
        <ele>1672.83</ele>
        <time>2020-10-25T12:50:59Z</time>
      </trkpt>
      <trkpt lat="44.91152" lon="4.18826">
        <ele>1670.91</ele>
        <time>2020-10-25T12:51:02Z</time>
      </trkpt>
      <trkpt lat="44.91149" lon="4.18822">
        <ele>1669.47</ele>
        <time>2020-10-25T12:51:05Z</time>
      </trkpt>
      <trkpt lat="44.91148" lon="4.18822">
        <ele>1669.95</ele>
        <time>2020-10-25T12:51:07Z</time>
      </trkpt>
      <trkpt lat="44.91147" lon="4.18822">
        <ele>1669.47</ele>
        <time>2020-10-25T12:51:08Z</time>
      </trkpt>
      <trkpt lat="44.91145" lon="4.18819">
        <ele>1669.95</ele>
        <time>2020-10-25T12:51:11Z</time>
      </trkpt>
      <trkpt lat="44.91139" lon="4.18815">
        <ele>1667.54</ele>
        <time>2020-10-25T12:51:31Z</time>
      </trkpt>
      <trkpt lat="44.91138" lon="4.18815">
        <ele>1667.54</ele>
        <time>2020-10-25T12:51:32Z</time>
      </trkpt>
      <trkpt lat="44.91132" lon="4.18802">
        <ele>1665.62</ele>
        <time>2020-10-25T12:51:44Z</time>
      </trkpt>
      <trkpt lat="44.91127" lon="4.18798">
        <ele>1665.14</ele>
        <time>2020-10-25T12:51:50Z</time>
      </trkpt>
      <trkpt lat="44.91126" lon="4.18794">
        <ele>1665.14</ele>
        <time>2020-10-25T12:51:53Z</time>
      </trkpt>
      <trkpt lat="44.91123" lon="4.18789">
        <ele>1663.7</ele>
        <time>2020-10-25T12:51:57Z</time>
      </trkpt>
      <trkpt lat="44.91116" lon="4.18777">
        <ele>1661.78</ele>
        <time>2020-10-25T12:52:09Z</time>
      </trkpt>
      <trkpt lat="44.91114" lon="4.18774">
        <ele>1660.81</ele>
        <time>2020-10-25T12:52:21Z</time>
      </trkpt>
      <trkpt lat="44.91112" lon="4.18771">
        <ele>1659.85</ele>
        <time>2020-10-25T12:52:25Z</time>
      </trkpt>
      <trkpt lat="44.91111" lon="4.18769">
        <ele>1658.89</ele>
        <time>2020-10-25T12:52:28Z</time>
      </trkpt>
      <trkpt lat="44.91108" lon="4.18761">
        <ele>1657.93</ele>
        <time>2020-10-25T12:52:34Z</time>
      </trkpt>
      <trkpt lat="44.91101" lon="4.18753">
        <ele>1655.53</ele>
        <time>2020-10-25T12:52:48Z</time>
      </trkpt>
      <trkpt lat="44.91096" lon="4.18748">
        <ele>1654.57</ele>
        <time>2020-10-25T12:52:53Z</time>
      </trkpt>
      <trkpt lat="44.91091" lon="4.18732">
        <ele>1653.12</ele>
        <time>2020-10-25T12:53:08Z</time>
      </trkpt>
      <trkpt lat="44.91091" lon="4.18721">
        <ele>1650.72</ele>
        <time>2020-10-25T12:53:16Z</time>
      </trkpt>
      <trkpt lat="44.9109" lon="4.18714">
        <ele>1650.24</ele>
        <time>2020-10-25T12:53:20Z</time>
      </trkpt>
      <trkpt lat="44.91088" lon="4.18703">
        <ele>1649.28</ele>
        <time>2020-10-25T12:53:35Z</time>
      </trkpt>
      <trkpt lat="44.91086" lon="4.18693">
        <ele>1648.32</ele>
        <time>2020-10-25T12:53:40Z</time>
      </trkpt>
      <trkpt lat="44.91081" lon="4.18671">
        <ele>1645.91</ele>
        <time>2020-10-25T12:53:54Z</time>
      </trkpt>
      <trkpt lat="44.91077" lon="4.18656">
        <ele>1643.03</ele>
        <time>2020-10-25T12:54:07Z</time>
      </trkpt>
      <trkpt lat="44.91069" lon="4.18654">
        <ele>1641.59</ele>
        <time>2020-10-25T12:54:16Z</time>
      </trkpt>
      <trkpt lat="44.91068" lon="4.18654">
        <ele>1641.11</ele>
        <time>2020-10-25T12:54:17Z</time>
      </trkpt>
      <trkpt lat="44.91064" lon="4.18653">
        <ele>1640.63</ele>
        <time>2020-10-25T12:54:20Z</time>
      </trkpt>
      <trkpt lat="44.9106" lon="4.1865">
        <ele>1642.07</ele>
        <time>2020-10-25T12:54:24Z</time>
      </trkpt>
      <trkpt lat="44.91056" lon="4.18648">
        <ele>1639.67</ele>
        <time>2020-10-25T12:54:27Z</time>
      </trkpt>
      <trkpt lat="44.9105" lon="4.18645">
        <ele>1640.63</ele>
        <time>2020-10-25T12:54:34Z</time>
      </trkpt>
      <trkpt lat="44.91044" lon="4.18638">
        <ele>1639.19</ele>
        <time>2020-10-25T12:54:42Z</time>
      </trkpt>
      <trkpt lat="44.91051" lon="4.18624">
        <ele>1637.74</ele>
        <time>2020-10-25T12:54:54Z</time>
      </trkpt>
      <trkpt lat="44.91055" lon="4.18613">
        <ele>1635.82</ele>
        <time>2020-10-25T12:55:10Z</time>
      </trkpt>
      <trkpt lat="44.91056" lon="4.18611">
        <ele>1635.34</ele>
        <time>2020-10-25T12:55:14Z</time>
      </trkpt>
      <trkpt lat="44.91058" lon="4.18608">
        <ele>1635.34</ele>
        <time>2020-10-25T12:55:16Z</time>
      </trkpt>
      <trkpt lat="44.91063" lon="4.18604">
        <ele>1634.38</ele>
        <time>2020-10-25T12:55:20Z</time>
      </trkpt>
      <trkpt lat="44.91066" lon="4.18588">
        <ele>1631.49</ele>
        <time>2020-10-25T12:55:33Z</time>
      </trkpt>
      <trkpt lat="44.9106" lon="4.18575">
        <ele>1630.53</ele>
        <time>2020-10-25T12:55:45Z</time>
      </trkpt>
      <trkpt lat="44.91057" lon="4.18564">
        <ele>1627.65</ele>
        <time>2020-10-25T12:55:59Z</time>
      </trkpt>
      <trkpt lat="44.91057" lon="4.18555">
        <ele>1626.21</ele>
        <time>2020-10-25T12:56:07Z</time>
      </trkpt>
      <trkpt lat="44.91059" lon="4.18534">
        <ele>1624.28</ele>
        <time>2020-10-25T12:56:17Z</time>
      </trkpt>
      <trkpt lat="44.91061" lon="4.18516">
        <ele>1622.36</ele>
        <time>2020-10-25T12:56:34Z</time>
      </trkpt>
      <trkpt lat="44.91061" lon="4.18512">
        <ele>1621.4</ele>
        <time>2020-10-25T12:56:37Z</time>
      </trkpt>
      <trkpt lat="44.91066" lon="4.18502">
        <ele>1620.44</ele>
        <time>2020-10-25T12:56:44Z</time>
      </trkpt>
      <trkpt lat="44.91069" lon="4.18499">
        <ele>1619.96</ele>
        <time>2020-10-25T12:56:47Z</time>
      </trkpt>
      <trkpt lat="44.91076" lon="4.18487">
        <ele>1619.96</ele>
        <time>2020-10-25T12:57:03Z</time>
      </trkpt>
      <trkpt lat="44.91088" lon="4.18484">
        <ele>1618.52</ele>
        <time>2020-10-25T12:57:18Z</time>
      </trkpt>
      <trkpt lat="44.911" lon="4.1847">
        <ele>1617.56</ele>
        <time>2020-10-25T12:57:30Z</time>
      </trkpt>
      <trkpt lat="44.91104" lon="4.18461">
        <ele>1617.07</ele>
        <time>2020-10-25T12:57:39Z</time>
      </trkpt>
      <trkpt lat="44.91122" lon="4.18434">
        <ele>1613.71</ele>
        <time>2020-10-25T12:57:56Z</time>
      </trkpt>
      <trkpt lat="44.91129" lon="4.18422">
        <ele>1611.79</ele>
        <time>2020-10-25T12:58:11Z</time>
      </trkpt>
      <trkpt lat="44.91136" lon="4.18407">
        <ele>1610.83</ele>
        <time>2020-10-25T12:58:24Z</time>
      </trkpt>
      <trkpt lat="44.9114" lon="4.18402">
        <ele>1610.35</ele>
        <time>2020-10-25T12:58:28Z</time>
      </trkpt>
      <trkpt lat="44.91143" lon="4.18401">
        <ele>1610.35</ele>
        <time>2020-10-25T12:58:30Z</time>
      </trkpt>
      <trkpt lat="44.91148" lon="4.184">
        <ele>1610.35</ele>
        <time>2020-10-25T12:58:34Z</time>
      </trkpt>
      <trkpt lat="44.91162" lon="4.18394">
        <ele>1609.38</ele>
        <time>2020-10-25T12:58:50Z</time>
      </trkpt>
      <trkpt lat="44.91171" lon="4.18381">
        <ele>1608.9</ele>
        <time>2020-10-25T12:59:08Z</time>
      </trkpt>
      <trkpt lat="44.91173" lon="4.18376">
        <ele>1607.94</ele>
        <time>2020-10-25T12:59:11Z</time>
      </trkpt>
      <trkpt lat="44.91181" lon="4.18365">
        <ele>1606.98</ele>
        <time>2020-10-25T12:59:22Z</time>
      </trkpt>
      <trkpt lat="44.91188" lon="4.18359">
        <ele>1606.98</ele>
        <time>2020-10-25T12:59:28Z</time>
      </trkpt>
      <trkpt lat="44.91195" lon="4.18355">
        <ele>1606.98</ele>
        <time>2020-10-25T12:59:34Z</time>
      </trkpt>
      <trkpt lat="44.91209" lon="4.18345">
        <ele>1605.06</ele>
        <time>2020-10-25T12:59:48Z</time>
      </trkpt>
      <trkpt lat="44.91212" lon="4.18342">
        <ele>1604.58</ele>
        <time>2020-10-25T12:59:51Z</time>
      </trkpt>
      <trkpt lat="44.91215" lon="4.18338">
        <ele>1604.58</ele>
        <time>2020-10-25T12:59:56Z</time>
      </trkpt>
      <trkpt lat="44.91218" lon="4.18336">
        <ele>1604.1</ele>
        <time>2020-10-25T12:59:59Z</time>
      </trkpt>
      <trkpt lat="44.91227" lon="4.18324">
        <ele>1603.14</ele>
        <time>2020-10-25T13:00:10Z</time>
      </trkpt>
      <trkpt lat="44.91243" lon="4.18311">
        <ele>1602.17</ele>
        <time>2020-10-25T13:00:26Z</time>
      </trkpt>
      <trkpt lat="44.91253" lon="4.18293">
        <ele>1600.25</ele>
        <time>2020-10-25T13:00:42Z</time>
      </trkpt>
      <trkpt lat="44.91257" lon="4.18293">
        <ele>1600.25</ele>
        <time>2020-10-25T13:00:51Z</time>
      </trkpt>
      <trkpt lat="44.91269" lon="4.18283">
        <ele>1598.33</ele>
        <time>2020-10-25T13:01:04Z</time>
      </trkpt>
      <trkpt lat="44.91288" lon="4.18268">
        <ele>1598.33</ele>
        <time>2020-10-25T13:01:21Z</time>
      </trkpt>
      <trkpt lat="44.91299" lon="4.18258">
        <ele>1597.37</ele>
        <time>2020-10-25T13:01:32Z</time>
      </trkpt>
      <trkpt lat="44.91303" lon="4.18257">
        <ele>1597.37</ele>
        <time>2020-10-25T13:01:35Z</time>
      </trkpt>
      <trkpt lat="44.91314" lon="4.18256">
        <ele>1597.37</ele>
        <time>2020-10-25T13:01:47Z</time>
      </trkpt>
      <trkpt lat="44.91332" lon="4.18239">
        <ele>1596.89</ele>
        <time>2020-10-25T13:02:05Z</time>
      </trkpt>
      <trkpt lat="44.91338" lon="4.18231">
        <ele>1596.41</ele>
        <time>2020-10-25T13:02:15Z</time>
      </trkpt>
      <trkpt lat="44.9135" lon="4.18223">
        <ele>1595.93</ele>
        <time>2020-10-25T13:02:30Z</time>
      </trkpt>
      <trkpt lat="44.91357" lon="4.18219">
        <ele>1595.93</ele>
        <time>2020-10-25T13:02:36Z</time>
      </trkpt>
      <trkpt lat="44.91368" lon="4.18209">
        <ele>1595.45</ele>
        <time>2020-10-25T13:02:47Z</time>
      </trkpt>
      <trkpt lat="44.91378" lon="4.18191">
        <ele>1594.48</ele>
        <time>2020-10-25T13:02:59Z</time>
      </trkpt>
      <trkpt lat="44.9138" lon="4.18186">
        <ele>1594.96</ele>
        <time>2020-10-25T13:03:02Z</time>
      </trkpt>
      <trkpt lat="44.91381" lon="4.1818">
        <ele>1594.48</ele>
        <time>2020-10-25T13:03:05Z</time>
      </trkpt>
      <trkpt lat="44.91395" lon="4.18158">
        <ele>1593.04</ele>
        <time>2020-10-25T13:03:21Z</time>
      </trkpt>
      <trkpt lat="44.91408" lon="4.18135">
        <ele>1592.56</ele>
        <time>2020-10-25T13:03:38Z</time>
      </trkpt>
      <trkpt lat="44.91409" lon="4.18132">
        <ele>1592.56</ele>
        <time>2020-10-25T13:03:40Z</time>
      </trkpt>
      <trkpt lat="44.91414" lon="4.18126">
        <ele>1592.56</ele>
        <time>2020-10-25T13:03:45Z</time>
      </trkpt>
      <trkpt lat="44.9142" lon="4.18115">
        <ele>1592.08</ele>
        <time>2020-10-25T13:03:52Z</time>
      </trkpt>
      <trkpt lat="44.9143" lon="4.18096">
        <ele>1592.08</ele>
        <time>2020-10-25T13:04:07Z</time>
      </trkpt>
      <trkpt lat="44.91432" lon="4.18091">
        <ele>1591.12</ele>
        <time>2020-10-25T13:04:10Z</time>
      </trkpt>
      <trkpt lat="44.91436" lon="4.18082">
        <ele>1590.64</ele>
        <time>2020-10-25T13:04:16Z</time>
      </trkpt>
      <trkpt lat="44.9145" lon="4.18056">
        <ele>1589.2</ele>
        <time>2020-10-25T13:04:34Z</time>
      </trkpt>
      <trkpt lat="44.91451" lon="4.18055">
        <ele>1588.24</ele>
        <time>2020-10-25T13:04:35Z</time>
      </trkpt>
      <trkpt lat="44.91464" lon="4.18036">
        <ele>1588.72</ele>
        <time>2020-10-25T13:04:50Z</time>
      </trkpt>
      <trkpt lat="44.91468" lon="4.1803">
        <ele>1588.24</ele>
        <time>2020-10-25T13:04:55Z</time>
      </trkpt>
      <trkpt lat="44.91479" lon="4.18016">
        <ele>1587.75</ele>
        <time>2020-10-25T13:05:07Z</time>
      </trkpt>
      <trkpt lat="44.91488" lon="4.17996">
        <ele>1584.87</ele>
        <time>2020-10-25T13:05:20Z</time>
      </trkpt>
      <trkpt lat="44.915" lon="4.1797">
        <ele>1585.35</ele>
        <time>2020-10-25T13:05:39Z</time>
      </trkpt>
      <trkpt lat="44.91515" lon="4.17954">
        <ele>1585.35</ele>
        <time>2020-10-25T13:05:55Z</time>
      </trkpt>
      <trkpt lat="44.91518" lon="4.1795">
        <ele>1581.99</ele>
        <time>2020-10-25T13:06:03Z</time>
      </trkpt>
      <trkpt lat="44.91517" lon="4.17947">
        <ele>1583.43</ele>
        <time>2020-10-25T13:06:15Z</time>
      </trkpt>
      <trkpt lat="44.91519" lon="4.17941">
        <ele>1582.95</ele>
        <time>2020-10-25T13:06:20Z</time>
      </trkpt>
      <trkpt lat="44.91525" lon="4.1794">
        <ele>1583.43</ele>
        <time>2020-10-25T13:06:27Z</time>
      </trkpt>
      <trkpt lat="44.91539" lon="4.17936">
        <ele>1581.99</ele>
        <time>2020-10-25T13:06:42Z</time>
      </trkpt>
      <trkpt lat="44.9155" lon="4.17931">
        <ele>1581.03</ele>
        <time>2020-10-25T13:06:58Z</time>
      </trkpt>
      <trkpt lat="44.91552" lon="4.17933">
        <ele>1580.54</ele>
        <time>2020-10-25T13:07:16Z</time>
      </trkpt>
      <trkpt lat="44.91555" lon="4.17933">
        <ele>1580.54</ele>
        <time>2020-10-25T13:07:36Z</time>
      </trkpt>
      <trkpt lat="44.91557" lon="4.17932">
        <ele>1580.06</ele>
        <time>2020-10-25T13:07:39Z</time>
      </trkpt>
      <trkpt lat="44.91562" lon="4.17916">
        <ele>1579.58</ele>
        <time>2020-10-25T13:07:51Z</time>
      </trkpt>
      <trkpt lat="44.91565" lon="4.17909">
        <ele>1579.1</ele>
        <time>2020-10-25T13:07:56Z</time>
      </trkpt>
      <trkpt lat="44.91567" lon="4.17906">
        <ele>1578.62</ele>
        <time>2020-10-25T13:07:58Z</time>
      </trkpt>
      <trkpt lat="44.91568" lon="4.17903">
        <ele>1578.62</ele>
        <time>2020-10-25T13:08:00Z</time>
      </trkpt>
      <trkpt lat="44.91573" lon="4.17895">
        <ele>1578.62</ele>
        <time>2020-10-25T13:08:07Z</time>
      </trkpt>
      <trkpt lat="44.91577" lon="4.17874">
        <ele>1577.18</ele>
        <time>2020-10-25T13:08:19Z</time>
      </trkpt>
      <trkpt lat="44.91584" lon="4.17859">
        <ele>1575.26</ele>
        <time>2020-10-25T13:08:34Z</time>
      </trkpt>
      <trkpt lat="44.91585" lon="4.17861">
        <ele>1575.74</ele>
        <time>2020-10-25T13:08:58Z</time>
      </trkpt>
      <trkpt lat="44.91586" lon="4.1786">
        <ele>1575.26</ele>
        <time>2020-10-25T13:09:19Z</time>
      </trkpt>
      <trkpt lat="44.91589" lon="4.17856">
        <ele>1575.26</ele>
        <time>2020-10-25T13:09:30Z</time>
      </trkpt>
    </trkseg>
  </trk>
</gpx>